Wetterdaten: Dienstag, 15.11.2016
Datum Zeit Temp. A. Temp. A. max Feuchte A. Luftdruck Regen Wind Richtung Richtung Sonnenschein ET UV Solar Taupunkt Windböen
15.11.2016 00:00 -2,2 °C -2,2 °C 94 % 1032,5 hPa 0,0 mm 1,9 km/h (1 Bft) W 262 ° 0 min 0,000 mm 0,0 UV-I 0 W/m² -3,0 °C 3,2 km/h (1 Bft)
15.11.2016 00:01 -2,2 °C -2,2 °C 94 % 1032,6 hPa 0,0 mm 1,0 km/h (0 Bft) W 262 ° 0 min 0,000 mm 0,0 UV-I 0 W/m² -3,0 °C 1,6 km/h (1 Bft)
15.11.2016 00:02 -2,2 °C -2,2 °C 94 % 1032,5 hPa 0,0 mm 1,9 km/h (1 Bft) W 262 ° 0 min 0,000 mm 0,0 UV-I 0 W/m² -3,0 °C 3,2 km/h (1 Bft)
15.11.2016 00:03 -2,2 °C -2,2 °C 94 % 1032,5 hPa 0,0 mm 1,8 km/h (1 Bft) W 262 ° 0 min 0,000 mm 0,0 UV-I 0 W/m² -3,0 °C 3,2 km/h (1 Bft)
15.11.2016 00:04 -2,2 °C -2,2 °C 94 % 1032,5 hPa 0,0 mm 1,4 km/h (1 Bft) W 262 ° 0 min 0,000 mm 0,0 UV-I 0 W/m² -3,0 °C 3,2 km/h (1 Bft)
15.11.2016 00:05 -2,2 °C -2,2 °C 94 % 1032,5 hPa 0,0 mm 0,8 km/h (0 Bft) W 262 ° 0 min 0,000 mm 0,0 UV-I 0 W/m² -3,0 °C 1,6 km/h (1 Bft)
15.11.2016 00:06 -2,2 °C -2,2 °C 94 % 1032,5 hPa 0,0 mm 1,7 km/h (1 Bft) W 262 ° 0 min 0,000 mm 0,0 UV-I 0 W/m² -3,0 °C 3,2 km/h (1 Bft)
15.11.2016 00:07 -2,2 °C -2,2 °C 94 % 1032,4 hPa 0,0 mm 1,0 km/h (0 Bft) W 262 ° 0 min 0,000 mm 0,0 UV-I 0 W/m² -3,0 °C 1,6 km/h (1 Bft)
15.11.2016 00:08 -2,2 °C -2,2 °C 94 % 1032,4 hPa 0,0 mm 1,7 km/h (1 Bft) W 262 ° 0 min 0,000 mm 0,0 UV-I 0 W/m² -3,0 °C 3,2 km/h (1 Bft)
15.11.2016 00:09 -2,2 °C -2,2 °C 94 % 1032,4 hPa 0,0 mm 2,5 km/h (1 Bft) W 262 ° 0 min 0,000 mm 0,0 UV-I 0 W/m² -3,0 °C 3,2 km/h (1 Bft)
15.11.2016 00:10 -2,2 °C -2,2 °C 94 % 1032,4 hPa 0,0 mm 1,8 km/h (1 Bft) W 262 ° 0 min 0,000 mm 0,0 UV-I 0 W/m² -3,0 °C 3,2 km/h (1 Bft)
15.11.2016 00:11 -2,2 °C -2,2 °C 94 % 1032,4 hPa 0,0 mm 0,5 km/h (0 Bft) W 262 ° 0 min 0,000 mm 0,0 UV-I 0 W/m² -3,0 °C 1,6 km/h (1 Bft)
15.11.2016 00:12 -2,2 °C -2,2 °C 94 % 1032,4 hPa 0,0 mm 0,9 km/h (0 Bft) W 262 ° 0 min 0,000 mm 0,0 UV-I 0 W/m² -3,0 °C 3,2 km/h (1 Bft)
15.11.2016 00:13 -2,2 °C -2,2 °C 94 % 1032,4 hPa 0,0 mm 1,7 km/h (1 Bft) W 262 ° 0 min 0,000 mm 0,0 UV-I 0 W/m² -3,0 °C 3,2 km/h (1 Bft)
15.11.2016 00:14 -2,2 °C -2,2 °C 94 % 1032,4 hPa 0,0 mm 2,3 km/h (1 Bft) W 262 ° 0 min 0,000 mm 0,0 UV-I 0 W/m² -3,0 °C 3,2 km/h (1 Bft)
15.11.2016 00:15 -2,2 °C -2,2 °C 94 % 1032,4 hPa 0,0 mm 1,7 km/h (1 Bft) W 262 ° 0 min 0,000 mm 0,0 UV-I 0 W/m² -3,0 °C 3,2 km/h (1 Bft)
15.11.2016 00:16 -2,2 °C -2,2 °C 94 % 1032,5 hPa 0,0 mm 1,9 km/h (1 Bft) W 262 ° 0 min 0,000 mm 0,0 UV-I 0 W/m² -3,0 °C 3,2 km/h (1 Bft)
15.11.2016 00:17 -2,2 °C -2,2 °C 94 % 1032,4 hPa 0,0 mm 1,8 km/h (1 Bft) W 262 ° 0 min 0,000 mm 0,0 UV-I 0 W/m² -3,0 °C 3,2 km/h (1 Bft)
15.11.2016 00:18 -2,2 °C -2,2 °C 94 % 1032,4 hPa 0,0 mm 1,7 km/h (1 Bft) W 262 ° 0 min 0,000 mm 0,0 UV-I 0 W/m² -3,0 °C 3,2 km/h (1 Bft)
15.11.2016 00:19 -2,2 °C -2,2 °C 94 % 1032,4 hPa 0,0 mm 1,3 km/h (1 Bft) W 262 ° 0 min 0,000 mm 0,0 UV-I 0 W/m² -3,0 °C 1,6 km/h (1 Bft)
15.11.2016 00:20 -2,2 °C -2,2 °C 94 % 1032,5 hPa 0,0 mm 3,0 km/h (1 Bft) W-NW 292 ° 0 min 0,000 mm 0,0 UV-I 0 W/m² -3,0 °C 4,8 km/h (1 Bft)
15.11.2016 00:21 -2,2 °C -2,2 °C 94 % 1032,4 hPa 0,0 mm 1,9 km/h (1 Bft) W-NW 292 ° 0 min 0,000 mm 0,0 UV-I 0 W/m² -3,0 °C 3,2 km/h (1 Bft)
15.11.2016 00:22 -2,2 °C -2,2 °C 94 % 1032,4 hPa 0,0 mm 2,9 km/h (1 Bft) W-NW 292 ° 0 min 0,000 mm 0,0 UV-I 0 W/m² -3,0 °C 3,2 km/h (1 Bft)
15.11.2016 00:23 -2,2 °C -2,2 °C 94 % 1032,5 hPa 0,0 mm 2,5 km/h (1 Bft) W-NW 292 ° 0 min 0,000 mm 0,0 UV-I 0 W/m² -3,0 °C 3,2 km/h (1 Bft)
15.11.2016 00:24 -2,2 °C -2,2 °C 94 % 1032,4 hPa 0,0 mm 2,0 km/h (1 Bft) W-NW 292 ° 0 min 0,000 mm 0,0 UV-I 0 W/m² -3,0 °C 3,2 km/h (1 Bft)
15.11.2016 00:25 -2,2 °C -2,2 °C 94 % 1032,5 hPa 0,0 mm 2,7 km/h (1 Bft) W-NW 292 ° 0 min 0,000 mm 0,0 UV-I 0 W/m² -3,0 °C 4,8 km/h (1 Bft)
15.11.2016 00:26 -2,2 °C -2,2 °C 94 % 1032,5 hPa 0,0 mm 0,8 km/h (0 Bft) W-NW 292 ° 0 min 0,000 mm 0,0 UV-I 0 W/m² -3,0 °C 3,2 km/h (1 Bft)
15.11.2016 00:27 -2,2 °C -2,2 °C 94 % 1032,4 hPa 0,0 mm 2,9 km/h (1 Bft) W-NW 292 ° 0 min 0,000 mm 0,0 UV-I 0 W/m² -3,0 °C 4,8 km/h (1 Bft)
15.11.2016 00:28 -2,2 °C -2,2 °C 94 % 1032,4 hPa 0,0 mm 2,4 km/h (1 Bft) W-NW 292 ° 0 min 0,000 mm 0,0 UV-I 0 W/m² -3,0 °C 3,2 km/h (1 Bft)
15.11.2016 00:29 -2,2 °C -2,2 °C 94 % 1032,5 hPa 0,0 mm 3,3 km/h (1 Bft) W-NW 292 ° 0 min 0,000 mm 0,0 UV-I 0 W/m² -3,0 °C 4,8 km/h (1 Bft)
15.11.2016 00:30 -2,2 °C -2,2 °C 94 % 1032,5 hPa 0,0 mm 2,3 km/h (1 Bft) W-NW 293 ° 0 min 0,000 mm 0,0 UV-I 0 W/m² -3,0 °C 3,2 km/h (1 Bft)
15.11.2016 00:31 -2,2 °C -2,2 °C 94 % 1032,5 hPa 0,0 mm 3,5 km/h (1 Bft) W-NW 288 ° 0 min 0,000 mm 0,0 UV-I 0 W/m² -3,0 °C 4,8 km/h (1 Bft)
15.11.2016 00:32 -2,2 °C -2,2 °C 94 % 1032,5 hPa 0,0 mm 3,2 km/h (1 Bft) NW 306 ° 0 min 0,000 mm 0,0 UV-I 0 W/m² -3,0 °C 4,8 km/h (1 Bft)
15.11.2016 00:33 -2,2 °C -2,2 °C 94 % 1032,5 hPa 0,0 mm 3,5 km/h (1 Bft) W-NW 292 ° 0 min 0,000 mm 0,0 UV-I 0 W/m² -3,0 °C 4,8 km/h (1 Bft)
15.11.2016 00:34 -2,2 °C -2,2 °C 94 % 1032,5 hPa 0,0 mm 2,7 km/h (1 Bft) W 279 ° 0 min 0,000 mm 0,0 UV-I 0 W/m² -3,0 °C 4,8 km/h (1 Bft)
15.11.2016 00:35 -2,2 °C -2,2 °C 94 % 1032,4 hPa 0,0 mm 3,7 km/h (1 Bft) W 273 ° 0 min 0,000 mm 0,0 UV-I 0 W/m² -3,0 °C 4,8 km/h (1 Bft)
15.11.2016 00:36 -2,2 °C -2,2 °C 94 % 1032,4 hPa 0,0 mm 3,2 km/h (1 Bft) W 271 ° 0 min 0,000 mm 0,0 UV-I 0 W/m² -3,0 °C 4,8 km/h (1 Bft)
15.11.2016 00:37 -2,2 °C -2,2 °C 94 % 1032,4 hPa 0,0 mm 3,5 km/h (1 Bft) W 273 ° 0 min 0,000 mm 0,0 UV-I 0 W/m² -3,0 °C 4,8 km/h (1 Bft)
15.11.2016 00:38 -2,2 °C -2,2 °C 94 % 1032,4 hPa 0,0 mm 3,5 km/h (1 Bft) W 273 ° 0 min 0,000 mm 0,0 UV-I 0 W/m² -3,0 °C 4,8 km/h (1 Bft)
15.11.2016 00:39 -2,2 °C -2,2 °C 94 % 1032,4 hPa 0,0 mm 1,3 km/h (1 Bft) W 273 ° 0 min 0,000 mm 0,0 UV-I 0 W/m² -3,0 °C 3,2 km/h (1 Bft)
15.11.2016 00:40 -2,2 °C -2,2 °C 94 % 1032,3 hPa 0,0 mm 0,8 km/h (0 Bft) W 273 ° 0 min 0,000 mm 0,0 UV-I 0 W/m² -3,0 °C 1,6 km/h (1 Bft)
15.11.2016 00:41 -2,2 °C -2,2 °C 94 % 1032,3 hPa 0,0 mm 1,9 km/h (1 Bft) W 273 ° 0 min 0,000 mm 0,0 UV-I 0 W/m² -3,0 °C 3,2 km/h (1 Bft)
15.11.2016 00:42 -2,2 °C -2,2 °C 94 % 1032,4 hPa 0,0 mm 3,5 km/h (1 Bft) W 273 ° 0 min 0,000 mm 0,0 UV-I 0 W/m² -3,0 °C 4,8 km/h (1 Bft)
15.11.2016 00:43 -2,2 °C -2,2 °C 94 % 1032,4 hPa 0,0 mm 4,0 km/h (1 Bft) W-NW 299 ° 0 min 0,000 mm 0,0 UV-I 0 W/m² -3,0 °C 4,8 km/h (1 Bft)
15.11.2016 00:44 -2,2 °C -2,2 °C 94 % 1032,4 hPa 0,0 mm 4,2 km/h (1 Bft) W 280 ° 0 min 0,000 mm 0,0 UV-I 0 W/m² -3,0 °C 4,8 km/h (1 Bft)
15.11.2016 00:45 -2,2 °C -2,2 °C 94 % 1032,4 hPa 0,0 mm 4,0 km/h (1 Bft) W 281 ° 0 min 0,000 mm 0,0 UV-I 0 W/m² -3,0 °C 4,8 km/h (1 Bft)
15.11.2016 00:46 -2,2 °C -2,2 °C 94 % 1032,4 hPa 0,0 mm 3,6 km/h (1 Bft) W 281 ° 0 min 0,000 mm 0,0 UV-I 0 W/m² -3,0 °C 4,8 km/h (1 Bft)
15.11.2016 00:47 -2,2 °C -2,2 °C 94 % 1032,3 hPa 0,0 mm 1,7 km/h (1 Bft) W 281 ° 0 min 0,000 mm 0,0 UV-I 0 W/m² -3,0 °C 3,2 km/h (1 Bft)
15.11.2016 00:48 -2,2 °C -2,2 °C 94 % 1032,3 hPa 0,0 mm 1,6 km/h (1 Bft) W 281 ° 0 min 0,000 mm 0,0 UV-I 0 W/m² -3,0 °C 3,2 km/h (1 Bft)
15.11.2016 00:49 -2,2 °C -2,2 °C 94 % 1032,3 hPa 0,0 mm 1,0 km/h (0 Bft) W 281 ° 0 min 0,000 mm 0,0 UV-I 0 W/m² -3,0 °C 1,6 km/h (1 Bft)
15.11.2016 00:50 -2,2 °C -2,2 °C 94 % 1032,3 hPa 0,0 mm 1,7 km/h (1 Bft) W 281 ° 0 min 0,000 mm 0,0 UV-I 0 W/m² -3,0 °C 3,2 km/h (1 Bft)
15.11.2016 00:51 -2,2 °C -2,2 °C 94 % 1032,3 hPa 0,0 mm 1,8 km/h (1 Bft) W 281 ° 0 min 0,000 mm 0,0 UV-I 0 W/m² -3,0 °C 3,2 km/h (1 Bft)
15.11.2016 00:52 -2,2 °C -2,2 °C 94 % 1032,3 hPa 0,0 mm 2,3 km/h (1 Bft) W 281 ° 0 min 0,000 mm 0,0 UV-I 0 W/m² -3,0 °C 4,8 km/h (1 Bft)
15.11.2016 00:53 -2,2 °C -2,2 °C 94 % 1032,3 hPa 0,0 mm 1,9 km/h (1 Bft) W 281 ° 0 min 0,000 mm 0,0 UV-I 0 W/m² -3,0 °C 3,2 km/h (1 Bft)
15.11.2016 00:54 -2,2 °C -2,2 °C 94 % 1032,3 hPa 0,0 mm 1,9 km/h (1 Bft) W 281 ° 0 min 0,000 mm 0,0 UV-I 0 W/m² -3,0 °C 3,2 km/h (1 Bft)
15.11.2016 00:55 -2,3 °C -2,2 °C 94 % 1032,3 hPa 0,0 mm 1,3 km/h (1 Bft) W 281 ° 0 min 0,000 mm 0,0 UV-I 0 W/m² -3,1 °C 3,2 km/h (1 Bft)
15.11.2016 00:56 -2,2 °C -2,2 °C 94 % 1032,3 hPa 0,0 mm 0,4 km/h (0 Bft) W 281 ° 0 min 0,000 mm 0,0 UV-I 0 W/m² -3,0 °C 1,6 km/h (1 Bft)
15.11.2016 00:57 -2,3 °C -2,2 °C 94 % 1032,3 hPa 0,0 mm 0,1 km/h (0 Bft) W 281 ° 0 min 0,000 mm 0,0 UV-I 0 W/m² -3,1 °C 1,6 km/h (1 Bft)
15.11.2016 00:58 -2,3 °C -2,2 °C 94 % 1032,4 hPa 0,0 mm 0,3 km/h (0 Bft) W 281 ° 0 min 0,000 mm 0,0 UV-I 0 W/m² -3,1 °C 1,6 km/h (1 Bft)
15.11.2016 00:59 -2,2 °C -2,2 °C 94 % 1032,4 hPa 0,0 mm 0,7 km/h (0 Bft) W 281 ° 0 min 0,000 mm 0,0 UV-I 0 W/m² -3,0 °C 1,6 km/h (1 Bft)
15.11.2016 01:00 -2,2 °C -2,2 °C 94 % 1032,5 hPa 0,0 mm 1,0 km/h (0 Bft) W 281 ° 0 min 0,000 mm 0,0 UV-I 0 W/m² -3,0 °C 3,2 km/h (1 Bft)
15.11.2016 01:01 -2,3 °C -2,2 °C 94 % 1032,4 hPa 0,0 mm 2,7 km/h (1 Bft) NW 321 ° 0 min 0,000 mm 0,0 UV-I 0 W/m² -3,1 °C 3,2 km/h (1 Bft)
15.11.2016 01:02 -2,2 °C -2,2 °C 94 % 1032,4 hPa 0,0 mm 3,6 km/h (1 Bft) NW 321 ° 0 min 0,000 mm 0,0 UV-I 0 W/m² -3,0 °C 4,8 km/h (1 Bft)
15.11.2016 01:03 -2,2 °C -2,2 °C 94 % 1032,4 hPa 0,0 mm 2,7 km/h (1 Bft) W-NW 282 ° 0 min 0,000 mm 0,0 UV-I 0 W/m² -3,0 °C 4,8 km/h (1 Bft)
15.11.2016 01:04 -2,2 °C -2,2 °C 94 % 1032,5 hPa 0,0 mm 2,8 km/h (1 Bft) W-NW 282 ° 0 min 0,000 mm 0,0 UV-I 0 W/m² -3,0 °C 4,8 km/h (1 Bft)
15.11.2016 01:05 -2,2 °C -2,2 °C 94 % 1032,4 hPa 0,0 mm 3,4 km/h (1 Bft) W-NW 288 ° 0 min 0,000 mm 0,0 UV-I 0 W/m² -3,0 °C 4,8 km/h (1 Bft)
15.11.2016 01:06 -2,2 °C -2,2 °C 94 % 1032,5 hPa 0,0 mm 2,7 km/h (1 Bft) W-NW 288 ° 0 min 0,000 mm 0,0 UV-I 0 W/m² -3,0 °C 4,8 km/h (1 Bft)
15.11.2016 01:07 -2,2 °C -2,2 °C 94 % 1032,4 hPa 0,0 mm 1,3 km/h (1 Bft) W-NW 288 ° 0 min 0,000 mm 0,0 UV-I 0 W/m² -3,0 °C 3,2 km/h (1 Bft)
15.11.2016 01:08 -2,2 °C -2,2 °C 94 % 1032,3 hPa 0,0 mm 3,1 km/h (1 Bft) NW 308 ° 0 min 0,000 mm 0,0 UV-I 0 W/m² -3,0 °C 4,8 km/h (1 Bft)
15.11.2016 01:09 -2,3 °C -2,2 °C 94 % 1032,3 hPa 0,0 mm 3,2 km/h (1 Bft) W 280 ° 0 min 0,000 mm 0,0 UV-I 0 W/m² -3,1 °C 6,4 km/h (2 Bft)
15.11.2016 01:10 -2,2 °C -2,2 °C 94 % 1032,3 hPa 0,0 mm 4,5 km/h (1 Bft) W-NW 301 ° 0 min 0,000 mm 0,0 UV-I 0 W/m² -3,0 °C 6,4 km/h (2 Bft)
15.11.2016 01:11 -2,2 °C -2,2 °C 94 % 1032,4 hPa 0,0 mm 3,8 km/h (1 Bft) W-NW 291 ° 0 min 0,000 mm 0,0 UV-I 0 W/m² -3,0 °C 4,8 km/h (1 Bft)
15.11.2016 01:12 -2,3 °C -2,2 °C 94 % 1032,4 hPa 0,0 mm 4,3 km/h (1 Bft) W 281 ° 0 min 0,000 mm 0,0 UV-I 0 W/m² -3,1 °C 4,8 km/h (1 Bft)
15.11.2016 01:13 -2,2 °C -2,2 °C 94 % 1032,4 hPa 0,0 mm 4,1 km/h (1 Bft) W-NW 295 ° 0 min 0,000 mm 0,0 UV-I 0 W/m² -3,0 °C 6,4 km/h (2 Bft)
15.11.2016 01:14 -2,2 °C -2,2 °C 94 % 1032,5 hPa 0,0 mm 3,9 km/h (1 Bft) W 280 ° 0 min 0,000 mm 0,0 UV-I 0 W/m² -3,0 °C 4,8 km/h (1 Bft)
15.11.2016 01:15 -2,2 °C -2,2 °C 94 % 1032,5 hPa 0,0 mm 2,2 km/h (1 Bft) W 280 ° 0 min 0,000 mm 0,0 UV-I 0 W/m² -3,0 °C 3,2 km/h (1 Bft)
15.11.2016 01:16 -2,3 °C -2,2 °C 94 % 1032,5 hPa 0,0 mm 2,4 km/h (1 Bft) W 280 ° 0 min 0,000 mm 0,0 UV-I 0 W/m² -3,1 °C 3,2 km/h (1 Bft)
15.11.2016 01:17 -2,2 °C -2,2 °C 94 % 1032,6 hPa 0,0 mm 2,6 km/h (1 Bft) W 280 ° 0 min 0,000 mm 0,0 UV-I 0 W/m² -3,0 °C 3,2 km/h (1 Bft)
15.11.2016 01:18 -2,3 °C -2,2 °C 94 % 1032,6 hPa 0,0 mm 2,4 km/h (1 Bft) W 280 ° 0 min 0,000 mm 0,0 UV-I 0 W/m² -3,1 °C 4,8 km/h (1 Bft)
15.11.2016 01:19 -2,2 °C -2,2 °C 94 % 1032,6 hPa 0,0 mm 2,2 km/h (1 Bft) W 280 ° 0 min 0,000 mm 0,0 UV-I 0 W/m² -3,0 °C 3,2 km/h (1 Bft)
15.11.2016 01:20 -2,2 °C -2,2 °C 94 % 1032,6 hPa 0,0 mm 1,3 km/h (1 Bft) W 280 ° 0 min 0,000 mm 0,0 UV-I 0 W/m² -3,0 °C 3,2 km/h (1 Bft)
15.11.2016 01:21 -2,3 °C -2,2 °C 94 % 1032,6 hPa 0,0 mm 1,5 km/h (1 Bft) W 280 ° 0 min 0,000 mm 0,0 UV-I 0 W/m² -3,1 °C 3,2 km/h (1 Bft)
15.11.2016 01:22 -2,3 °C -2,3 °C 94 % 1032,6 hPa 0,0 mm 0,9 km/h (0 Bft) W 280 ° 0 min 0,000 mm 0,0 UV-I 0 W/m² -3,1 °C 1,6 km/h (1 Bft)
15.11.2016 01:23 -2,3 °C -2,2 °C 94 % 1032,7 hPa 0,0 mm 1,2 km/h (1 Bft) W 280 ° 0 min 0,000 mm 0,0 UV-I 0 W/m² -3,1 °C 1,6 km/h (1 Bft)
15.11.2016 01:24 -2,3 °C -2,2 °C 94 % 1032,7 hPa 0,0 mm 0,6 km/h (0 Bft) W 280 ° 0 min 0,000 mm 0,0 UV-I 0 W/m² -3,1 °C 1,6 km/h (1 Bft)
15.11.2016 01:25 -2,2 °C -2,2 °C 94 % 1032,7 hPa 0,0 mm 0,9 km/h (0 Bft) W 280 ° 0 min 0,000 mm 0,0 UV-I 0 W/m² -3,0 °C 1,6 km/h (1 Bft)
15.11.2016 01:26 -2,3 °C -2,2 °C 94 % 1032,6 hPa 0,0 mm 1,6 km/h (1 Bft) W 280 ° 0 min 0,000 mm 0,0 UV-I 0 W/m² -3,1 °C 3,2 km/h (1 Bft)
15.11.2016 01:27 -2,3 °C -2,3 °C 94 % 1032,6 hPa 0,0 mm 1,4 km/h (1 Bft) W 280 ° 0 min 0,000 mm 0,0 UV-I 0 W/m² -3,1 °C 3,2 km/h (1 Bft)
15.11.2016 01:28 -2,3 °C -2,3 °C 94 % 1032,6 hPa 0,0 mm 1,6 km/h (1 Bft) W 280 ° 0 min 0,000 mm 0,0 UV-I 0 W/m² -3,1 °C 3,2 km/h (1 Bft)
15.11.2016 01:29 -2,3 °C -2,3 °C 94 % 1032,6 hPa 0,0 mm 1,9 km/h (1 Bft) W 280 ° 0 min 0,000 mm 0,0 UV-I 0 W/m² -3,1 °C 3,2 km/h (1 Bft)
15.11.2016 01:30 -2,3 °C -2,3 °C 94 % 1032,6 hPa 0,0 mm 4,5 km/h (1 Bft) W 262 ° 0 min 0,000 mm 0,0 UV-I 0 W/m² -3,1 °C 6,4 km/h (2 Bft)
15.11.2016 01:31 -2,3 °C -2,3 °C 94 % 1032,6 hPa 0,0 mm 3,5 km/h (1 Bft) W 272 ° 0 min 0,000 mm 0,0 UV-I 0 W/m² -3,1 °C 4,8 km/h (1 Bft)
15.11.2016 01:32 -2,3 °C -2,3 °C 94 % 1032,6 hPa 0,0 mm 4,6 km/h (1 Bft) W 281 ° 0 min 0,000 mm 0,0 UV-I 0 W/m² -3,1 °C 6,4 km/h (2 Bft)
15.11.2016 01:33 -2,3 °C -2,3 °C 94 % 1032,6 hPa 0,0 mm 4,1 km/h (1 Bft) W 269 ° 0 min 0,000 mm 0,0 UV-I 0 W/m² -3,1 °C 6,4 km/h (2 Bft)
15.11.2016 01:34 -2,3 °C -2,3 °C 94 % 1032,6 hPa 0,0 mm 2,9 km/h (1 Bft) W 269 ° 0 min 0,000 mm 0,0 UV-I 0 W/m² -3,1 °C 4,8 km/h (1 Bft)
15.11.2016 01:35 -2,3 °C -2,3 °C 94 % 1032,6 hPa 0,0 mm 2,3 km/h (1 Bft) W 269 ° 0 min 0,000 mm 0,0 UV-I 0 W/m² -3,1 °C 3,2 km/h (1 Bft)
15.11.2016 01:36 -2,3 °C -2,3 °C 94 % 1032,6 hPa 0,0 mm 1,3 km/h (1 Bft) W 269 ° 0 min 0,000 mm 0,0 UV-I 0 W/m² -3,1 °C 3,2 km/h (1 Bft)
15.11.2016 01:37 -2,3 °C -2,2 °C 94 % 1032,6 hPa 0,0 mm 1,5 km/h (1 Bft) W 269 ° 0 min 0,000 mm 0,0 UV-I 0 W/m² -3,1 °C 3,2 km/h (1 Bft)
15.11.2016 01:38 -2,2 °C -2,2 °C 94 % 1032,6 hPa 0,0 mm 1,5 km/h (1 Bft) W 269 ° 0 min 0,000 mm 0,0 UV-I 0 W/m² -3,0 °C 3,2 km/h (1 Bft)
15.11.2016 01:39 -2,3 °C -2,2 °C 94 % 1032,6 hPa 0,0 mm 1,2 km/h (1 Bft) W 269 ° 0 min 0,000 mm 0,0 UV-I 0 W/m² -3,1 °C 3,2 km/h (1 Bft)
15.11.2016 01:40 -2,3 °C -2,3 °C 94 % 1032,6 hPa 0,0 mm 0,9 km/h (0 Bft) W 269 ° 0 min 0,000 mm 0,0 UV-I 0 W/m² -3,1 °C 1,6 km/h (1 Bft)
15.11.2016 01:41 -2,3 °C -2,2 °C 94 % 1032,6 hPa 0,0 mm 0,8 km/h (0 Bft) W 269 ° 0 min 0,000 mm 0,0 UV-I 0 W/m² -3,1 °C 3,2 km/h (1 Bft)
15.11.2016 01:42 -2,3 °C -2,3 °C 94 % 1032,6 hPa 0,0 mm 3,4 km/h (1 Bft) W 273 ° 0 min 0,000 mm 0,0 UV-I 0 W/m² -3,1 °C 4,8 km/h (1 Bft)
15.11.2016 01:43 -2,3 °C -2,3 °C 94 % 1032,6 hPa 0,0 mm 2,5 km/h (1 Bft) W 273 ° 0 min 0,000 mm 0,0 UV-I 0 W/m² -3,1 °C 3,2 km/h (1 Bft)
15.11.2016 01:44 -2,3 °C -2,3 °C 94 % 1032,5 hPa 0,0 mm 1,2 km/h (1 Bft) W 273 ° 0 min 0,000 mm 0,0 UV-I 0 W/m² -3,1 °C 3,2 km/h (1 Bft)
15.11.2016 01:45 -2,3 °C -2,2 °C 94 % 1032,5 hPa 0,0 mm 1,5 km/h (1 Bft) W 273 ° 0 min 0,000 mm 0,0 UV-I 0 W/m² -3,1 °C 3,2 km/h (1 Bft)
15.11.2016 01:46 -2,3 °C -2,3 °C 94 % 1032,5 hPa 0,0 mm 3,6 km/h (1 Bft) W-NW 294 ° 0 min 0,000 mm 0,0 UV-I 0 W/m² -3,1 °C 4,8 km/h (1 Bft)
15.11.2016 01:47 -2,3 °C -2,3 °C 94 % 1032,5 hPa 0,0 mm 2,5 km/h (1 Bft) W-NW 285 ° 0 min 0,000 mm 0,0 UV-I 0 W/m² -3,1 °C 6,4 km/h (2 Bft)
15.11.2016 01:48 -2,2 °C -2,2 °C 94 % 1032,5 hPa 0,0 mm 1,5 km/h (1 Bft) W-NW 285 ° 0 min 0,000 mm 0,0 UV-I 0 W/m² -3,0 °C 3,2 km/h (1 Bft)
15.11.2016 01:49 -2,2 °C -2,2 °C 94 % 1032,4 hPa 0,0 mm 2,8 km/h (1 Bft) W 265 ° 0 min 0,000 mm 0,0 UV-I 0 W/m² -3,0 °C 4,8 km/h (1 Bft)
15.11.2016 01:50 -2,3 °C -2,2 °C 94 % 1032,4 hPa 0,0 mm 2,7 km/h (1 Bft) W 265 ° 0 min 0,000 mm 0,0 UV-I 0 W/m² -3,1 °C 4,8 km/h (1 Bft)
15.11.2016 01:51 -2,2 °C -2,2 °C 94 % 1032,5 hPa 0,0 mm 2,3 km/h (1 Bft) W 265 ° 0 min 0,000 mm 0,0 UV-I 0 W/m² -3,0 °C 4,8 km/h (1 Bft)
15.11.2016 01:52 -2,2 °C -2,2 °C 94 % 1032,5 hPa 0,0 mm 0,5 km/h (0 Bft) W 265 ° 0 min 0,000 mm 0,0 UV-I 0 W/m² -3,0 °C 1,6 km/h (1 Bft)
15.11.2016 01:53 -2,3 °C -2,2 °C 94 % 1032,5 hPa 0,0 mm 0,9 km/h (0 Bft) W 265 ° 0 min 0,000 mm 0,0 UV-I 0 W/m² -3,1 °C 1,6 km/h (1 Bft)
15.11.2016 01:54 -2,2 °C -2,2 °C 94 % 1032,5 hPa 0,0 mm 1,8 km/h (1 Bft) W 265 ° 0 min 0,000 mm 0,0 UV-I 0 W/m² -3,0 °C 3,2 km/h (1 Bft)
15.11.2016 01:55 -2,2 °C -2,2 °C 94 % 1032,5 hPa 0,0 mm 0,9 km/h (0 Bft) W 265 ° 0 min 0,000 mm 0,0 UV-I 0 W/m² -3,0 °C 1,6 km/h (1 Bft)
15.11.2016 01:56 -2,2 °C -2,2 °C 94 % 1032,5 hPa 0,0 mm 2,0 km/h (1 Bft) W 265 ° 0 min 0,000 mm 0,0 UV-I 0 W/m² -3,0 °C 3,2 km/h (1 Bft)
15.11.2016 01:57 -2,2 °C -2,2 °C 94 % 1032,5 hPa 0,0 mm 1,1 km/h (1 Bft) W 265 ° 0 min 0,000 mm 0,0 UV-I 0 W/m² -3,0 °C 1,6 km/h (1 Bft)
15.11.2016 01:58 -2,2 °C -2,2 °C 94 % 1032,5 hPa 0,0 mm 1,3 km/h (1 Bft) W 265 ° 0 min 0,000 mm 0,0 UV-I 0 W/m² -3,0 °C 1,6 km/h (1 Bft)
15.11.2016 01:59 -2,2 °C -2,2 °C 94 % 1032,5 hPa 0,0 mm 1,1 km/h (1 Bft) W 265 ° 0 min 0,000 mm 0,0 UV-I 0 W/m² -3,0 °C 1,6 km/h (1 Bft)
15.11.2016 02:00 -2,2 °C -2,2 °C 94 % 1032,5 hPa 0,0 mm 0,0 km/h (0 Bft) W 265 ° 0 min 0,000 mm 0,0 UV-I 0 W/m² -3,0 °C 0,0 km/h (0 Bft)
15.11.2016 02:01 -2,2 °C -2,2 °C 94 % 1032,5 hPa 0,0 mm 0,1 km/h (0 Bft) W 265 ° 0 min 0,000 mm 0,0 UV-I 0 W/m² -3,0 °C 1,6 km/h (1 Bft)
15.11.2016 02:02 -2,2 °C -2,2 °C 94 % 1032,4 hPa 0,0 mm 0,6 km/h (0 Bft) W 265 ° 0 min 0,000 mm 0,0 UV-I 0 W/m² -3,0 °C 1,6 km/h (1 Bft)
15.11.2016 02:03 -2,2 °C -2,2 °C 94 % 1032,4 hPa 0,0 mm 0,1 km/h (0 Bft) W 265 ° 0 min 0,000 mm 0,0 UV-I 0 W/m² -3,0 °C 1,6 km/h (1 Bft)
15.11.2016 02:04 -2,2 °C -2,2 °C 94 % 1032,4 hPa 0,0 mm 0,0 km/h (0 Bft) W 265 ° 0 min 0,000 mm 0,0 UV-I 0 W/m² -3,0 °C 0,0 km/h (0 Bft)
15.11.2016 02:05 -2,2 °C -2,2 °C 94 % 1032,4 hPa 0,0 mm 0,0 km/h (0 Bft) W 265 ° 0 min 0,000 mm 0,0 UV-I 0 W/m² -3,0 °C 0,0 km/h (0 Bft)
15.11.2016 02:06 -2,2 °C -2,2 °C 94 % 1032,4 hPa 0,0 mm 1,0 km/h (0 Bft) W 265 ° 0 min 0,000 mm 0,0 UV-I 0 W/m² -3,0 °C 1,6 km/h (1 Bft)
15.11.2016 02:07 -2,2 °C -2,2 °C 94 % 1032,4 hPa 0,0 mm 0,1 km/h (0 Bft) W 265 ° 0 min 0,000 mm 0,0 UV-I 0 W/m² -3,0 °C 1,6 km/h (1 Bft)
15.11.2016 02:08 -2,2 °C -2,2 °C 94 % 1032,4 hPa 0,0 mm 0,0 km/h (0 Bft) W 265 ° 0 min 0,000 mm 0,0 UV-I 0 W/m² -3,0 °C 0,0 km/h (0 Bft)
15.11.2016 02:09 -2,2 °C -2,2 °C 94 % 1032,4 hPa 0,0 mm 1,0 km/h (0 Bft) W 265 ° 0 min 0,000 mm 0,0 UV-I 0 W/m² -3,0 °C 1,6 km/h (1 Bft)
15.11.2016 02:10 -2,2 °C -2,2 °C 94 % 1032,4 hPa 0,0 mm 0,8 km/h (0 Bft) W 265 ° 0 min 0,000 mm 0,0 UV-I 0 W/m² -3,0 °C 1,6 km/h (1 Bft)
15.11.2016 02:11 -2,2 °C -2,2 °C 94 % 1032,3 hPa 0,0 mm 0,0 km/h (0 Bft) W 265 ° 0 min 0,000 mm 0,0 UV-I 0 W/m² -3,0 °C 0,0 km/h (0 Bft)
15.11.2016 02:12 -2,2 °C -2,2 °C 94 % 1032,3 hPa 0,0 mm 0,0 km/h (0 Bft) W 265 ° 0 min 0,000 mm 0,0 UV-I 0 W/m² -3,0 °C 0,0 km/h (0 Bft)
15.11.2016 02:13 -2,2 °C -2,2 °C 94 % 1032,4 hPa 0,0 mm 0,3 km/h (0 Bft) W 265 ° 0 min 0,000 mm 0,0 UV-I 0 W/m² -3,0 °C 1,6 km/h (1 Bft)
15.11.2016 02:14 -2,2 °C -2,2 °C 94 % 1032,4 hPa 0,0 mm 1,5 km/h (1 Bft) W 265 ° 0 min 0,000 mm 0,0 UV-I 0 W/m² -3,0 °C 3,2 km/h (1 Bft)
15.11.2016 02:15 -2,2 °C -2,2 °C 94 % 1032,4 hPa 0,0 mm 3,5 km/h (1 Bft) W-SW 240 ° 0 min 0,000 mm 0,0 UV-I 0 W/m² -3,0 °C 6,4 km/h (2 Bft)
15.11.2016 02:16 -2,2 °C -2,2 °C 94 % 1032,4 hPa 0,0 mm 4,0 km/h (1 Bft) W-SW 243 ° 0 min 0,000 mm 0,0 UV-I 0 W/m² -3,0 °C 6,4 km/h (2 Bft)
15.11.2016 02:17 -2,2 °C -2,2 °C 94 % 1032,4 hPa 0,0 mm 4,0 km/h (1 Bft) W-SW 238 ° 0 min 0,000 mm 0,0 UV-I 0 W/m² -3,0 °C 4,8 km/h (1 Bft)
15.11.2016 02:18 -2,2 °C -2,2 °C 95 % 1032,4 hPa 0,0 mm 1,5 km/h (1 Bft) W-SW 238 ° 0 min 0,000 mm 0,0 UV-I 0 W/m² -2,9 °C 3,2 km/h (1 Bft)
15.11.2016 02:19 -2,2 °C -2,2 °C 94 % 1032,3 hPa 0,0 mm 0,1 km/h (0 Bft) W-SW 238 ° 0 min 0,000 mm 0,0 UV-I 0 W/m² -3,0 °C 1,6 km/h (1 Bft)
15.11.2016 02:20 -2,2 °C -2,2 °C 94 % 1032,3 hPa 0,0 mm 0,0 km/h (0 Bft) W-SW 238 ° 0 min 0,000 mm 0,0 UV-I 0 W/m² -3,0 °C 0,0 km/h (0 Bft)
15.11.2016 02:21 -2,2 °C -2,2 °C 94 % 1032,3 hPa 0,0 mm 0,2 km/h (0 Bft) W-SW 238 ° 0 min 0,000 mm 0,0 UV-I 0 W/m² -3,0 °C 1,6 km/h (1 Bft)
15.11.2016 02:22 -2,2 °C -2,2 °C 94 % 1032,3 hPa 0,0 mm 0,0 km/h (0 Bft) W-SW 238 ° 0 min 0,000 mm 0,0 UV-I 0 W/m² -3,0 °C 0,0 km/h (0 Bft)
15.11.2016 02:23 -2,2 °C -2,2 °C 94 % 1032,3 hPa 0,0 mm 1,9 km/h (1 Bft) S-SW 213 ° 0 min 0,000 mm 0,0 UV-I 0 W/m² -3,0 °C 4,8 km/h (1 Bft)
15.11.2016 02:24 -2,2 °C -2,2 °C 94 % 1032,3 hPa 0,0 mm 3,4 km/h (1 Bft) SW 214 ° 0 min 0,000 mm 0,0 UV-I 0 W/m² -3,0 °C 6,4 km/h (2 Bft)
15.11.2016 02:25 -2,2 °C -2,2 °C 94 % 1032,3 hPa 0,0 mm 2,1 km/h (1 Bft) SW 214 ° 0 min 0,000 mm 0,0 UV-I 0 W/m² -3,0 °C 3,2 km/h (1 Bft)
15.11.2016 02:26 -2,2 °C -2,2 °C 95 % 1032,3 hPa 0,0 mm 1,0 km/h (0 Bft) SW 214 ° 0 min 0,000 mm 0,0 UV-I 0 W/m² -2,9 °C 3,2 km/h (1 Bft)
15.11.2016 02:27 -2,2 °C -2,2 °C 94 % 1032,3 hPa 0,0 mm 0,0 km/h (0 Bft) SW 214 ° 0 min 0,000 mm 0,0 UV-I 0 W/m² -3,0 °C 0,0 km/h (0 Bft)
15.11.2016 02:28 -2,2 °C -2,2 °C 94 % 1032,3 hPa 0,0 mm 1,9 km/h (1 Bft) SW 214 ° 0 min 0,000 mm 0,0 UV-I 0 W/m² -3,0 °C 3,2 km/h (1 Bft)
15.11.2016 02:29 -2,2 °C -2,2 °C 94 % 1032,4 hPa 0,0 mm 3,2 km/h (1 Bft) S-SW 213 ° 0 min 0,000 mm 0,0 UV-I 0 W/m² -3,0 °C 4,8 km/h (1 Bft)
15.11.2016 02:30 -2,2 °C -2,2 °C 94 % 1032,3 hPa 0,0 mm 3,0 km/h (1 Bft) S-SW 210 ° 0 min 0,000 mm 0,0 UV-I 0 W/m² -3,0 °C 4,8 km/h (1 Bft)
15.11.2016 02:31 -2,2 °C -2,2 °C 94 % 1032,3 hPa 0,0 mm 2,0 km/h (1 Bft) S-SW 211 ° 0 min 0,000 mm 0,0 UV-I 0 W/m² -3,0 °C 4,8 km/h (1 Bft)
15.11.2016 02:32 -2,2 °C -2,2 °C 94 % 1032,3 hPa 0,0 mm 2,2 km/h (1 Bft) S-SW 211 ° 0 min 0,000 mm 0,0 UV-I 0 W/m² -3,0 °C 6,4 km/h (2 Bft)
15.11.2016 02:33 -2,2 °C -2,2 °C 94 % 1032,3 hPa 0,0 mm 3,5 km/h (1 Bft) S-SW 211 ° 0 min 0,000 mm 0,0 UV-I 0 W/m² -3,0 °C 4,8 km/h (1 Bft)
15.11.2016 02:34 -2,2 °C -2,2 °C 94 % 1032,3 hPa 0,0 mm 2,7 km/h (1 Bft) S-SW 211 ° 0 min 0,000 mm 0,0 UV-I 0 W/m² -3,0 °C 4,8 km/h (1 Bft)
15.11.2016 02:35 -2,2 °C -2,2 °C 94 % 1032,3 hPa 0,0 mm 3,8 km/h (1 Bft) S-SW 211 ° 0 min 0,000 mm 0,0 UV-I 0 W/m² -3,0 °C 4,8 km/h (1 Bft)
15.11.2016 02:36 -2,2 °C -2,2 °C 94 % 1032,3 hPa 0,0 mm 2,6 km/h (1 Bft) S-SW 211 ° 0 min 0,000 mm 0,0 UV-I 0 W/m² -3,0 °C 4,8 km/h (1 Bft)
15.11.2016 02:37 -2,2 °C -2,2 °C 94 % 1032,3 hPa 0,0 mm 2,2 km/h (1 Bft) S-SW 211 ° 0 min 0,000 mm 0,0 UV-I 0 W/m² -3,0 °C 3,2 km/h (1 Bft)
15.11.2016 02:38 -2,2 °C -2,2 °C 94 % 1032,3 hPa 0,0 mm 2,9 km/h (1 Bft) SW 230 ° 0 min 0,000 mm 0,0 UV-I 0 W/m² -3,0 °C 4,8 km/h (1 Bft)
15.11.2016 02:39 -2,3 °C -2,2 °C 94 % 1032,2 hPa 0,0 mm 2,6 km/h (1 Bft) SW 221 ° 0 min 0,000 mm 0,0 UV-I 0 W/m² -3,1 °C 4,8 km/h (1 Bft)
15.11.2016 02:40 -2,3 °C -2,3 °C 94 % 1032,3 hPa 0,0 mm 3,8 km/h (1 Bft) S-SW 202 ° 0 min 0,000 mm 0,0 UV-I 0 W/m² -3,1 °C 4,8 km/h (1 Bft)
15.11.2016 02:41 -2,3 °C -2,3 °C 94 % 1032,3 hPa 0,0 mm 2,2 km/h (1 Bft) S-SW 202 ° 0 min 0,000 mm 0,0 UV-I 0 W/m² -3,1 °C 4,8 km/h (1 Bft)
15.11.2016 02:42 -2,3 °C -2,3 °C 94 % 1032,3 hPa 0,0 mm 1,1 km/h (1 Bft) S-SW 202 ° 0 min 0,000 mm 0,0 UV-I 0 W/m² -3,1 °C 1,6 km/h (1 Bft)
15.11.2016 02:43 -2,3 °C -2,3 °C 94 % 1032,3 hPa 0,0 mm 2,0 km/h (1 Bft) S-SW 202 ° 0 min 0,000 mm 0,0 UV-I 0 W/m² -3,1 °C 3,2 km/h (1 Bft)
15.11.2016 02:44 -2,3 °C -2,3 °C 94 % 1032,3 hPa 0,0 mm 1,3 km/h (1 Bft) S-SW 202 ° 0 min 0,000 mm 0,0 UV-I 0 W/m² -3,1 °C 3,2 km/h (1 Bft)
15.11.2016 02:45 -2,3 °C -2,3 °C 94 % 1032,3 hPa 0,0 mm 1,2 km/h (1 Bft) S-SW 202 ° 0 min 0,000 mm 0,0 UV-I 0 W/m² -3,1 °C 3,2 km/h (1 Bft)
15.11.2016 02:46 -2,3 °C -2,3 °C 94 % 1032,3 hPa 0,0 mm 0,8 km/h (0 Bft) S-SW 202 ° 0 min 0,000 mm 0,0 UV-I 0 W/m² -3,1 °C 1,6 km/h (1 Bft)
15.11.2016 02:47 -2,3 °C -2,3 °C 94 % 1032,3 hPa 0,0 mm 0,4 km/h (0 Bft) S-SW 202 ° 0 min 0,000 mm 0,0 UV-I 0 W/m² -3,1 °C 1,6 km/h (1 Bft)
15.11.2016 02:48 -2,3 °C -2,3 °C 94 % 1032,2 hPa 0,0 mm 0,0 km/h (0 Bft) S-SW 202 ° 0 min 0,000 mm 0,0 UV-I 0 W/m² -3,1 °C 0,0 km/h (0 Bft)
15.11.2016 02:49 -2,3 °C -2,3 °C 94 % 1032,2 hPa 0,0 mm 0,1 km/h (0 Bft) S-SW 202 ° 0 min 0,000 mm 0,0 UV-I 0 W/m² -3,1 °C 1,6 km/h (1 Bft)
15.11.2016 02:50 -2,3 °C -2,3 °C 94 % 1032,2 hPa 0,0 mm 1,9 km/h (1 Bft) S 190 ° 0 min 0,000 mm 0,0 UV-I 0 W/m² -3,1 °C 3,2 km/h (1 Bft)
15.11.2016 02:51 -2,4 °C -2,3 °C 94 % 1032,2 hPa 0,0 mm 0,9 km/h (0 Bft) S 190 ° 0 min 0,000 mm 0,0 UV-I 0 W/m² -3,2 °C 3,2 km/h (1 Bft)
15.11.2016 02:52 -2,4 °C -2,4 °C 94 % 1032,2 hPa 0,0 mm 0,9 km/h (0 Bft) S 190 ° 0 min 0,000 mm 0,0 UV-I 0 W/m² -3,2 °C 1,6 km/h (1 Bft)
15.11.2016 02:53 -2,4 °C -2,4 °C 94 % 1032,2 hPa 0,0 mm 0,1 km/h (0 Bft) S 190 ° 0 min 0,000 mm 0,0 UV-I 0 W/m² -3,2 °C 1,6 km/h (1 Bft)
15.11.2016 02:54 -2,4 °C -2,4 °C 94 % 1032,2 hPa 0,0 mm 0,7 km/h (0 Bft) S 190 ° 0 min 0,000 mm 0,0 UV-I 0 W/m² -3,2 °C 1,6 km/h (1 Bft)
15.11.2016 02:55 -2,4 °C -2,4 °C 94 % 1032,3 hPa 0,0 mm 1,1 km/h (1 Bft) S 190 ° 0 min 0,000 mm 0,0 UV-I 0 W/m² -3,2 °C 1,6 km/h (1 Bft)
15.11.2016 02:56 -2,4 °C -2,4 °C 94 % 1032,3 hPa 0,0 mm 1,4 km/h (1 Bft) S 190 ° 0 min 0,000 mm 0,0 UV-I 0 W/m² -3,2 °C 1,6 km/h (1 Bft)
15.11.2016 02:57 -2,4 °C -2,4 °C 94 % 1032,3 hPa 0,0 mm 0,6 km/h (0 Bft) S 190 ° 0 min 0,000 mm 0,0 UV-I 0 W/m² -3,2 °C 1,6 km/h (1 Bft)
15.11.2016 02:58 -2,4 °C -2,4 °C 94 % 1032,3 hPa 0,0 mm 0,8 km/h (0 Bft) S 190 ° 0 min 0,000 mm 0,0 UV-I 0 W/m² -3,2 °C 1,6 km/h (1 Bft)
15.11.2016 02:59 -2,4 °C -2,4 °C 94 % 1032,3 hPa 0,0 mm 1,1 km/h (1 Bft) S 190 ° 0 min 0,000 mm 0,0 UV-I 0 W/m² -3,2 °C 1,6 km/h (1 Bft)
15.11.2016 03:00 -2,4 °C -2,4 °C 94 % 1032,3 hPa 0,0 mm 1,4 km/h (1 Bft) S 190 ° 0 min 0,000 mm 0,0 UV-I 0 W/m² -3,2 °C 3,2 km/h (1 Bft)
15.11.2016 03:01 -2,4 °C -2,4 °C 94 % 1032,2 hPa 0,0 mm 0,5 km/h (0 Bft) S 190 ° 0 min 0,000 mm 0,0 UV-I 0 W/m² -3,2 °C 1,6 km/h (1 Bft)
15.11.2016 03:02 -2,4 °C -2,4 °C 94 % 1032,2 hPa 0,0 mm 0,3 km/h (0 Bft) S 190 ° 0 min 0,000 mm 0,0 UV-I 0 W/m² -3,2 °C 1,6 km/h (1 Bft)
15.11.2016 03:03 -2,4 °C -2,4 °C 94 % 1032,2 hPa 0,0 mm 1,9 km/h (1 Bft) S 190 ° 0 min 0,000 mm 0,0 UV-I 0 W/m² -3,2 °C 3,2 km/h (1 Bft)
15.11.2016 03:04 -2,4 °C -2,4 °C 94 % 1032,2 hPa 0,0 mm 1,8 km/h (1 Bft) S-SW 213 ° 0 min 0,000 mm 0,0 UV-I 0 W/m² -3,2 °C 3,2 km/h (1 Bft)
15.11.2016 03:05 -2,4 °C -2,4 °C 94 % 1032,2 hPa 0,0 mm 2,4 km/h (1 Bft) S-SW 213 ° 0 min 0,000 mm 0,0 UV-I 0 W/m² -3,2 °C 3,2 km/h (1 Bft)
15.11.2016 03:06 -2,4 °C -2,4 °C 94 % 1032,2 hPa 0,0 mm 1,9 km/h (1 Bft) S-SW 213 ° 0 min 0,000 mm 0,0 UV-I 0 W/m² -3,2 °C 3,2 km/h (1 Bft)
15.11.2016 03:07 -2,4 °C -2,4 °C 94 % 1032,1 hPa 0,0 mm 0,8 km/h (0 Bft) S-SW 213 ° 0 min 0,000 mm 0,0 UV-I 0 W/m² -3,2 °C 3,2 km/h (1 Bft)
15.11.2016 03:08 -2,4 °C -2,4 °C 94 % 1032,0 hPa 0,0 mm 4,3 km/h (1 Bft) O 89 ° 0 min 0,000 mm 0,0 UV-I 0 W/m² -3,2 °C 8,0 km/h (2 Bft)
15.11.2016 03:09 -2,4 °C -2,4 °C 94 % 1032,1 hPa 0,0 mm 5,4 km/h (1 Bft) O 87 ° 0 min 0,000 mm 0,0 UV-I 0 W/m² -3,2 °C 9,7 km/h (2 Bft)
15.11.2016 03:10 -2,4 °C -2,4 °C 94 % 1032,1 hPa 0,0 mm 4,3 km/h (1 Bft) O 81 ° 0 min 0,000 mm 0,0 UV-I 0 W/m² -3,2 °C 8,0 km/h (2 Bft)
15.11.2016 03:11 -2,4 °C -2,4 °C 94 % 1032,2 hPa 0,0 mm 3,4 km/h (1 Bft) O-NO 74 ° 0 min 0,000 mm 0,0 UV-I 0 W/m² -3,2 °C 4,8 km/h (1 Bft)
15.11.2016 03:12 -2,5 °C -2,4 °C 94 % 1032,2 hPa 0,0 mm 1,6 km/h (1 Bft) O-NO 74 ° 0 min 0,000 mm 0,0 UV-I 0 W/m² -3,3 °C 3,2 km/h (1 Bft)
15.11.2016 03:13 -2,5 °C -2,4 °C 94 % 1032,2 hPa 0,0 mm 0,7 km/h (0 Bft) O-NO 74 ° 0 min 0,000 mm 0,0 UV-I 0 W/m² -3,3 °C 1,6 km/h (1 Bft)
15.11.2016 03:14 -2,5 °C -2,5 °C 94 % 1032,2 hPa 0,0 mm 0,7 km/h (0 Bft) O-NO 74 ° 0 min 0,000 mm 0,0 UV-I 0 W/m² -3,3 °C 1,6 km/h (1 Bft)
15.11.2016 03:15 -2,5 °C -2,5 °C 94 % 1032,2 hPa 0,0 mm 1,4 km/h (1 Bft) O-NO 74 ° 0 min 0,000 mm 0,0 UV-I 0 W/m² -3,3 °C 3,2 km/h (1 Bft)
15.11.2016 03:16 -2,6 °C -2,5 °C 94 % 1032,2 hPa 0,0 mm 1,0 km/h (0 Bft) O-NO 74 ° 0 min 0,000 mm 0,0 UV-I 0 W/m² -3,4 °C 1,6 km/h (1 Bft)
15.11.2016 03:17 -2,5 °C -2,5 °C 94 % 1032,1 hPa 0,0 mm 0,1 km/h (0 Bft) O-NO 74 ° 0 min 0,000 mm 0,0 UV-I 0 W/m² -3,3 °C 1,6 km/h (1 Bft)
15.11.2016 03:18 -2,5 °C -2,5 °C 94 % 1032,1 hPa 0,0 mm 1,2 km/h (1 Bft) N-NO 24 ° 0 min 0,000 mm 0,0 UV-I 0 W/m² -3,3 °C 3,2 km/h (1 Bft)
15.11.2016 03:19 -2,6 °C -2,5 °C 94 % 1032,0 hPa 0,0 mm 0,3 km/h (0 Bft) N-NO 24 ° 0 min 0,000 mm 0,0 UV-I 0 W/m² -3,4 °C 1,6 km/h (1 Bft)
15.11.2016 03:20 -2,6 °C -2,5 °C 94 % 1032,0 hPa 0,0 mm 0,0 km/h (0 Bft) N-NO 24 ° 0 min 0,000 mm 0,0 UV-I 0 W/m² -3,4 °C 0,0 km/h (0 Bft)
15.11.2016 03:21 -2,6 °C -2,5 °C 94 % 1032,0 hPa 0,0 mm 0,2 km/h (0 Bft) N-NO 24 ° 0 min 0,000 mm 0,0 UV-I 0 W/m² -3,4 °C 1,6 km/h (1 Bft)
15.11.2016 03:22 -2,5 °C -2,5 °C 94 % 1032,1 hPa 0,0 mm 1,1 km/h (1 Bft) N-NO 24 ° 0 min 0,000 mm 0,0 UV-I 0 W/m² -3,3 °C 1,6 km/h (1 Bft)
15.11.2016 03:23 -2,6 °C -2,5 °C 94 % 1032,1 hPa 0,0 mm 1,5 km/h (1 Bft) N-NO 24 ° 0 min 0,000 mm 0,0 UV-I 0 W/m² -3,4 °C 3,2 km/h (1 Bft)
15.11.2016 03:24 -2,6 °C -2,6 °C 94 % 1032,1 hPa 0,0 mm 0,9 km/h (0 Bft) N-NO 24 ° 0 min 0,000 mm 0,0 UV-I 0 W/m² -3,4 °C 1,6 km/h (1 Bft)
15.11.2016 03:25 -2,6 °C -2,6 °C 94 % 1032,1 hPa 0,0 mm 0,4 km/h (0 Bft) N-NO 24 ° 0 min 0,000 mm 0,0 UV-I 0 W/m² -3,4 °C 1,6 km/h (1 Bft)
15.11.2016 03:26 -2,6 °C -2,6 °C 94 % 1032,1 hPa 0,0 mm 1,6 km/h (1 Bft) N-NO 24 ° 0 min 0,000 mm 0,0 UV-I 0 W/m² -3,4 °C 3,2 km/h (1 Bft)
15.11.2016 03:27 -2,6 °C -2,6 °C 94 % 1032,1 hPa 0,0 mm 0,6 km/h (0 Bft) N-NO 24 ° 0 min 0,000 mm 0,0 UV-I 0 W/m² -3,4 °C 1,6 km/h (1 Bft)
15.11.2016 03:28 -2,6 °C -2,6 °C 94 % 1032,2 hPa 0,0 mm 0,5 km/h (0 Bft) N-NO 24 ° 0 min 0,000 mm 0,0 UV-I 0 W/m² -3,4 °C 1,6 km/h (1 Bft)
15.11.2016 03:29 -2,6 °C -2,6 °C 94 % 1032,2 hPa 0,0 mm 1,6 km/h (1 Bft) N-NO 24 ° 0 min 0,000 mm 0,0 UV-I 0 W/m² -3,4 °C 1,6 km/h (1 Bft)
15.11.2016 03:30 -2,6 °C -2,6 °C 94 % 1032,1 hPa 0,0 mm 0,6 km/h (0 Bft) N-NO 24 ° 0 min 0,000 mm 0,0 UV-I 0 W/m² -3,4 °C 1,6 km/h (1 Bft)
15.11.2016 03:31 -2,6 °C -2,6 °C 94 % 1032,1 hPa 0,0 mm 0,6 km/h (0 Bft) N-NO 24 ° 0 min 0,000 mm 0,0 UV-I 0 W/m² -3,4 °C 1,6 km/h (1 Bft)
15.11.2016 03:32 -2,6 °C -2,6 °C 94 % 1032,1 hPa 0,0 mm 0,1 km/h (0 Bft) N-NO 24 ° 0 min 0,000 mm 0,0 UV-I 0 W/m² -3,4 °C 1,6 km/h (1 Bft)
15.11.2016 03:33 -2,6 °C -2,6 °C 94 % 1032,2 hPa 0,0 mm 0,0 km/h (0 Bft) N-NO 24 ° 0 min 0,000 mm 0,0 UV-I 0 W/m² -3,4 °C 0,0 km/h (0 Bft)
15.11.2016 03:34 -2,6 °C -2,6 °C 94 % 1032,1 hPa 0,0 mm 0,0 km/h (0 Bft) N-NO 24 ° 0 min 0,000 mm 0,0 UV-I 0 W/m² -3,4 °C 0,0 km/h (0 Bft)
15.11.2016 03:35 -2,6 °C -2,6 °C 94 % 1032,1 hPa 0,0 mm 0,0 km/h (0 Bft) N-NO 24 ° 0 min 0,000 mm 0,0 UV-I 0 W/m² -3,4 °C 0,0 km/h (0 Bft)
15.11.2016 03:36 -2,6 °C -2,6 °C 94 % 1032,1 hPa 0,0 mm 0,3 km/h (0 Bft) N-NO 24 ° 0 min 0,000 mm 0,0 UV-I 0 W/m² -3,4 °C 1,6 km/h (1 Bft)
15.11.2016 03:37 -2,6 °C -2,6 °C 94 % 1032,1 hPa 0,0 mm 0,0 km/h (0 Bft) N-NO 24 ° 0 min 0,000 mm 0,0 UV-I 0 W/m² -3,4 °C 0,0 km/h (0 Bft)
15.11.2016 03:38 -2,6 °C -2,6 °C 94 % 1032,1 hPa 0,0 mm 0,0 km/h (0 Bft) N-NO 24 ° 0 min 0,000 mm 0,0 UV-I 0 W/m² -3,4 °C 0,0 km/h (0 Bft)
15.11.2016 03:39 -2,6 °C -2,6 °C 94 % 1032,1 hPa 0,0 mm 1,2 km/h (1 Bft) W 272 ° 0 min 0,000 mm 0,0 UV-I 0 W/m² -3,4 °C 4,8 km/h (1 Bft)
15.11.2016 03:40 -2,6 °C -2,6 °C 94 % 1032,2 hPa 0,0 mm 2,6 km/h (1 Bft) W 272 ° 0 min 0,000 mm 0,0 UV-I 0 W/m² -3,4 °C 3,2 km/h (1 Bft)
15.11.2016 03:41 -2,6 °C -2,6 °C 94 % 1032,2 hPa 0,0 mm 3,1 km/h (1 Bft) W 272 ° 0 min 0,000 mm 0,0 UV-I 0 W/m² -3,4 °C 3,2 km/h (1 Bft)
15.11.2016 03:42 -2,6 °C -2,6 °C 94 % 1032,3 hPa 0,0 mm 1,4 km/h (1 Bft) W 272 ° 0 min 0,000 mm 0,0 UV-I 0 W/m² -3,4 °C 3,2 km/h (1 Bft)
15.11.2016 03:43 -2,6 °C -2,6 °C 94 % 1032,3 hPa 0,0 mm 0,9 km/h (0 Bft) W 272 ° 0 min 0,000 mm 0,0 UV-I 0 W/m² -3,4 °C 3,2 km/h (1 Bft)
15.11.2016 03:44 -2,6 °C -2,6 °C 94 % 1032,3 hPa 0,0 mm 1,7 km/h (1 Bft) W 272 ° 0 min 0,000 mm 0,0 UV-I 0 W/m² -3,4 °C 3,2 km/h (1 Bft)
15.11.2016 03:45 -2,6 °C -2,6 °C 94 % 1032,3 hPa 0,0 mm 1,4 km/h (1 Bft) W 268 ° 0 min 0,000 mm 0,0 UV-I 0 W/m² -3,4 °C 3,2 km/h (1 Bft)
15.11.2016 03:46 -2,6 °C -2,6 °C 94 % 1032,2 hPa 0,0 mm 2,0 km/h (1 Bft) W-SW 237 ° 0 min 0,000 mm 0,0 UV-I 0 W/m² -3,4 °C 4,8 km/h (1 Bft)
15.11.2016 03:47 -2,6 °C -2,6 °C 94 % 1032,3 hPa 0,0 mm 2,0 km/h (1 Bft) W-SW 237 ° 0 min 0,000 mm 0,0 UV-I 0 W/m² -3,4 °C 4,8 km/h (1 Bft)
15.11.2016 03:48 -2,6 °C -2,6 °C 94 % 1032,2 hPa 0,0 mm 0,7 km/h (0 Bft) W-SW 237 ° 0 min 0,000 mm 0,0 UV-I 0 W/m² -3,4 °C 1,6 km/h (1 Bft)
15.11.2016 03:49 -2,6 °C -2,6 °C 94 % 1032,2 hPa 0,0 mm 2,5 km/h (1 Bft) W-SW 237 ° 0 min 0,000 mm 0,0 UV-I 0 W/m² -3,4 °C 3,2 km/h (1 Bft)
15.11.2016 03:50 -2,6 °C -2,6 °C 94 % 1032,2 hPa 0,0 mm 2,0 km/h (1 Bft) W-SW 237 ° 0 min 0,000 mm 0,0 UV-I 0 W/m² -3,4 °C 3,2 km/h (1 Bft)
15.11.2016 03:51 -2,6 °C -2,6 °C 94 % 1032,2 hPa 0,0 mm 2,2 km/h (1 Bft) W-SW 237 ° 0 min 0,000 mm 0,0 UV-I 0 W/m² -3,4 °C 3,2 km/h (1 Bft)
15.11.2016 03:52 -2,7 °C -2,6 °C 94 % 1032,2 hPa 0,0 mm 1,4 km/h (1 Bft) W-SW 237 ° 0 min 0,000 mm 0,0 UV-I 0 W/m² -3,5 °C 3,2 km/h (1 Bft)
15.11.2016 03:53 -2,7 °C -2,6 °C 94 % 1032,2 hPa 0,0 mm 1,6 km/h (1 Bft) W-SW 237 ° 0 min 0,000 mm 0,0 UV-I 0 W/m² -3,5 °C 3,2 km/h (1 Bft)
15.11.2016 03:54 -2,7 °C -2,7 °C 94 % 1032,2 hPa 0,0 mm 0,8 km/h (0 Bft) W-SW 237 ° 0 min 0,000 mm 0,0 UV-I 0 W/m² -3,5 °C 1,6 km/h (1 Bft)
15.11.2016 03:55 -2,7 °C -2,7 °C 94 % 1032,2 hPa 0,0 mm 0,0 km/h (0 Bft) W-SW 237 ° 0 min 0,000 mm 0,0 UV-I 0 W/m² -3,5 °C 0,0 km/h (0 Bft)
15.11.2016 03:56 -2,7 °C -2,6 °C 94 % 1032,2 hPa 0,0 mm 0,0 km/h (0 Bft) W-SW 237 ° 0 min 0,000 mm 0,0 UV-I 0 W/m² -3,5 °C 0,0 km/h (0 Bft)
15.11.2016 03:57 -2,7 °C -2,7 °C 94 % 1032,2 hPa 0,0 mm 0,1 km/h (0 Bft) W-SW 237 ° 0 min 0,000 mm 0,0 UV-I 0 W/m² -3,5 °C 1,6 km/h (1 Bft)
15.11.2016 03:58 -2,7 °C -2,7 °C 94 % 1032,2 hPa 0,0 mm 0,1 km/h (0 Bft) W-SW 237 ° 0 min 0,000 mm 0,0 UV-I 0 W/m² -3,5 °C 1,6 km/h (1 Bft)
15.11.2016 03:59 -2,7 °C -2,7 °C 94 % 1032,2 hPa 0,0 mm 0,3 km/h (0 Bft) W-SW 237 ° 0 min 0,000 mm 0,0 UV-I 0 W/m² -3,5 °C 1,6 km/h (1 Bft)
15.11.2016 04:00 -2,7 °C -2,7 °C 94 % 1032,2 hPa 0,0 mm 0,3 km/h (0 Bft) W-SW 237 ° 0 min 0,000 mm 0,0 UV-I 0 W/m² -3,5 °C 1,6 km/h (1 Bft)
15.11.2016 04:01 -2,7 °C -2,7 °C 94 % 1032,3 hPa 0,0 mm 0,3 km/h (0 Bft) W-SW 237 ° 0 min 0,000 mm 0,0 UV-I 0 W/m² -3,5 °C 3,2 km/h (1 Bft)
15.11.2016 04:02 -2,7 °C -2,7 °C 94 % 1032,3 hPa 0,0 mm 1,7 km/h (1 Bft) W-SW 237 ° 0 min 0,000 mm 0,0 UV-I 0 W/m² -3,5 °C 3,2 km/h (1 Bft)
15.11.2016 04:03 -2,7 °C -2,7 °C 94 % 1032,2 hPa 0,0 mm 1,0 km/h (0 Bft) W-SW 237 ° 0 min 0,000 mm 0,0 UV-I 0 W/m² -3,5 °C 1,6 km/h (1 Bft)
15.11.2016 04:04 -2,7 °C -2,7 °C 94 % 1032,3 hPa 0,0 mm 0,3 km/h (0 Bft) W-SW 237 ° 0 min 0,000 mm 0,0 UV-I 0 W/m² -3,5 °C 1,6 km/h (1 Bft)
15.11.2016 04:05 -2,7 °C -2,6 °C 94 % 1032,3 hPa 0,0 mm 0,3 km/h (0 Bft) W-SW 237 ° 0 min 0,000 mm 0,0 UV-I 0 W/m² -3,5 °C 1,6 km/h (1 Bft)
15.11.2016 04:06 -2,7 °C -2,7 °C 94 % 1032,2 hPa 0,0 mm 0,8 km/h (0 Bft) W-SW 237 ° 0 min 0,000 mm 0,0 UV-I 0 W/m² -3,5 °C 1,6 km/h (1 Bft)
15.11.2016 04:07 -2,7 °C -2,7 °C 94 % 1032,2 hPa 0,0 mm 0,7 km/h (0 Bft) W-SW 237 ° 0 min 0,000 mm 0,0 UV-I 0 W/m² -3,5 °C 1,6 km/h (1 Bft)
15.11.2016 04:08 -2,7 °C -2,7 °C 94 % 1032,2 hPa 0,0 mm 0,0 km/h (0 Bft) W-SW 237 ° 0 min 0,000 mm 0,0 UV-I 0 W/m² -3,5 °C 0,0 km/h (0 Bft)
15.11.2016 04:09 -2,7 °C -2,7 °C 94 % 1032,2 hPa 0,0 mm 0,0 km/h (0 Bft) W-SW 237 ° 0 min 0,000 mm 0,0 UV-I 0 W/m² -3,5 °C 0,0 km/h (0 Bft)
15.11.2016 04:10 -2,7 °C -2,7 °C 94 % 1032,1 hPa 0,0 mm 0,0 km/h (0 Bft) W-SW 237 ° 0 min 0,000 mm 0,0 UV-I 0 W/m² -3,5 °C 0,0 km/h (0 Bft)
15.11.2016 04:11 -2,7 °C -2,7 °C 94 % 1032,2 hPa 0,0 mm 0,0 km/h (0 Bft) W-SW 237 ° 0 min 0,000 mm 0,0 UV-I 0 W/m² -3,5 °C 0,0 km/h (0 Bft)
15.11.2016 04:12 -2,7 °C -2,7 °C 94 % 1032,2 hPa 0,0 mm 0,7 km/h (0 Bft) W-SW 237 ° 0 min 0,000 mm 0,0 UV-I 0 W/m² -3,5 °C 1,6 km/h (1 Bft)
15.11.2016 04:13 -2,7 °C -2,7 °C 94 % 1032,2 hPa 0,0 mm 2,1 km/h (1 Bft) W-SW 237 ° 0 min 0,000 mm 0,0 UV-I 0 W/m² -3,5 °C 3,2 km/h (1 Bft)
15.11.2016 04:14 -2,7 °C -2,7 °C 94 % 1032,2 hPa 0,0 mm 3,8 km/h (1 Bft) SW 217 ° 0 min 0,000 mm 0,0 UV-I 0 W/m² -3,5 °C 6,4 km/h (2 Bft)
15.11.2016 04:15 -2,7 °C -2,7 °C 94 % 1032,1 hPa 0,0 mm 2,9 km/h (1 Bft) SW 215 ° 0 min 0,000 mm 0,0 UV-I 0 W/m² -3,5 °C 4,8 km/h (1 Bft)
15.11.2016 04:16 -2,7 °C -2,7 °C 94 % 1032,1 hPa 0,0 mm 2,3 km/h (1 Bft) SW 215 ° 0 min 0,000 mm 0,0 UV-I 0 W/m² -3,5 °C 4,8 km/h (1 Bft)
15.11.2016 04:17 -2,7 °C -2,7 °C 94 % 1032,1 hPa 0,0 mm 2,7 km/h (1 Bft) SW 215 ° 0 min 0,000 mm 0,0 UV-I 0 W/m² -3,5 °C 4,8 km/h (1 Bft)
15.11.2016 04:18 -2,7 °C -2,7 °C 94 % 1032,1 hPa 0,0 mm 2,2 km/h (1 Bft) SW 215 ° 0 min 0,000 mm 0,0 UV-I 0 W/m² -3,5 °C 3,2 km/h (1 Bft)
15.11.2016 04:19 -2,7 °C -2,7 °C 94 % 1032,1 hPa 0,0 mm 2,4 km/h (1 Bft) SW 228 ° 0 min 0,000 mm 0,0 UV-I 0 W/m² -3,5 °C 4,8 km/h (1 Bft)
15.11.2016 04:20 -2,7 °C -2,7 °C 94 % 1032,2 hPa 0,0 mm 1,9 km/h (1 Bft) SW 228 ° 0 min 0,000 mm 0,0 UV-I 0 W/m² -3,5 °C 4,8 km/h (1 Bft)
15.11.2016 04:21 -2,7 °C -2,7 °C 94 % 1032,2 hPa 0,0 mm 0,2 km/h (0 Bft) SW 228 ° 0 min 0,000 mm 0,0 UV-I 0 W/m² -3,5 °C 1,6 km/h (1 Bft)
15.11.2016 04:22 -2,7 °C -2,7 °C 94 % 1032,2 hPa 0,0 mm 0,0 km/h (0 Bft) SW 228 ° 0 min 0,000 mm 0,0 UV-I 0 W/m² -3,5 °C 0,0 km/h (0 Bft)
15.11.2016 04:23 -2,7 °C -2,7 °C 94 % 1032,2 hPa 0,0 mm 0,3 km/h (0 Bft) SW 228 ° 0 min 0,000 mm 0,0 UV-I 0 W/m² -3,5 °C 1,6 km/h (1 Bft)
15.11.2016 04:24 -2,7 °C -2,7 °C 94 % 1032,3 hPa 0,0 mm 1,3 km/h (1 Bft) SO 143 ° 0 min 0,000 mm 0,0 UV-I 0 W/m² -3,5 °C 4,8 km/h (1 Bft)
15.11.2016 04:25 -2,7 °C -2,7 °C 94 % 1032,2 hPa 0,0 mm 2,3 km/h (1 Bft) SO 138 ° 0 min 0,000 mm 0,0 UV-I 0 W/m² -3,5 °C 3,2 km/h (1 Bft)
15.11.2016 04:26 -2,7 °C -2,7 °C 94 % 1032,2 hPa 0,0 mm 2,3 km/h (1 Bft) SO 138 ° 0 min 0,000 mm 0,0 UV-I 0 W/m² -3,5 °C 3,2 km/h (1 Bft)
15.11.2016 04:27 -2,7 °C -2,7 °C 94 % 1032,2 hPa 0,0 mm 3,3 km/h (1 Bft) SO 131 ° 0 min 0,000 mm 0,0 UV-I 0 W/m² -3,5 °C 4,8 km/h (1 Bft)
15.11.2016 04:28 -2,7 °C -2,7 °C 94 % 1032,3 hPa 0,0 mm 1,8 km/h (1 Bft) SO 128 ° 0 min 0,000 mm 0,0 UV-I 0 W/m² -3,5 °C 3,2 km/h (1 Bft)
15.11.2016 04:29 -2,7 °C -2,7 °C 94 % 1032,3 hPa 0,0 mm 1,1 km/h (1 Bft) SO 128 ° 0 min 0,000 mm 0,0 UV-I 0 W/m² -3,5 °C 3,2 km/h (1 Bft)
15.11.2016 04:30 -2,7 °C -2,7 °C 94 % 1032,3 hPa 0,0 mm 1,7 km/h (1 Bft) SO 128 ° 0 min 0,000 mm 0,0 UV-I 0 W/m² -3,5 °C 3,2 km/h (1 Bft)
15.11.2016 04:31 -2,7 °C -2,7 °C 94 % 1032,2 hPa 0,0 mm 1,2 km/h (1 Bft) SO 128 ° 0 min 0,000 mm 0,0 UV-I 0 W/m² -3,5 °C 3,2 km/h (1 Bft)
15.11.2016 04:32 -2,7 °C -2,7 °C 94 % 1032,3 hPa 0,0 mm 3,5 km/h (1 Bft) O 94 ° 0 min 0,000 mm 0,0 UV-I 0 W/m² -3,5 °C 6,4 km/h (2 Bft)
15.11.2016 04:33 -2,7 °C -2,7 °C 94 % 1032,3 hPa 0,0 mm 3,6 km/h (1 Bft) O 94 ° 0 min 0,000 mm 0,0 UV-I 0 W/m² -3,5 °C 6,4 km/h (2 Bft)
15.11.2016 04:34 -2,7 °C -2,7 °C 94 % 1032,3 hPa 0,0 mm 3,4 km/h (1 Bft) O 94 ° 0 min 0,000 mm 0,0 UV-I 0 W/m² -3,5 °C 4,8 km/h (1 Bft)
15.11.2016 04:35 -2,7 °C -2,7 °C 94 % 1032,4 hPa 0,0 mm 3,3 km/h (1 Bft) O 94 ° 0 min 0,000 mm 0,0 UV-I 0 W/m² -3,5 °C 6,4 km/h (2 Bft)
15.11.2016 04:36 -2,8 °C -2,7 °C 94 % 1032,3 hPa 0,0 mm 3,2 km/h (1 Bft) O 94 ° 0 min 0,000 mm 0,0 UV-I 0 W/m² -3,6 °C 4,8 km/h (1 Bft)
15.11.2016 04:37 -2,7 °C -2,7 °C 94 % 1032,3 hPa 0,0 mm 3,8 km/h (1 Bft) O 94 ° 0 min 0,000 mm 0,0 UV-I 0 W/m² -3,5 °C 4,8 km/h (1 Bft)
15.11.2016 04:38 -2,8 °C -2,7 °C 94 % 1032,3 hPa 0,0 mm 3,0 km/h (1 Bft) O 94 ° 0 min 0,000 mm 0,0 UV-I 0 W/m² -3,6 °C 3,2 km/h (1 Bft)
15.11.2016 04:39 -2,7 °C -2,7 °C 94 % 1032,3 hPa 0,0 mm 3,1 km/h (1 Bft) O 94 ° 0 min 0,000 mm 0,0 UV-I 0 W/m² -3,5 °C 4,8 km/h (1 Bft)
15.11.2016 04:40 -2,8 °C -2,7 °C 94 % 1032,3 hPa 0,0 mm 1,7 km/h (1 Bft) O 94 ° 0 min 0,000 mm 0,0 UV-I 0 W/m² -3,6 °C 3,2 km/h (1 Bft)
15.11.2016 04:41 -2,8 °C -2,8 °C 94 % 1032,3 hPa 0,0 mm 0,1 km/h (0 Bft) O 94 ° 0 min 0,000 mm 0,0 UV-I 0 W/m² -3,6 °C 1,6 km/h (1 Bft)
15.11.2016 04:42 -2,8 °C -2,8 °C 94 % 1032,3 hPa 0,0 mm 2,0 km/h (1 Bft) O 94 ° 0 min 0,000 mm 0,0 UV-I 0 W/m² -3,6 °C 3,2 km/h (1 Bft)
15.11.2016 04:43 -2,8 °C -2,8 °C 94 % 1032,4 hPa 0,0 mm 1,2 km/h (1 Bft) O 94 ° 0 min 0,000 mm 0,0 UV-I 0 W/m² -3,6 °C 3,2 km/h (1 Bft)
15.11.2016 04:44 -2,8 °C -2,8 °C 94 % 1032,5 hPa 0,0 mm 1,7 km/h (1 Bft) O 94 ° 0 min 0,000 mm 0,0 UV-I 0 W/m² -3,6 °C 3,2 km/h (1 Bft)
15.11.2016 04:45 -2,7 °C -2,7 °C 94 % 1032,5 hPa 0,0 mm 0,3 km/h (0 Bft) O 94 ° 0 min 0,000 mm 0,0 UV-I 0 W/m² -3,5 °C 1,6 km/h (1 Bft)
15.11.2016 04:46 -2,8 °C -2,7 °C 94 % 1032,6 hPa 0,0 mm 0,5 km/h (0 Bft) O 94 ° 0 min 0,000 mm 0,0 UV-I 0 W/m² -3,6 °C 1,6 km/h (1 Bft)
15.11.2016 04:47 -2,8 °C -2,8 °C 94 % 1032,6 hPa 0,0 mm 1,9 km/h (1 Bft) O 94 ° 0 min 0,000 mm 0,0 UV-I 0 W/m² -3,6 °C 3,2 km/h (1 Bft)
15.11.2016 04:48 -2,8 °C -2,8 °C 94 % 1032,5 hPa 0,0 mm 1,4 km/h (1 Bft) O 94 ° 0 min 0,000 mm 0,0 UV-I 0 W/m² -3,6 °C 1,6 km/h (1 Bft)
15.11.2016 04:49 -2,8 °C -2,8 °C 94 % 1032,5 hPa 0,0 mm 0,1 km/h (0 Bft) O 94 ° 0 min 0,000 mm 0,0 UV-I 0 W/m² -3,6 °C 1,6 km/h (1 Bft)
15.11.2016 04:50 -2,8 °C -2,8 °C 94 % 1032,5 hPa 0,0 mm 0,0 km/h (0 Bft) O 94 ° 0 min 0,000 mm 0,0 UV-I 0 W/m² -3,6 °C 0,0 km/h (0 Bft)
15.11.2016 04:51 -2,8 °C -2,8 °C 94 % 1032,5 hPa 0,0 mm 0,0 km/h (0 Bft) O 94 ° 0 min 0,000 mm 0,0 UV-I 0 W/m² -3,6 °C 0,0 km/h (0 Bft)
15.11.2016 04:52 -2,8 °C -2,8 °C 94 % 1032,5 hPa 0,0 mm 0,0 km/h (0 Bft) O 94 ° 0 min 0,000 mm 0,0 UV-I 0 W/m² -3,6 °C 0,0 km/h (0 Bft)
15.11.2016 04:53 -2,8 °C -2,8 °C 94 % 1032,5 hPa 0,0 mm 0,0 km/h (0 Bft) O 94 ° 0 min 0,000 mm 0,0 UV-I 0 W/m² -3,6 °C 0,0 km/h (0 Bft)
15.11.2016 04:54 -2,8 °C -2,8 °C 94 % 1032,5 hPa 0,0 mm 0,0 km/h (0 Bft) O 94 ° 0 min 0,000 mm 0,0 UV-I 0 W/m² -3,6 °C 0,0 km/h (0 Bft)
15.11.2016 04:55 -2,8 °C -2,8 °C 94 % 1032,4 hPa 0,0 mm 0,1 km/h (0 Bft) O 94 ° 0 min 0,000 mm 0,0 UV-I 0 W/m² -3,6 °C 1,6 km/h (1 Bft)
15.11.2016 04:56 -2,8 °C -2,8 °C 94 % 1032,4 hPa 0,0 mm 1,8 km/h (1 Bft) O 94 ° 0 min 0,000 mm 0,0 UV-I 0 W/m² -3,6 °C 3,2 km/h (1 Bft)
15.11.2016 04:57 -2,8 °C -2,8 °C 94 % 1032,3 hPa 0,0 mm 2,6 km/h (1 Bft) O 95 ° 0 min 0,000 mm 0,0 UV-I 0 W/m² -3,6 °C 3,2 km/h (1 Bft)
15.11.2016 04:58 -2,8 °C -2,8 °C 94 % 1032,3 hPa 0,0 mm 3,1 km/h (1 Bft) S 182 ° 0 min 0,000 mm 0,0 UV-I 0 W/m² -3,6 °C 6,4 km/h (2 Bft)
15.11.2016 04:59 -2,8 °C -2,8 °C 94 % 1032,3 hPa 0,0 mm 1,3 km/h (1 Bft) S 182 ° 0 min 0,000 mm 0,0 UV-I 0 W/m² -3,6 °C 3,2 km/h (1 Bft)
15.11.2016 05:00 -2,8 °C -2,8 °C 94 % 1032,2 hPa 0,0 mm 2,1 km/h (1 Bft) S 183 ° 0 min 0,000 mm 0,0 UV-I 0 W/m² -3,6 °C 3,2 km/h (1 Bft)
15.11.2016 05:01 -2,8 °C -2,8 °C 94 % 1032,2 hPa 0,0 mm 1,6 km/h (1 Bft) S 184 ° 0 min 0,000 mm 0,0 UV-I 0 W/m² -3,6 °C 3,2 km/h (1 Bft)
15.11.2016 05:02 -2,8 °C -2,8 °C 94 % 1032,2 hPa 0,0 mm 1,4 km/h (1 Bft) S 184 ° 0 min 0,000 mm 0,0 UV-I 0 W/m² -3,6 °C 1,6 km/h (1 Bft)
15.11.2016 05:03 -2,8 °C -2,8 °C 94 % 1032,2 hPa 0,0 mm 2,7 km/h (1 Bft) S-SW 198 ° 0 min 0,000 mm 0,0 UV-I 0 W/m² -3,6 °C 3,2 km/h (1 Bft)
15.11.2016 05:04 -2,8 °C -2,8 °C 94 % 1032,2 hPa 0,0 mm 2,3 km/h (1 Bft) S-SW 202 ° 0 min 0,000 mm 0,0 UV-I 0 W/m² -3,6 °C 3,2 km/h (1 Bft)
15.11.2016 05:05 -2,8 °C -2,8 °C 94 % 1032,2 hPa 0,0 mm 3,2 km/h (1 Bft) SW 225 ° 0 min 0,000 mm 0,0 UV-I 0 W/m² -3,6 °C 4,8 km/h (1 Bft)
15.11.2016 05:06 -2,8 °C -2,7 °C 94 % 1032,3 hPa 0,0 mm 2,7 km/h (1 Bft) SW 225 ° 0 min 0,000 mm 0,0 UV-I 0 W/m² -3,6 °C 3,2 km/h (1 Bft)
15.11.2016 05:07 -2,7 °C -2,7 °C 94 % 1032,3 hPa 0,0 mm 3,6 km/h (1 Bft) SW 233 ° 0 min 0,000 mm 0,0 UV-I 0 W/m² -3,5 °C 4,8 km/h (1 Bft)
15.11.2016 05:08 -2,7 °C -2,7 °C 94 % 1032,3 hPa 0,0 mm 3,5 km/h (1 Bft) W-SW 248 ° 0 min 0,000 mm 0,0 UV-I 0 W/m² -3,5 °C 4,8 km/h (1 Bft)
15.11.2016 05:09 -2,8 °C -2,7 °C 94 % 1032,3 hPa 0,0 mm 2,1 km/h (1 Bft) W-SW 248 ° 0 min 0,000 mm 0,0 UV-I 0 W/m² -3,6 °C 3,2 km/h (1 Bft)
15.11.2016 05:10 -2,7 °C -2,7 °C 94 % 1032,3 hPa 0,0 mm 1,9 km/h (1 Bft) W-SW 248 ° 0 min 0,000 mm 0,0 UV-I 0 W/m² -3,5 °C 3,2 km/h (1 Bft)
15.11.2016 05:11 -2,7 °C -2,7 °C 94 % 1032,2 hPa 0,0 mm 1,0 km/h (0 Bft) W-SW 248 ° 0 min 0,000 mm 0,0 UV-I 0 W/m² -3,5 °C 1,6 km/h (1 Bft)
15.11.2016 05:12 -2,7 °C -2,7 °C 94 % 1032,2 hPa 0,0 mm 2,0 km/h (1 Bft) W-SW 248 ° 0 min 0,000 mm 0,0 UV-I 0 W/m² -3,5 °C 3,2 km/h (1 Bft)
15.11.2016 05:13 -2,7 °C -2,7 °C 94 % 1032,2 hPa 0,0 mm 3,0 km/h (1 Bft) W-SW 248 ° 0 min 0,000 mm 0,0 UV-I 0 W/m² -3,5 °C 3,2 km/h (1 Bft)
15.11.2016 05:14 -2,7 °C -2,7 °C 94 % 1032,3 hPa 0,0 mm 2,1 km/h (1 Bft) W-SW 248 ° 0 min 0,000 mm 0,0 UV-I 0 W/m² -3,5 °C 3,2 km/h (1 Bft)
15.11.2016 05:15 -2,7 °C -2,7 °C 94 % 1032,3 hPa 0,0 mm 2,7 km/h (1 Bft) W-SW 248 ° 0 min 0,000 mm 0,0 UV-I 0 W/m² -3,5 °C 4,8 km/h (1 Bft)
15.11.2016 05:16 -2,7 °C -2,7 °C 94 % 1032,3 hPa 0,0 mm 1,5 km/h (1 Bft) W-SW 248 ° 0 min 0,000 mm 0,0 UV-I 0 W/m² -3,5 °C 3,2 km/h (1 Bft)
15.11.2016 05:17 -2,7 °C -2,7 °C 94 % 1032,3 hPa 0,0 mm 3,1 km/h (1 Bft) W-SW 248 ° 0 min 0,000 mm 0,0 UV-I 0 W/m² -3,5 °C 4,8 km/h (1 Bft)
15.11.2016 05:18 -2,7 °C -2,7 °C 94 % 1032,3 hPa 0,0 mm 1,8 km/h (1 Bft) W-SW 248 ° 0 min 0,000 mm 0,0 UV-I 0 W/m² -3,5 °C 3,2 km/h (1 Bft)
15.11.2016 05:19 -2,7 °C -2,7 °C 94 % 1032,3 hPa 0,0 mm 3,4 km/h (1 Bft) W-SW 248 ° 0 min 0,000 mm 0,0 UV-I 0 W/m² -3,5 °C 4,8 km/h (1 Bft)
15.11.2016 05:20 -2,7 °C -2,7 °C 95 % 1032,4 hPa 0,0 mm 2,1 km/h (1 Bft) W-SW 248 ° 0 min 0,000 mm 0,0 UV-I 0 W/m² -3,4 °C 4,8 km/h (1 Bft)
15.11.2016 05:21 -2,7 °C -2,7 °C 94 % 1032,4 hPa 0,0 mm 3,2 km/h (1 Bft) W-SW 248 ° 0 min 0,000 mm 0,0 UV-I 0 W/m² -3,5 °C 4,8 km/h (1 Bft)
15.11.2016 05:22 -2,7 °C -2,7 °C 95 % 1032,4 hPa 0,0 mm 2,0 km/h (1 Bft) W-SW 248 ° 0 min 0,000 mm 0,0 UV-I 0 W/m² -3,4 °C 3,2 km/h (1 Bft)
15.11.2016 05:23 -2,7 °C -2,7 °C 95 % 1032,4 hPa 0,0 mm 2,0 km/h (1 Bft) W-SW 248 ° 0 min 0,000 mm 0,0 UV-I 0 W/m² -3,4 °C 3,2 km/h (1 Bft)
15.11.2016 05:24 -2,7 °C -2,7 °C 94 % 1032,4 hPa 0,0 mm 1,9 km/h (1 Bft) W-SW 248 ° 0 min 0,000 mm 0,0 UV-I 0 W/m² -3,5 °C 3,2 km/h (1 Bft)
15.11.2016 05:25 -2,7 °C -2,7 °C 94 % 1032,4 hPa 0,0 mm 1,3 km/h (1 Bft) W-SW 248 ° 0 min 0,000 mm 0,0 UV-I 0 W/m² -3,5 °C 3,2 km/h (1 Bft)
15.11.2016 05:26 -2,7 °C -2,7 °C 94 % 1032,5 hPa 0,0 mm 0,9 km/h (0 Bft) W-SW 248 ° 0 min 0,000 mm 0,0 UV-I 0 W/m² -3,5 °C 1,6 km/h (1 Bft)
15.11.2016 05:27 -2,7 °C -2,7 °C 94 % 1032,5 hPa 0,0 mm 0,7 km/h (0 Bft) W-SW 248 ° 0 min 0,000 mm 0,0 UV-I 0 W/m² -3,5 °C 1,6 km/h (1 Bft)
15.11.2016 05:28 -2,7 °C -2,7 °C 94 % 1032,5 hPa 0,0 mm 2,0 km/h (1 Bft) W-SW 248 ° 0 min 0,000 mm 0,0 UV-I 0 W/m² -3,5 °C 3,2 km/h (1 Bft)
15.11.2016 05:29 -2,7 °C -2,7 °C 94 % 1032,5 hPa 0,0 mm 1,9 km/h (1 Bft) W-SW 248 ° 0 min 0,000 mm 0,0 UV-I 0 W/m² -3,5 °C 3,2 km/h (1 Bft)
15.11.2016 05:30 -2,7 °C -2,7 °C 94 % 1032,4 hPa 0,0 mm 1,1 km/h (1 Bft) W-SW 248 ° 0 min 0,000 mm 0,0 UV-I 0 W/m² -3,5 °C 1,6 km/h (1 Bft)
15.11.2016 05:31 -2,7 °C -2,7 °C 94 % 1032,4 hPa 0,0 mm 1,9 km/h (1 Bft) W-SW 248 ° 0 min 0,000 mm 0,0 UV-I 0 W/m² -3,5 °C 3,2 km/h (1 Bft)
15.11.2016 05:32 -2,7 °C -2,7 °C 94 % 1032,4 hPa 0,0 mm 1,3 km/h (1 Bft) W-SW 248 ° 0 min 0,000 mm 0,0 UV-I 0 W/m² -3,5 °C 3,2 km/h (1 Bft)
15.11.2016 05:33 -2,7 °C -2,7 °C 94 % 1032,4 hPa 0,0 mm 1,6 km/h (1 Bft) W-SW 248 ° 0 min 0,000 mm 0,0 UV-I 0 W/m² -3,5 °C 3,2 km/h (1 Bft)
15.11.2016 05:34 -2,7 °C -2,7 °C 94 % 1032,4 hPa 0,0 mm 2,5 km/h (1 Bft) W-SW 248 ° 0 min 0,000 mm 0,0 UV-I 0 W/m² -3,5 °C 3,2 km/h (1 Bft)
15.11.2016 05:35 -2,7 °C -2,7 °C 94 % 1032,4 hPa 0,0 mm 3,0 km/h (1 Bft) W-SW 248 ° 0 min 0,000 mm 0,0 UV-I 0 W/m² -3,5 °C 4,8 km/h (1 Bft)
15.11.2016 05:36 -2,7 °C -2,7 °C 95 % 1032,3 hPa 0,0 mm 4,4 km/h (1 Bft) W 260 ° 0 min 0,000 mm 0,0 UV-I 0 W/m² -3,4 °C 4,8 km/h (1 Bft)
15.11.2016 05:37 -2,7 °C -2,7 °C 95 % 1032,4 hPa 0,0 mm 3,8 km/h (1 Bft) W 267 ° 0 min 0,000 mm 0,0 UV-I 0 W/m² -3,4 °C 4,8 km/h (1 Bft)
15.11.2016 05:38 -2,7 °C -2,6 °C 95 % 1032,4 hPa 0,0 mm 2,3 km/h (1 Bft) W 267 ° 0 min 0,000 mm 0,0 UV-I 0 W/m² -3,4 °C 3,2 km/h (1 Bft)
15.11.2016 05:39 -2,7 °C -2,6 °C 95 % 1032,5 hPa 0,0 mm 3,6 km/h (1 Bft) W-SW 248 ° 0 min 0,000 mm 0,0 UV-I 0 W/m² -3,4 °C 6,4 km/h (2 Bft)
15.11.2016 05:40 -2,6 °C -2,6 °C 95 % 1032,4 hPa 0,0 mm 4,2 km/h (1 Bft) W 260 ° 0 min 0,000 mm 0,0 UV-I 0 W/m² -3,3 °C 4,8 km/h (1 Bft)
15.11.2016 05:41 -2,6 °C -2,6 °C 95 % 1032,5 hPa 0,0 mm 1,5 km/h (1 Bft) W 260 ° 0 min 0,000 mm 0,0 UV-I 0 W/m² -3,3 °C 3,2 km/h (1 Bft)
15.11.2016 05:42 -2,6 °C -2,6 °C 95 % 1032,5 hPa 0,0 mm 2,6 km/h (1 Bft) W 260 ° 0 min 0,000 mm 0,0 UV-I 0 W/m² -3,3 °C 4,8 km/h (1 Bft)
15.11.2016 05:43 -2,6 °C -2,6 °C 95 % 1032,5 hPa 0,0 mm 2,7 km/h (1 Bft) W 264 ° 0 min 0,000 mm 0,0 UV-I 0 W/m² -3,3 °C 4,8 km/h (1 Bft)
15.11.2016 05:44 -2,6 °C -2,6 °C 95 % 1032,5 hPa 0,0 mm 3,0 km/h (1 Bft) W-NW 292 ° 0 min 0,000 mm 0,0 UV-I 0 W/m² -3,3 °C 4,8 km/h (1 Bft)
15.11.2016 05:45 -2,6 °C -2,6 °C 95 % 1032,5 hPa 0,0 mm 1,8 km/h (1 Bft) W-NW 292 ° 0 min 0,000 mm 0,0 UV-I 0 W/m² -3,3 °C 3,2 km/h (1 Bft)
15.11.2016 05:46 -2,6 °C -2,6 °C 95 % 1032,5 hPa 0,0 mm 2,4 km/h (1 Bft) W-NW 292 ° 0 min 0,000 mm 0,0 UV-I 0 W/m² -3,3 °C 3,2 km/h (1 Bft)
15.11.2016 05:47 -2,6 °C -2,6 °C 95 % 1032,3 hPa 0,0 mm 2,0 km/h (1 Bft) W-NW 292 ° 0 min 0,000 mm 0,0 UV-I 0 W/m² -3,3 °C 3,2 km/h (1 Bft)
15.11.2016 05:48 -2,6 °C -2,6 °C 95 % 1032,4 hPa 0,0 mm 1,7 km/h (1 Bft) W-NW 292 ° 0 min 0,000 mm 0,0 UV-I 0 W/m² -3,3 °C 3,2 km/h (1 Bft)
15.11.2016 05:49 -2,6 °C -2,6 °C 95 % 1032,4 hPa 0,0 mm 1,9 km/h (1 Bft) W-NW 292 ° 0 min 0,000 mm 0,0 UV-I 0 W/m² -3,3 °C 3,2 km/h (1 Bft)
15.11.2016 05:50 -2,6 °C -2,6 °C 95 % 1032,4 hPa 0,0 mm 2,1 km/h (1 Bft) W-NW 292 ° 0 min 0,000 mm 0,0 UV-I 0 W/m² -3,3 °C 3,2 km/h (1 Bft)
15.11.2016 05:51 -2,6 °C -2,6 °C 95 % 1032,4 hPa 0,0 mm 2,0 km/h (1 Bft) W-NW 292 ° 0 min 0,000 mm 0,0 UV-I 0 W/m² -3,3 °C 3,2 km/h (1 Bft)
15.11.2016 05:52 -2,6 °C -2,6 °C 95 % 1032,4 hPa 0,0 mm 2,7 km/h (1 Bft) W-NW 292 ° 0 min 0,000 mm 0,0 UV-I 0 W/m² -3,3 °C 4,8 km/h (1 Bft)
15.11.2016 05:53 -2,6 °C -2,6 °C 95 % 1032,4 hPa 0,0 mm 2,1 km/h (1 Bft) W-NW 292 ° 0 min 0,000 mm 0,0 UV-I 0 W/m² -3,3 °C 3,2 km/h (1 Bft)
15.11.2016 05:54 -2,6 °C -2,6 °C 95 % 1032,3 hPa 0,0 mm 3,2 km/h (1 Bft) W-NW 292 ° 0 min 0,000 mm 0,0 UV-I 0 W/m² -3,3 °C 3,2 km/h (1 Bft)
15.11.2016 05:55 -2,6 °C -2,6 °C 95 % 1032,3 hPa 0,0 mm 2,8 km/h (1 Bft) W-NW 292 ° 0 min 0,000 mm 0,0 UV-I 0 W/m² -3,3 °C 3,2 km/h (1 Bft)
15.11.2016 05:56 -2,6 °C -2,6 °C 95 % 1032,3 hPa 0,0 mm 2,5 km/h (1 Bft) W-NW 292 ° 0 min 0,000 mm 0,0 UV-I 0 W/m² -3,3 °C 4,8 km/h (1 Bft)
15.11.2016 05:57 -2,6 °C -2,6 °C 95 % 1032,3 hPa 0,0 mm 3,5 km/h (1 Bft) W-NW 292 ° 0 min 0,000 mm 0,0 UV-I 0 W/m² -3,3 °C 4,8 km/h (1 Bft)
15.11.2016 05:58 -2,6 °C -2,5 °C 95 % 1032,3 hPa 0,0 mm 3,5 km/h (1 Bft) W 269 ° 0 min 0,000 mm 0,0 UV-I 0 W/m² -3,3 °C 4,8 km/h (1 Bft)
15.11.2016 05:59 -2,5 °C -2,5 °C 95 % 1032,2 hPa 0,0 mm 3,3 km/h (1 Bft) W 276 ° 0 min 0,000 mm 0,0 UV-I 0 W/m² -3,2 °C 4,8 km/h (1 Bft)
15.11.2016 06:00 -2,6 °C -2,5 °C 95 % 1032,3 hPa 0,0 mm 3,2 km/h (1 Bft) W-SW 253 ° 0 min 0,000 mm 0,0 UV-I 0 W/m² -3,3 °C 6,4 km/h (2 Bft)
15.11.2016 06:01 -2,5 °C -2,5 °C 95 % 1032,3 hPa 0,0 mm 3,2 km/h (1 Bft) W-SW 240 ° 0 min 0,000 mm 0,0 UV-I 0 W/m² -3,2 °C 6,4 km/h (2 Bft)
15.11.2016 06:02 -2,6 °C -2,5 °C 95 % 1032,3 hPa 0,0 mm 1,9 km/h (1 Bft) W-SW 240 ° 0 min 0,000 mm 0,0 UV-I 0 W/m² -3,3 °C 3,2 km/h (1 Bft)
15.11.2016 06:03 -2,6 °C -2,5 °C 95 % 1032,3 hPa 0,0 mm 2,2 km/h (1 Bft) W-SW 240 ° 0 min 0,000 mm 0,0 UV-I 0 W/m² -3,3 °C 3,2 km/h (1 Bft)
15.11.2016 06:04 -2,6 °C -2,5 °C 95 % 1032,3 hPa 0,0 mm 3,2 km/h (1 Bft) W-SW 241 ° 0 min 0,000 mm 0,0 UV-I 0 W/m² -3,3 °C 4,8 km/h (1 Bft)
15.11.2016 06:05 -2,6 °C -2,5 °C 95 % 1032,3 hPa 0,0 mm 3,2 km/h (1 Bft) W-SW 250 ° 0 min 0,000 mm 0,0 UV-I 0 W/m² -3,3 °C 4,8 km/h (1 Bft)
15.11.2016 06:06 -2,5 °C -2,5 °C 95 % 1032,3 hPa 0,0 mm 2,7 km/h (1 Bft) W-SW 250 ° 0 min 0,000 mm 0,0 UV-I 0 W/m² -3,2 °C 3,2 km/h (1 Bft)
15.11.2016 06:07 -2,6 °C -2,5 °C 95 % 1032,3 hPa 0,0 mm 2,9 km/h (1 Bft) W-SW 245 ° 0 min 0,000 mm 0,0 UV-I 0 W/m² -3,3 °C 4,8 km/h (1 Bft)
15.11.2016 06:08 -2,5 °C -2,5 °C 95 % 1032,3 hPa 0,0 mm 3,7 km/h (1 Bft) SW 214 ° 0 min 0,000 mm 0,0 UV-I 0 W/m² -3,2 °C 6,4 km/h (2 Bft)
15.11.2016 06:09 -2,6 °C -2,5 °C 95 % 1032,2 hPa 0,0 mm 3,5 km/h (1 Bft) SW 214 ° 0 min 0,000 mm 0,0 UV-I 0 W/m² -3,3 °C 4,8 km/h (1 Bft)
15.11.2016 06:10 -2,6 °C -2,6 °C 95 % 1032,2 hPa 0,0 mm 1,5 km/h (1 Bft) SW 214 ° 0 min 0,000 mm 0,0 UV-I 0 W/m² -3,3 °C 1,6 km/h (1 Bft)
15.11.2016 06:11 -2,6 °C -2,6 °C 95 % 1032,2 hPa 0,0 mm 2,3 km/h (1 Bft) SW 214 ° 0 min 0,000 mm 0,0 UV-I 0 W/m² -3,3 °C 3,2 km/h (1 Bft)
15.11.2016 06:12 -2,6 °C -2,6 °C 95 % 1032,3 hPa 0,0 mm 2,8 km/h (1 Bft) W-SW 245 ° 0 min 0,000 mm 0,0 UV-I 0 W/m² -3,3 °C 6,4 km/h (2 Bft)
15.11.2016 06:13 -2,6 °C -2,6 °C 95 % 1032,3 hPa 0,0 mm 3,4 km/h (1 Bft) SW 231 ° 0 min 0,000 mm 0,0 UV-I 0 W/m² -3,3 °C 4,8 km/h (1 Bft)
15.11.2016 06:14 -2,6 °C -2,6 °C 95 % 1032,4 hPa 0,0 mm 3,2 km/h (1 Bft) SW 230 ° 0 min 0,000 mm 0,0 UV-I 0 W/m² -3,3 °C 4,8 km/h (1 Bft)
15.11.2016 06:15 -2,6 °C -2,6 °C 95 % 1032,4 hPa 0,0 mm 1,7 km/h (1 Bft) SW 230 ° 0 min 0,000 mm 0,0 UV-I 0 W/m² -3,3 °C 3,2 km/h (1 Bft)
15.11.2016 06:16 -2,6 °C -2,6 °C 95 % 1032,4 hPa 0,0 mm 1,7 km/h (1 Bft) SW 230 ° 0 min 0,000 mm 0,0 UV-I 0 W/m² -3,3 °C 3,2 km/h (1 Bft)
15.11.2016 06:17 -2,6 °C -2,6 °C 95 % 1032,4 hPa 0,0 mm 1,7 km/h (1 Bft) SW 230 ° 0 min 0,000 mm 0,0 UV-I 0 W/m² -3,3 °C 3,2 km/h (1 Bft)
15.11.2016 06:18 -2,6 °C -2,6 °C 95 % 1032,5 hPa 0,0 mm 1,5 km/h (1 Bft) SW 230 ° 0 min 0,000 mm 0,0 UV-I 0 W/m² -3,3 °C 3,2 km/h (1 Bft)
15.11.2016 06:19 -2,6 °C -2,6 °C 95 % 1032,5 hPa 0,0 mm 3,5 km/h (1 Bft) W-NW 284 ° 0 min 0,000 mm 0,0 UV-I 0 W/m² -3,3 °C 4,8 km/h (1 Bft)
15.11.2016 06:20 -2,6 °C -2,6 °C 95 % 1032,6 hPa 0,0 mm 4,8 km/h (1 Bft) W-NW 283 ° 0 min 0,000 mm 0,0 UV-I 0 W/m² -3,3 °C 9,7 km/h (2 Bft)
15.11.2016 06:21 -2,6 °C -2,6 °C 95 % 1032,6 hPa 0,0 mm 4,1 km/h (1 Bft) NW 307 ° 0 min 0,000 mm 0,0 UV-I 0 W/m² -3,3 °C 6,4 km/h (2 Bft)
15.11.2016 06:22 -2,6 °C -2,6 °C 95 % 1032,6 hPa 0,0 mm 2,7 km/h (1 Bft) W 269 ° 0 min 0,000 mm 0,0 UV-I 0 W/m² -3,3 °C 4,8 km/h (1 Bft)
15.11.2016 06:23 -2,6 °C -2,6 °C 95 % 1032,6 hPa 0,0 mm 4,8 km/h (1 Bft) W-NW 297 ° 0 min 0,000 mm 0,0 UV-I 0 W/m² -3,3 °C 6,4 km/h (2 Bft)
15.11.2016 06:24 -2,6 °C -2,6 °C 95 % 1032,6 hPa 0,0 mm 4,4 km/h (1 Bft) W-NW 290 ° 0 min 0,000 mm 0,0 UV-I 0 W/m² -3,3 °C 4,8 km/h (1 Bft)
15.11.2016 06:25 -2,6 °C -2,6 °C 95 % 1032,6 hPa 0,0 mm 4,1 km/h (1 Bft) W-NW 290 ° 0 min 0,000 mm 0,0 UV-I 0 W/m² -3,3 °C 4,8 km/h (1 Bft)
15.11.2016 06:26 -2,6 °C -2,6 °C 95 % 1032,5 hPa 0,0 mm 3,7 km/h (1 Bft) W-SW 242 ° 0 min 0,000 mm 0,0 UV-I 0 W/m² -3,3 °C 8,0 km/h (2 Bft)
15.11.2016 06:27 -2,6 °C -2,6 °C 95 % 1032,5 hPa 0,0 mm 6,2 km/h (2 Bft) W-SW 257 ° 0 min 0,000 mm 0,0 UV-I 0 W/m² -3,3 °C 9,7 km/h (2 Bft)
15.11.2016 06:28 -2,7 °C -2,6 °C 95 % 1032,4 hPa 0,0 mm 5,2 km/h (1 Bft) W-SW 254 ° 0 min 0,000 mm 0,0 UV-I 0 W/m² -3,4 °C 9,7 km/h (2 Bft)
15.11.2016 06:29 -2,6 °C -2,6 °C 95 % 1032,4 hPa 0,0 mm 3,0 km/h (1 Bft) W 266 ° 0 min 0,000 mm 0,0 UV-I 0 W/m² -3,3 °C 4,8 km/h (1 Bft)
15.11.2016 06:30 -2,6 °C -2,6 °C 95 % 1032,3 hPa 0,0 mm 4,4 km/h (1 Bft) W 281 ° 0 min 0,000 mm 0,0 UV-I 0 W/m² -3,3 °C 6,4 km/h (2 Bft)
15.11.2016 06:31 -2,7 °C -2,6 °C 95 % 1032,3 hPa 0,0 mm 2,3 km/h (1 Bft) W 281 ° 0 min 0,000 mm 0,0 UV-I 0 W/m² -3,4 °C 3,2 km/h (1 Bft)
15.11.2016 06:32 -2,7 °C -2,6 °C 95 % 1032,3 hPa 0,0 mm 3,4 km/h (1 Bft) W 259 ° 0 min 0,000 mm 0,0 UV-I 0 W/m² -3,4 °C 4,8 km/h (1 Bft)
15.11.2016 06:33 -2,7 °C -2,6 °C 95 % 1032,3 hPa 0,0 mm 2,7 km/h (1 Bft) W 259 ° 0 min 0,000 mm 0,0 UV-I 0 W/m² -3,4 °C 4,8 km/h (1 Bft)
15.11.2016 06:34 -2,6 °C -2,6 °C 95 % 1032,4 hPa 0,0 mm 4,2 km/h (1 Bft) W-SW 249 ° 0 min 0,000 mm 0,0 UV-I 0 W/m² -3,3 °C 6,4 km/h (2 Bft)
15.11.2016 06:35 -2,7 °C -2,6 °C 95 % 1032,4 hPa 0,0 mm 2,4 km/h (1 Bft) W 269 ° 0 min 0,000 mm 0,0 UV-I 0 W/m² -3,4 °C 4,8 km/h (1 Bft)
15.11.2016 06:36 -2,6 °C -2,6 °C 95 % 1032,3 hPa 0,0 mm 2,5 km/h (1 Bft) W 277 ° 0 min 0,000 mm 0,0 UV-I 0 W/m² -3,3 °C 4,8 km/h (1 Bft)
15.11.2016 06:37 -2,6 °C -2,6 °C 95 % 1032,4 hPa 0,0 mm 4,0 km/h (1 Bft) W-NW 287 ° 0 min 0,000 mm 0,0 UV-I 0 W/m² -3,3 °C 6,4 km/h (2 Bft)
15.11.2016 06:38 -2,6 °C -2,6 °C 95 % 1032,3 hPa 0,0 mm 4,2 km/h (1 Bft) W-NW 287 ° 0 min 0,000 mm 0,0 UV-I 0 W/m² -3,3 °C 6,4 km/h (2 Bft)
15.11.2016 06:39 -2,6 °C -2,6 °C 95 % 1032,3 hPa 0,0 mm 3,6 km/h (1 Bft) W 268 ° 0 min 0,000 mm 0,0 UV-I 0 W/m² -3,3 °C 4,8 km/h (1 Bft)
15.11.2016 06:40 -2,6 °C -2,6 °C 95 % 1032,3 hPa 0,0 mm 5,1 km/h (1 Bft) W 269 ° 0 min 0,000 mm 0,0 UV-I 0 W/m² -3,3 °C 9,7 km/h (2 Bft)
15.11.2016 06:41 -2,7 °C -2,6 °C 95 % 1032,3 hPa 0,0 mm 3,8 km/h (1 Bft) W 273 ° 0 min 0,000 mm 0,0 UV-I 0 W/m² -3,4 °C 6,4 km/h (2 Bft)
15.11.2016 06:42 -2,6 °C -2,6 °C 95 % 1032,3 hPa 0,0 mm 3,8 km/h (1 Bft) W 265 ° 0 min 0,000 mm 0,0 UV-I 0 W/m² -3,3 °C 4,8 km/h (1 Bft)
15.11.2016 06:43 -2,6 °C -2,6 °C 95 % 1032,3 hPa 0,0 mm 4,8 km/h (1 Bft) W 272 ° 0 min 0,000 mm 0,0 UV-I 0 W/m² -3,3 °C 6,4 km/h (2 Bft)
15.11.2016 06:44 -2,6 °C -2,6 °C 95 % 1032,3 hPa 0,0 mm 3,5 km/h (1 Bft) W 281 ° 0 min 0,000 mm 0,0 UV-I 0 W/m² -3,3 °C 4,8 km/h (1 Bft)
15.11.2016 06:45 -2,6 °C -2,6 °C 95 % 1032,3 hPa 0,0 mm 5,0 km/h (1 Bft) W-NW 290 ° 0 min 0,000 mm 0,0 UV-I 0 W/m² -3,3 °C 6,4 km/h (2 Bft)
15.11.2016 06:46 -2,6 °C -2,6 °C 95 % 1032,4 hPa 0,0 mm 3,8 km/h (1 Bft) W 275 ° 0 min 0,000 mm 0,0 UV-I 0 W/m² -3,3 °C 4,8 km/h (1 Bft)
15.11.2016 06:47 -2,6 °C -2,6 °C 95 % 1032,4 hPa 0,0 mm 3,7 km/h (1 Bft) W 277 ° 0 min 0,000 mm 0,0 UV-I 0 W/m² -3,3 °C 4,8 km/h (1 Bft)
15.11.2016 06:48 -2,6 °C -2,6 °C 95 % 1032,4 hPa 0,0 mm 3,6 km/h (1 Bft) W 271 ° 0 min 0,000 mm 0,0 UV-I 0 W/m² -3,3 °C 4,8 km/h (1 Bft)
15.11.2016 06:49 -2,6 °C -2,6 °C 95 % 1032,4 hPa 0,0 mm 6,2 km/h (2 Bft) SW 231 ° 0 min 0,000 mm 0,0 UV-I 0 W/m² -3,3 °C 9,7 km/h (2 Bft)
15.11.2016 06:50 -2,6 °C -2,6 °C 95 % 1032,4 hPa 0,0 mm 5,0 km/h (1 Bft) W-SW 258 ° 0 min 0,000 mm 0,0 UV-I 0 W/m² -3,3 °C 9,7 km/h (2 Bft)
15.11.2016 06:51 -2,6 °C -2,6 °C 95 % 1032,5 hPa 0,0 mm 5,5 km/h (1 Bft) W 271 ° 0 min 0,000 mm 0,0 UV-I 0 W/m² -3,3 °C 6,4 km/h (2 Bft)
15.11.2016 06:52 -2,6 °C -2,6 °C 95 % 1032,5 hPa 0,0 mm 2,6 km/h (1 Bft) W 279 ° 0 min 0,000 mm 0,0 UV-I 0 W/m² -3,3 °C 3,2 km/h (1 Bft)
15.11.2016 06:53 -2,6 °C -2,6 °C 95 % 1032,5 hPa 0,0 mm 2,7 km/h (1 Bft) W 271 ° 0 min 0,000 mm 0,0 UV-I 0 W/m² -3,3 °C 4,8 km/h (1 Bft)
15.11.2016 06:54 -2,6 °C -2,6 °C 95 % 1032,5 hPa 0,0 mm 5,1 km/h (1 Bft) W-NW 294 ° 0 min 0,000 mm 0,0 UV-I 0 W/m² -3,3 °C 9,7 km/h (2 Bft)
15.11.2016 06:55 -2,7 °C -2,6 °C 95 % 1032,5 hPa 0,0 mm 2,5 km/h (1 Bft) W-NW 293 ° 0 min 0,000 mm 0,0 UV-I 0 W/m² -3,4 °C 4,8 km/h (1 Bft)
15.11.2016 06:56 -2,6 °C -2,6 °C 95 % 1032,5 hPa 0,0 mm 4,2 km/h (1 Bft) W 276 ° 0 min 0,000 mm 0,0 UV-I 0 W/m² -3,3 °C 6,4 km/h (2 Bft)
15.11.2016 06:57 -2,7 °C -2,6 °C 95 % 1032,5 hPa 0,0 mm 4,2 km/h (1 Bft) W-SW 255 ° 0 min 0,000 mm 0,0 UV-I 0 W/m² -3,4 °C 6,4 km/h (2 Bft)
15.11.2016 06:58 -2,6 °C -2,6 °C 95 % 1032,5 hPa 0,0 mm 4,5 km/h (1 Bft) W-SW 245 ° 0 min 0,000 mm 0,0 UV-I 0 W/m² -3,3 °C 6,4 km/h (2 Bft)
15.11.2016 06:59 -2,7 °C -2,6 °C 95 % 1032,5 hPa 0,0 mm 3,5 km/h (1 Bft) W-SW 245 ° 0 min 0,000 mm 0,0 UV-I 0 W/m² -3,4 °C 4,8 km/h (1 Bft)
15.11.2016 07:00 -2,7 °C -2,6 °C 95 % 1032,5 hPa 0,0 mm 4,6 km/h (1 Bft) W 278 ° 0 min 0,000 mm 0,0 UV-I 0 W/m² -3,4 °C 6,4 km/h (2 Bft)
15.11.2016 07:01 -2,6 °C -2,6 °C 95 % 1032,5 hPa 0,0 mm 4,8 km/h (1 Bft) W-SW 250 ° 0 min 0,000 mm 0,0 UV-I 0 W/m² -3,3 °C 6,4 km/h (2 Bft)
15.11.2016 07:02 -2,7 °C -2,6 °C 95 % 1032,5 hPa 0,0 mm 3,8 km/h (1 Bft) W 280 ° 0 min 0,000 mm 0,0 UV-I 0 W/m² -3,4 °C 4,8 km/h (1 Bft)
15.11.2016 07:03 -2,7 °C -2,7 °C 95 % 1032,6 hPa 0,0 mm 3,0 km/h (1 Bft) W 281 ° 0 min 0,000 mm 0,0 UV-I 0 W/m² -3,4 °C 4,8 km/h (1 Bft)
15.11.2016 07:04 -2,7 °C -2,7 °C 95 % 1032,7 hPa 0,0 mm 1,5 km/h (1 Bft) W 281 ° 0 min 0,000 mm 0,0 UV-I 0 W/m² -3,4 °C 3,2 km/h (1 Bft)
15.11.2016 07:05 -2,7 °C -2,7 °C 95 % 1032,7 hPa 0,0 mm 1,6 km/h (1 Bft) W 281 ° 0 min 0,000 mm 0,0 UV-I 0 W/m² -3,4 °C 3,2 km/h (1 Bft)
15.11.2016 07:06 -2,7 °C -2,7 °C 95 % 1032,7 hPa 0,0 mm 2,1 km/h (1 Bft) W 281 ° 0 min 0,000 mm 0,0 UV-I 0 W/m² -3,4 °C 3,2 km/h (1 Bft)
15.11.2016 07:07 -2,7 °C -2,7 °C 95 % 1032,7 hPa 0,0 mm 1,7 km/h (1 Bft) W 281 ° 0 min 0,000 mm 0,0 UV-I 0 W/m² -3,4 °C 3,2 km/h (1 Bft)
15.11.2016 07:08 -2,7 °C -2,7 °C 95 % 1032,7 hPa 0,0 mm 1,4 km/h (1 Bft) W 281 ° 0 min 0,000 mm 0,0 UV-I 0 W/m² -3,4 °C 3,2 km/h (1 Bft)
15.11.2016 07:09 -2,7 °C -2,7 °C 95 % 1032,7 hPa 0,0 mm 0,8 km/h (0 Bft) W 281 ° 0 min 0,000 mm 0,0 UV-I 0 W/m² -3,4 °C 1,6 km/h (1 Bft)
15.11.2016 07:10 -2,7 °C -2,7 °C 95 % 1032,7 hPa 0,0 mm 0,4 km/h (0 Bft) W 281 ° 0 min 0,000 mm 0,0 UV-I 0 W/m² -3,4 °C 1,6 km/h (1 Bft)
15.11.2016 07:11 -2,7 °C -2,7 °C 95 % 1032,7 hPa 0,0 mm 0,1 km/h (0 Bft) W 281 ° 0 min 0,000 mm 0,0 UV-I 0 W/m² -3,4 °C 1,6 km/h (1 Bft)
15.11.2016 07:12 -2,7 °C -2,7 °C 95 % 1032,8 hPa 0,0 mm 1,0 km/h (0 Bft) W 281 ° 0 min 0,000 mm 0,0 UV-I 0 W/m² -3,4 °C 3,2 km/h (1 Bft)
15.11.2016 07:13 -2,7 °C -2,7 °C 95 % 1032,8 hPa 0,0 mm 1,3 km/h (1 Bft) W 281 ° 0 min 0,000 mm 0,0 UV-I 0 W/m² -3,4 °C 1,6 km/h (1 Bft)
15.11.2016 07:14 -2,7 °C -2,7 °C 95 % 1032,8 hPa 0,0 mm 0,4 km/h (0 Bft) W 281 ° 0 min 0,000 mm 0,0 UV-I 0 W/m² -3,4 °C 1,6 km/h (1 Bft)
15.11.2016 07:15 -2,7 °C -2,7 °C 95 % 1032,8 hPa 0,0 mm 1,2 km/h (1 Bft) W 281 ° 0 min 0,000 mm 0,0 UV-I 0 W/m² -3,4 °C 1,6 km/h (1 Bft)
15.11.2016 07:16 -2,7 °C -2,7 °C 95 % 1032,7 hPa 0,0 mm 1,4 km/h (1 Bft) W 281 ° 0 min 0,000 mm 0,0 UV-I 0 W/m² -3,4 °C 3,2 km/h (1 Bft)
15.11.2016 07:17 -2,7 °C -2,7 °C 95 % 1032,8 hPa 0,0 mm 0,9 km/h (0 Bft) W 281 ° 0 min 0,000 mm 0,0 UV-I 0 W/m² -3,4 °C 1,6 km/h (1 Bft)
15.11.2016 07:18 -2,7 °C -2,7 °C 95 % 1032,9 hPa 0,0 mm 0,0 km/h (0 Bft) W 281 ° 0 min 0,000 mm 0,0 UV-I 0 W/m² -3,4 °C 0,0 km/h (0 Bft)
15.11.2016 07:19 -2,7 °C -2,7 °C 95 % 1032,8 hPa 0,0 mm 0,6 km/h (0 Bft) W 281 ° 0 min 0,000 mm 0,0 UV-I 0 W/m² -3,4 °C 1,6 km/h (1 Bft)
15.11.2016 07:20 -2,7 °C -2,7 °C 95 % 1032,9 hPa 0,0 mm 0,1 km/h (0 Bft) W 281 ° 0 min 0,000 mm 0,0 UV-I 0 W/m² -3,4 °C 1,6 km/h (1 Bft)
15.11.2016 07:21 -2,7 °C -2,7 °C 95 % 1032,9 hPa 0,0 mm 0,0 km/h (0 Bft) W 281 ° 0 min 0,000 mm 0,0 UV-I 0 W/m² -3,4 °C 0,0 km/h (0 Bft)
15.11.2016 07:22 -2,7 °C -2,7 °C 95 % 1032,9 hPa 0,0 mm 1,4 km/h (1 Bft) NW 310 ° 0 min 0,000 mm 0,0 UV-I 0 W/m² -3,4 °C 3,2 km/h (1 Bft)
15.11.2016 07:23 -2,7 °C -2,7 °C 95 % 1032,9 hPa 0,0 mm 1,9 km/h (1 Bft) NW 310 ° 0 min 0,000 mm 0,0 UV-I 0 W/m² -3,4 °C 3,2 km/h (1 Bft)
15.11.2016 07:24 -2,7 °C -2,7 °C 95 % 1032,9 hPa 0,0 mm 1,3 km/h (1 Bft) NW 310 ° 0 min 0,000 mm 0,0 UV-I 0 W/m² -3,4 °C 3,2 km/h (1 Bft)
15.11.2016 07:25 -2,8 °C -2,7 °C 95 % 1032,9 hPa 0,0 mm 2,0 km/h (1 Bft) NW 310 ° 0 min 0,000 mm 0,0 UV-I 0 W/m² -3,5 °C 3,2 km/h (1 Bft)
15.11.2016 07:26 -2,7 °C -2,7 °C 95 % 1032,8 hPa 0,0 mm 1,1 km/h (1 Bft) NW 310 ° 0 min 0,000 mm 0,0 UV-I 0 W/m² -3,4 °C 3,2 km/h (1 Bft)
15.11.2016 07:27 -2,8 °C -2,7 °C 95 % 1032,9 hPa 0,0 mm 0,0 km/h (0 Bft) NW 310 ° 0 min 0,000 mm 0,0 UV-I 0 W/m² -3,5 °C 0,0 km/h (0 Bft)
15.11.2016 07:28 -2,8 °C -2,7 °C 94 % 1032,9 hPa 0,0 mm 0,5 km/h (0 Bft) NW 310 ° 0 min 0,000 mm 0,0 UV-I 0 W/m² -3,6 °C 1,6 km/h (1 Bft)
15.11.2016 07:29 -2,8 °C -2,8 °C 95 % 1032,9 hPa 0,0 mm 1,5 km/h (1 Bft) NW 310 ° 0 min 0,000 mm 0,0 UV-I 5 W/m² -3,5 °C 3,2 km/h (1 Bft)
15.11.2016 07:30 -2,8 °C -2,8 °C 95 % 1032,9 hPa 0,0 mm 0,9 km/h (0 Bft) NW 310 ° 0 min 0,000 mm 0,0 UV-I 5 W/m² -3,5 °C 1,6 km/h (1 Bft)
15.11.2016 07:31 -2,8 °C -2,8 °C 94 % 1032,9 hPa 0,0 mm 0,0 km/h (0 Bft) NW 310 ° 0 min 0,000 mm 0,0 UV-I 5 W/m² -3,6 °C 0,0 km/h (0 Bft)
15.11.2016 07:32 -2,8 °C -2,8 °C 94 % 1032,9 hPa 0,0 mm 0,0 km/h (0 Bft) NW 310 ° 0 min 0,000 mm 0,0 UV-I 5 W/m² -3,6 °C 0,0 km/h (0 Bft)
15.11.2016 07:33 -2,8 °C -2,8 °C 94 % 1032,9 hPa 0,0 mm 0,4 km/h (0 Bft) NW 310 ° 0 min 0,000 mm 0,0 UV-I 7 W/m² -3,6 °C 1,6 km/h (1 Bft)
15.11.2016 07:34 -2,8 °C -2,8 °C 95 % 1032,9 hPa 0,0 mm 0,6 km/h (0 Bft) NW 310 ° 0 min 0,000 mm 0,0 UV-I 7 W/m² -3,5 °C 1,6 km/h (1 Bft)
15.11.2016 07:35 -2,8 °C -2,8 °C 95 % 1033,0 hPa 0,0 mm 1,0 km/h (0 Bft) NW 310 ° 0 min 0,000 mm 0,0 UV-I 7 W/m² -3,5 °C 3,2 km/h (1 Bft)
15.11.2016 07:36 -2,8 °C -2,8 °C 95 % 1033,0 hPa 0,0 mm 2,2 km/h (1 Bft) NW 310 ° 0 min 0,000 mm 0,0 UV-I 9 W/m² -3,5 °C 3,2 km/h (1 Bft)
15.11.2016 07:37 -2,8 °C -2,8 °C 95 % 1033,0 hPa 0,0 mm 1,7 km/h (1 Bft) NW 310 ° 0 min 0,000 mm 0,0 UV-I 9 W/m² -3,5 °C 3,2 km/h (1 Bft)
15.11.2016 07:38 -2,8 °C -2,8 °C 95 % 1033,0 hPa 0,0 mm 1,6 km/h (1 Bft) NW 310 ° 0 min 0,000 mm 0,0 UV-I 9 W/m² -3,5 °C 3,2 km/h (1 Bft)
15.11.2016 07:39 -2,8 °C -2,8 °C 95 % 1033,0 hPa 0,0 mm 2,1 km/h (1 Bft) NW 310 ° 0 min 0,000 mm 0,0 UV-I 9 W/m² -3,5 °C 3,2 km/h (1 Bft)
15.11.2016 07:40 -2,8 °C -2,8 °C 95 % 1033,1 hPa 0,0 mm 1,2 km/h (1 Bft) NW 310 ° 0 min 0,000 mm 0,0 UV-I 9 W/m² -3,5 °C 3,2 km/h (1 Bft)
15.11.2016 07:41 -2,8 °C -2,8 °C 95 % 1033,1 hPa 0,0 mm 2,4 km/h (1 Bft) NW 310 ° 0 min 0,000 mm 0,0 UV-I 9 W/m² -3,5 °C 3,2 km/h (1 Bft)
15.11.2016 07:42 -2,8 °C -2,8 °C 95 % 1033,1 hPa 0,0 mm 2,3 km/h (1 Bft) NW 310 ° 0 min 0,000 mm 0,0 UV-I 11 W/m² -3,5 °C 3,2 km/h (1 Bft)
15.11.2016 07:43 -2,8 °C -2,8 °C 95 % 1033,1 hPa 0,0 mm 1,7 km/h (1 Bft) N-NW 345 ° 0 min 0,000 mm 0,0 UV-I 12 W/m² -3,5 °C 3,2 km/h (1 Bft)
15.11.2016 07:44 -2,8 °C -2,8 °C 95 % 1033,1 hPa 0,0 mm 3,6 km/h (1 Bft) N-NW 345 ° 0 min 0,000 mm 0,0 UV-I 12 W/m² -3,5 °C 4,8 km/h (1 Bft)
15.11.2016 07:45 -2,8 °C -2,8 °C 95 % 1033,1 hPa 0,0 mm 2,4 km/h (1 Bft) N-NW 345 ° 0 min 0,000 mm 0,0 UV-I 14 W/m² -3,5 °C 3,2 km/h (1 Bft)
15.11.2016 07:46 -2,8 °C -2,8 °C 95 % 1033,1 hPa 0,0 mm 1,2 km/h (1 Bft) N-NW 345 ° 0 min 0,000 mm 0,0 UV-I 14 W/m² -3,5 °C 3,2 km/h (1 Bft)
15.11.2016 07:47 -2,8 °C -2,8 °C 95 % 1033,1 hPa 0,0 mm 0,0 km/h (0 Bft) N-NW 345 ° 0 min 0,000 mm 0,0 UV-I 14 W/m² -3,5 °C 0,0 km/h (0 Bft)
15.11.2016 07:48 -2,8 °C -2,8 °C 95 % 1033,2 hPa 0,0 mm 1,1 km/h (1 Bft) N-NW 345 ° 0 min 0,000 mm 0,0 UV-I 16 W/m² -3,5 °C 3,2 km/h (1 Bft)
15.11.2016 07:49 -2,8 °C -2,8 °C 95 % 1033,1 hPa 0,0 mm 1,7 km/h (1 Bft) N-NW 345 ° 0 min 0,000 mm 0,0 UV-I 18 W/m² -3,5 °C 3,2 km/h (1 Bft)
15.11.2016 07:50 -2,8 °C -2,8 °C 95 % 1033,1 hPa 0,0 mm 2,0 km/h (1 Bft) N-NW 345 ° 0 min 0,000 mm 0,0 UV-I 18 W/m² -3,5 °C 3,2 km/h (1 Bft)
15.11.2016 07:51 -2,8 °C -2,8 °C 95 % 1033,1 hPa 0,0 mm 0,9 km/h (0 Bft) N-NW 345 ° 0 min 0,000 mm 0,0 UV-I 18 W/m² -3,5 °C 1,6 km/h (1 Bft)
15.11.2016 07:52 -2,8 °C -2,8 °C 95 % 1033,1 hPa 0,0 mm 0,2 km/h (0 Bft) N-NW 345 ° 0 min 0,000 mm 0,0 UV-I 19 W/m² -3,5 °C 1,6 km/h (1 Bft)
15.11.2016 07:53 -2,8 °C -2,8 °C 95 % 1033,1 hPa 0,0 mm 0,5 km/h (0 Bft) N-NW 345 ° 0 min 0,000 mm 0,0 UV-I 18 W/m² -3,5 °C 1,6 km/h (1 Bft)
15.11.2016 07:54 -2,8 °C -2,8 °C 95 % 1033,1 hPa 0,0 mm 1,0 km/h (0 Bft) N-NW 345 ° 0 min 0,000 mm 0,0 UV-I 21 W/m² -3,5 °C 1,6 km/h (1 Bft)
15.11.2016 07:55 -2,8 °C -2,8 °C 95 % 1033,1 hPa 0,0 mm 0,8 km/h (0 Bft) N-NW 345 ° 0 min 0,000 mm 0,0 UV-I 23 W/m² -3,5 °C 1,6 km/h (1 Bft)
15.11.2016 07:56 -2,8 °C -2,8 °C 95 % 1033,1 hPa 0,0 mm 0,3 km/h (0 Bft) N-NW 345 ° 0 min 0,000 mm 0,0 UV-I 25 W/m² -3,5 °C 1,6 km/h (1 Bft)
15.11.2016 07:57 -2,8 °C -2,8 °C 95 % 1033,1 hPa 0,0 mm 0,6 km/h (0 Bft) N-NW 345 ° 0 min 0,000 mm 0,0 UV-I 26 W/m² -3,5 °C 3,2 km/h (1 Bft)
15.11.2016 07:58 -2,8 °C -2,8 °C 95 % 1033,1 hPa 0,0 mm 0,4 km/h (0 Bft) N-NW 345 ° 0 min 0,000 mm 0,0 UV-I 28 W/m² -3,5 °C 3,2 km/h (1 Bft)
15.11.2016 07:59 -2,8 °C -2,8 °C 95 % 1033,1 hPa 0,0 mm 0,7 km/h (0 Bft) N-NW 345 ° 0 min 0,000 mm 0,0 UV-I 26 W/m² -3,5 °C 1,6 km/h (1 Bft)
15.11.2016 08:00 -2,8 °C -2,8 °C 95 % 1033,1 hPa 0,0 mm 3,2 km/h (1 Bft) W-SW 238 ° 0 min 0,000 mm 0,0 UV-I 30 W/m² -3,5 °C 4,8 km/h (1 Bft)
15.11.2016 08:01 -2,8 °C -2,8 °C 95 % 1033,1 hPa 0,0 mm 1,5 km/h (1 Bft) W-SW 238 ° 0 min 0,000 mm 0,0 UV-I 33 W/m² -3,5 °C 3,2 km/h (1 Bft)
15.11.2016 08:02 -2,8 °C -2,8 °C 95 % 1033,1 hPa 0,0 mm 0,0 km/h (0 Bft) W-SW 238 ° 0 min 0,000 mm 0,0 UV-I 33 W/m² -3,5 °C 0,0 km/h (0 Bft)
15.11.2016 08:03 -2,8 °C -2,8 °C 95 % 1033,2 hPa 0,0 mm 0,1 km/h (0 Bft) W-SW 238 ° 0 min 0,000 mm 0,0 UV-I 33 W/m² -3,5 °C 1,6 km/h (1 Bft)
15.11.2016 08:04 -2,8 °C -2,8 °C 95 % 1033,2 hPa 0,0 mm 0,1 km/h (0 Bft) W-SW 238 ° 0 min 0,000 mm 0,0 UV-I 37 W/m² -3,5 °C 1,6 km/h (1 Bft)
15.11.2016 08:05 -2,8 °C -2,8 °C 95 % 1033,2 hPa 0,0 mm 0,4 km/h (0 Bft) W-SW 238 ° 0 min 0,000 mm 0,0 UV-I 40 W/m² -3,5 °C 1,6 km/h (1 Bft)
15.11.2016 08:06 -2,8 °C -2,8 °C 95 % 1033,2 hPa 0,0 mm 0,8 km/h (0 Bft) W-SW 238 ° 0 min 0,000 mm 0,0 UV-I 46 W/m² -3,5 °C 1,6 km/h (1 Bft)
15.11.2016 08:07 -2,8 °C -2,8 °C 95 % 1033,1 hPa 0,0 mm 1,7 km/h (1 Bft) W-SW 238 ° 0 min 0,000 mm 0,0 UV-I 53 W/m² -3,5 °C 3,2 km/h (1 Bft)
15.11.2016 08:08 -2,8 °C -2,8 °C 95 % 1033,2 hPa 0,0 mm 2,0 km/h (1 Bft) W-SW 238 ° 0 min 0,000 mm 0,0 UV-I 54 W/m² -3,5 °C 3,2 km/h (1 Bft)
15.11.2016 08:09 -2,8 °C -2,8 °C 95 % 1033,1 hPa 0,0 mm 1,9 km/h (1 Bft) W-SW 238 ° 1 min 0,000 mm 0,0 UV-I 58 W/m² -3,5 °C 3,2 km/h (1 Bft)
15.11.2016 08:10 -2,8 °C -2,8 °C 95 % 1033,2 hPa 0,0 mm 1,2 km/h (1 Bft) W-SW 238 ° 1 min 0,000 mm 0,0 UV-I 60 W/m² -3,5 °C 1,6 km/h (1 Bft)
15.11.2016 08:11 -2,8 °C -2,8 °C 95 % 1033,1 hPa 0,0 mm 0,5 km/h (0 Bft) W-SW 238 ° 0 min 0,000 mm 0,0 UV-I 56 W/m² -3,5 °C 1,6 km/h (1 Bft)
15.11.2016 08:12 -2,8 °C -2,8 °C 95 % 1033,1 hPa 0,0 mm 0,1 km/h (0 Bft) W-SW 238 ° 1 min 0,000 mm 0,0 UV-I 72 W/m² -3,5 °C 1,6 km/h (1 Bft)
15.11.2016 08:13 -2,8 °C -2,8 °C 95 % 1033,1 hPa 0,0 mm 0,0 km/h (0 Bft) W-SW 238 ° 1 min 0,000 mm 0,0 UV-I 74 W/m² -3,5 °C 0,0 km/h (0 Bft)
15.11.2016 08:14 -2,8 °C -2,8 °C 95 % 1033,1 hPa 0,0 mm 0,0 km/h (0 Bft) W-SW 238 ° 1 min 0,000 mm 0,0 UV-I 67 W/m² -3,5 °C 0,0 km/h (0 Bft)
15.11.2016 08:15 -2,8 °C -2,8 °C 95 % 1033,1 hPa 0,0 mm 0,3 km/h (0 Bft) W-SW 238 ° 0 min 0,000 mm 0,0 UV-I 63 W/m² -3,5 °C 1,6 km/h (1 Bft)
15.11.2016 08:16 -2,8 °C -2,8 °C 95 % 1033,1 hPa 0,0 mm 0,2 km/h (0 Bft) W-SW 238 ° 0 min 0,000 mm 0,0 UV-I 65 W/m² -3,5 °C 1,6 km/h (1 Bft)
15.11.2016 08:17 -2,8 °C -2,8 °C 95 % 1033,1 hPa 0,0 mm 2,2 km/h (1 Bft) W 272 ° 1 min 0,000 mm 0,0 UV-I 69 W/m² -3,5 °C 4,8 km/h (1 Bft)
15.11.2016 08:18 -2,8 °C -2,8 °C 95 % 1033,1 hPa 0,0 mm 4,8 km/h (1 Bft) W 273 ° 0 min 0,000 mm 0,0 UV-I 65 W/m² -3,5 °C 6,4 km/h (2 Bft)
15.11.2016 08:19 -2,7 °C -2,7 °C 95 % 1033,1 hPa 0,0 mm 4,1 km/h (1 Bft) W 264 ° 0 min 0,000 mm 0,0 UV-I 62 W/m² -3,4 °C 6,4 km/h (2 Bft)
15.11.2016 08:20 -2,7 °C -2,7 °C 95 % 1033,2 hPa 0,0 mm 3,1 km/h (1 Bft) W 261 ° 0 min 0,000 mm 0,0 UV-I 60 W/m² -3,4 °C 6,4 km/h (2 Bft)
15.11.2016 08:21 -2,7 °C -2,7 °C 95 % 1033,1 hPa 0,0 mm 3,9 km/h (1 Bft) W 266 ° 0 min 0,000 mm 0,0 UV-I 62 W/m² -3,4 °C 6,4 km/h (2 Bft)
15.11.2016 08:22 -2,7 °C -2,7 °C 95 % 1033,1 hPa 0,0 mm 2,7 km/h (1 Bft) W 266 ° 0 min 0,000 mm 0,0 UV-I 62 W/m² -3,4 °C 4,8 km/h (1 Bft)
15.11.2016 08:23 -2,7 °C -2,7 °C 95 % 1033,0 hPa 0,0 mm 2,5 km/h (1 Bft) W 266 ° 0 min 0,000 mm 0,0 UV-I 62 W/m² -3,4 °C 3,2 km/h (1 Bft)
15.11.2016 08:24 -2,7 °C -2,7 °C 95 % 1033,1 hPa 0,0 mm 3,0 km/h (1 Bft) W 265 ° 0 min 0,000 mm 0,0 UV-I 63 W/m² -3,4 °C 4,8 km/h (1 Bft)
15.11.2016 08:25 -2,7 °C -2,7 °C 95 % 1033,0 hPa 0,0 mm 2,6 km/h (1 Bft) W 265 ° 0 min 0,000 mm 0,0 UV-I 56 W/m² -3,4 °C 3,2 km/h (1 Bft)
15.11.2016 08:26 -2,7 °C -2,7 °C 95 % 1033,0 hPa 0,0 mm 1,8 km/h (1 Bft) W 265 ° 0 min 0,000 mm 0,0 UV-I 56 W/m² -3,4 °C 3,2 km/h (1 Bft)
15.11.2016 08:27 -2,7 °C -2,7 °C 95 % 1033,0 hPa 0,0 mm 2,0 km/h (1 Bft) W 265 ° 0 min 0,000 mm 0,0 UV-I 60 W/m² -3,4 °C 3,2 km/h (1 Bft)
15.11.2016 08:28 -2,7 °C -2,7 °C 95 % 1033,0 hPa 0,0 mm 3,0 km/h (1 Bft) W 265 ° 0 min 0,000 mm 0,0 UV-I 60 W/m² -3,4 °C 4,8 km/h (1 Bft)
15.11.2016 08:29 -2,7 °C -2,7 °C 95 % 1033,0 hPa 0,0 mm 1,7 km/h (1 Bft) W 265 ° 0 min 0,000 mm 0,0 UV-I 76 W/m² -3,4 °C 3,2 km/h (1 Bft)
15.11.2016 08:30 -2,7 °C -2,7 °C 95 % 1033,0 hPa 0,0 mm 2,0 km/h (1 Bft) W 265 ° 0 min 0,000 mm 0,0 UV-I 72 W/m² -3,4 °C 3,2 km/h (1 Bft)
15.11.2016 08:31 -2,7 °C -2,6 °C 95 % 1032,9 hPa 0,0 mm 1,4 km/h (1 Bft) W 265 ° 0 min 0,000 mm 0,0 UV-I 67 W/m² -3,4 °C 3,2 km/h (1 Bft)
15.11.2016 08:32 -2,6 °C -2,6 °C 95 % 1032,9 hPa 0,0 mm 4,5 km/h (1 Bft) W 265 ° 0 min 0,000 mm 0,0 UV-I 65 W/m² -3,3 °C 6,4 km/h (2 Bft)
15.11.2016 08:33 -2,7 °C -2,6 °C 94 % 1032,9 hPa 0,0 mm 3,7 km/h (1 Bft) W-SW 245 ° 0 min 0,000 mm 0,0 UV-I 62 W/m² -3,5 °C 4,8 km/h (1 Bft)
15.11.2016 08:34 -2,7 °C -2,6 °C 94 % 1032,9 hPa 0,0 mm 3,1 km/h (1 Bft) W-SW 245 ° 0 min 0,000 mm 0,0 UV-I 62 W/m² -3,5 °C 4,8 km/h (1 Bft)
15.11.2016 08:35 -2,6 °C -2,6 °C 94 % 1032,9 hPa 0,0 mm 2,3 km/h (1 Bft) W-SW 245 ° 0 min 0,000 mm 0,0 UV-I 65 W/m² -3,4 °C 3,2 km/h (1 Bft)
15.11.2016 08:36 -2,7 °C -2,6 °C 94 % 1032,9 hPa 0,0 mm 2,7 km/h (1 Bft) W-SW 246 ° 0 min 0,000 mm 0,0 UV-I 67 W/m² -3,5 °C 3,2 km/h (1 Bft)
15.11.2016 08:37 -2,6 °C -2,6 °C 94 % 1032,9 hPa 0,0 mm 2,4 km/h (1 Bft) W-SW 246 ° 0 min 0,000 mm 0,0 UV-I 67 W/m² -3,4 °C 3,2 km/h (1 Bft)
15.11.2016 08:38 -2,7 °C -2,6 °C 94 % 1032,9 hPa 0,0 mm 1,2 km/h (1 Bft) W-SW 246 ° 0 min 0,000 mm 0,0 UV-I 69 W/m² -3,5 °C 3,2 km/h (1 Bft)
15.11.2016 08:39 -2,6 °C -2,6 °C 94 % 1032,9 hPa 0,0 mm 0,9 km/h (0 Bft) S 186 ° 0 min 0,000 mm 0,0 UV-I 69 W/m² -3,4 °C 3,2 km/h (1 Bft)
15.11.2016 08:40 -2,6 °C -2,6 °C 94 % 1032,9 hPa 0,0 mm 1,3 km/h (1 Bft) S 186 ° 0 min 0,000 mm 0,0 UV-I 69 W/m² -3,4 °C 4,8 km/h (1 Bft)
15.11.2016 08:41 -2,6 °C -2,6 °C 95 % 1032,9 hPa 0,0 mm 0,9 km/h (0 Bft) S 186 ° 0 min 0,000 mm 0,0 UV-I 69 W/m² -3,3 °C 3,2 km/h (1 Bft)
15.11.2016 08:42 -2,6 °C -2,6 °C 95 % 1032,8 hPa 0,0 mm 4,2 km/h (1 Bft) W-SW 242 ° 0 min 0,000 mm 0,0 UV-I 70 W/m² -3,3 °C 6,4 km/h (2 Bft)
15.11.2016 08:43 -2,6 °C -2,6 °C 95 % 1032,8 hPa 0,0 mm 4,4 km/h (1 Bft) S-SW 199 ° 0 min 0,000 mm 0,0 UV-I 70 W/m² -3,3 °C 8,0 km/h (2 Bft)
15.11.2016 08:44 -2,6 °C -2,6 °C 95 % 1032,7 hPa 0,0 mm 2,8 km/h (1 Bft) SW 225 ° 0 min 0,000 mm 0,0 UV-I 72 W/m² -3,3 °C 3,2 km/h (1 Bft)
15.11.2016 08:45 -2,6 °C -2,6 °C 94 % 1032,7 hPa 0,0 mm 3,3 km/h (1 Bft) SW 233 ° 0 min 0,000 mm 0,0 UV-I 74 W/m² -3,4 °C 4,8 km/h (1 Bft)
15.11.2016 08:46 -2,6 °C -2,6 °C 94 % 1032,7 hPa 0,0 mm 4,6 km/h (1 Bft) SW 227 ° 0 min 0,000 mm 0,0 UV-I 72 W/m² -3,4 °C 8,0 km/h (2 Bft)
15.11.2016 08:47 -2,6 °C -2,6 °C 94 % 1032,7 hPa 0,0 mm 3,8 km/h (1 Bft) S 188 ° 0 min 0,000 mm 0,0 UV-I 70 W/m² -3,4 °C 6,4 km/h (2 Bft)
15.11.2016 08:48 -2,6 °C -2,6 °C 94 % 1032,7 hPa 0,0 mm 5,9 km/h (2 Bft) S-SW 207 ° 0 min 0,000 mm 0,5 UV-I 72 W/m² -3,4 °C 8,0 km/h (2 Bft)
15.11.2016 08:49 -2,6 °C -2,6 °C 94 % 1032,7 hPa 0,0 mm 7,2 km/h (2 Bft) S-SW 211 ° 0 min 0,000 mm 0,5 UV-I 76 W/m² -3,4 °C 9,7 km/h (2 Bft)
15.11.2016 08:50 -2,5 °C -2,5 °C 94 % 1032,7 hPa 0,0 mm 4,7 km/h (1 Bft) S-SW 192 ° 0 min 0,000 mm 0,5 UV-I 77 W/m² -3,3 °C 6,4 km/h (2 Bft)
15.11.2016 08:51 -2,5 °C -2,5 °C 94 % 1032,7 hPa 0,0 mm 4,0 km/h (1 Bft) S-SW 197 ° 0 min 0,000 mm 0,5 UV-I 81 W/m² -3,3 °C 6,4 km/h (2 Bft)
15.11.2016 08:52 -2,4 °C -2,4 °C 94 % 1032,7 hPa 0,0 mm 3,8 km/h (1 Bft) S-SW 192 ° 0 min 0,000 mm 0,5 UV-I 84 W/m² -3,2 °C 6,4 km/h (2 Bft)
15.11.2016 08:53 -2,4 °C -2,4 °C 94 % 1032,7 hPa 0,0 mm 3,2 km/h (1 Bft) S-SW 194 ° 0 min 0,000 mm 0,5 UV-I 84 W/m² -3,2 °C 4,8 km/h (1 Bft)
15.11.2016 08:54 -2,4 °C -2,4 °C 94 % 1032,7 hPa 0,0 mm 2,3 km/h (1 Bft) S-SW 205 ° 0 min 0,000 mm 0,5 UV-I 79 W/m² -3,2 °C 6,4 km/h (2 Bft)
15.11.2016 08:55 -2,4 °C -2,4 °C 94 % 1032,7 hPa 0,0 mm 1,8 km/h (1 Bft) S-SW 200 ° 0 min 0,000 mm 0,5 UV-I 77 W/m² -3,2 °C 4,8 km/h (1 Bft)
15.11.2016 08:56 -2,4 °C -2,4 °C 94 % 1032,7 hPa 0,0 mm 2,6 km/h (1 Bft) S-SW 200 ° 0 min 0,000 mm 0,5 UV-I 79 W/m² -3,2 °C 4,8 km/h (1 Bft)
15.11.2016 08:57 -2,4 °C -2,3 °C 95 % 1032,7 hPa 0,0 mm 3,0 km/h (1 Bft) S-SW 200 ° 0 min 0,000 mm 0,5 UV-I 79 W/m² -3,1 °C 4,8 km/h (1 Bft)
15.11.2016 08:58 -2,3 °C -2,3 °C 94 % 1032,6 hPa 0,0 mm 1,3 km/h (1 Bft) S-SW 200 ° 0 min 0,000 mm 0,5 UV-I 81 W/m² -3,1 °C 3,2 km/h (1 Bft)
15.11.2016 08:59 -2,3 °C -2,3 °C 95 % 1032,7 hPa 0,0 mm 1,2 km/h (1 Bft) S-SW 200 ° 0 min 0,000 mm 0,5 UV-I 81 W/m² -3,0 °C 4,8 km/h (1 Bft)
15.11.2016 09:00 -2,3 °C -2,3 °C 94 % 1032,7 hPa 0,0 mm 3,3 km/h (1 Bft) S-SW 200 ° 0 min 0,000 mm 0,6 UV-I 83 W/m² -3,1 °C 4,8 km/h (1 Bft)
15.11.2016 09:01 -2,2 °C -2,2 °C 94 % 1032,7 hPa 0,0 mm 1,9 km/h (1 Bft) S-SW 200 ° 0 min 0,025 mm 0,6 UV-I 84 W/m² -3,0 °C 3,2 km/h (1 Bft)
15.11.2016 09:02 -2,1 °C -2,1 °C 94 % 1032,6 hPa 0,0 mm 1,9 km/h (1 Bft) S-SW 200 ° 0 min 0,000 mm 0,6 UV-I 86 W/m² -2,9 °C 3,2 km/h (1 Bft)
15.11.2016 09:03 -2,0 °C -2,0 °C 94 % 1032,6 hPa 0,0 mm 0,6 km/h (0 Bft) S-SW 200 ° 0 min 0,000 mm 0,6 UV-I 86 W/m² -2,8 °C 1,6 km/h (1 Bft)
15.11.2016 09:04 -1,9 °C -1,9 °C 94 % 1032,7 hPa 0,0 mm 0,2 km/h (0 Bft) S-SW 200 ° 0 min 0,000 mm 0,6 UV-I 86 W/m² -2,7 °C 1,6 km/h (1 Bft)
15.11.2016 09:05 -1,8 °C -1,8 °C 94 % 1032,7 hPa 0,0 mm 0,9 km/h (0 Bft) S-SW 200 ° 0 min 0,000 mm 0,6 UV-I 86 W/m² -2,6 °C 1,6 km/h (1 Bft)
15.11.2016 09:06 -1,7 °C -1,7 °C 94 % 1032,7 hPa 0,0 mm 1,1 km/h (1 Bft) S-SW 200 ° 0 min 0,000 mm 0,6 UV-I 86 W/m² -2,5 °C 1,6 km/h (1 Bft)
15.11.2016 09:07 -1,7 °C -1,7 °C 94 % 1032,7 hPa 0,0 mm 1,3 km/h (1 Bft) S-SW 200 ° 0 min 0,000 mm 0,6 UV-I 84 W/m² -2,5 °C 1,6 km/h (1 Bft)
15.11.2016 09:08 -1,6 °C -1,6 °C 93 % 1032,7 hPa 0,0 mm 2,1 km/h (1 Bft) S-SW 201 ° 0 min 0,000 mm 0,6 UV-I 81 W/m² -2,6 °C 3,2 km/h (1 Bft)
15.11.2016 09:09 -1,6 °C -1,6 °C 93 % 1032,6 hPa 0,0 mm 1,7 km/h (1 Bft) S-SW 202 ° 0 min 0,000 mm 0,6 UV-I 81 W/m² -2,6 °C 3,2 km/h (1 Bft)
15.11.2016 09:10 -1,6 °C -1,6 °C 93 % 1032,6 hPa 0,0 mm 3,2 km/h (1 Bft) W-SW 240 ° 0 min 0,000 mm 0,6 UV-I 81 W/m² -2,6 °C 3,2 km/h (1 Bft)
15.11.2016 09:11 -1,5 °C -1,5 °C 92 % 1032,6 hPa 0,0 mm 2,9 km/h (1 Bft) W-SW 248 ° 0 min 0,000 mm 0,6 UV-I 83 W/m² -2,6 °C 3,2 km/h (1 Bft)
15.11.2016 09:12 -1,6 °C -1,5 °C 92 % 1032,6 hPa 0,0 mm 3,0 km/h (1 Bft) W-SW 248 ° 0 min 0,000 mm 0,7 UV-I 86 W/m² -2,7 °C 4,8 km/h (1 Bft)
15.11.2016 09:13 -1,5 °C -1,5 °C 92 % 1032,7 hPa 0,0 mm 1,9 km/h (1 Bft) W-SW 254 ° 0 min 0,000 mm 0,7 UV-I 88 W/m² -2,6 °C 4,8 km/h (1 Bft)
15.11.2016 09:14 -1,6 °C -1,5 °C 92 % 1032,6 hPa 0,0 mm 3,2 km/h (1 Bft) W-SW 254 ° 0 min 0,000 mm 0,7 UV-I 88 W/m² -2,7 °C 4,8 km/h (1 Bft)
15.11.2016 09:15 -1,5 °C -1,5 °C 92 % 1032,6 hPa 0,0 mm 2,8 km/h (1 Bft) W-SW 254 ° 0 min 0,000 mm 0,7 UV-I 86 W/m² -2,6 °C 3,2 km/h (1 Bft)
15.11.2016 09:16 -1,5 °C -1,5 °C 92 % 1032,6 hPa 0,0 mm 2,3 km/h (1 Bft) W-SW 254 ° 0 min 0,000 mm 0,7 UV-I 81 W/m² -2,6 °C 3,2 km/h (1 Bft)
15.11.2016 09:17 -1,5 °C -1,5 °C 92 % 1032,6 hPa 0,0 mm 3,4 km/h (1 Bft) W-SW 254 ° 0 min 0,000 mm 0,7 UV-I 76 W/m² -2,6 °C 4,8 km/h (1 Bft)
15.11.2016 09:18 -1,5 °C -1,5 °C 92 % 1032,5 hPa 0,0 mm 3,4 km/h (1 Bft) W-SW 254 ° 0 min 0,000 mm 0,7 UV-I 74 W/m² -2,6 °C 4,8 km/h (1 Bft)
15.11.2016 09:19 -1,5 °C -1,5 °C 92 % 1032,5 hPa 0,0 mm 2,0 km/h (1 Bft) W-SW 254 ° 0 min 0,000 mm 0,7 UV-I 74 W/m² -2,6 °C 3,2 km/h (1 Bft)
15.11.2016 09:20 -1,6 °C -1,5 °C 92 % 1032,4 hPa 0,0 mm 1,6 km/h (1 Bft) S-SW 199 ° 0 min 0,000 mm 0,7 UV-I 74 W/m² -2,7 °C 3,2 km/h (1 Bft)
15.11.2016 09:21 -1,6 °C -1,6 °C 92 % 1032,4 hPa 0,0 mm 1,1 km/h (1 Bft) S-SW 199 ° 0 min 0,000 mm 0,7 UV-I 76 W/m² -2,7 °C 1,6 km/h (1 Bft)
15.11.2016 09:22 -1,5 °C -1,5 °C 92 % 1032,4 hPa 0,0 mm 1,8 km/h (1 Bft) S-SW 200 ° 0 min 0,000 mm 0,7 UV-I 79 W/m² -2,6 °C 3,2 km/h (1 Bft)
15.11.2016 09:23 -1,4 °C -1,4 °C 92 % 1032,4 hPa 0,0 mm 2,0 km/h (1 Bft) SW 229 ° 0 min 0,000 mm 0,7 UV-I 79 W/m² -2,5 °C 3,2 km/h (1 Bft)
15.11.2016 09:24 -1,5 °C -1,4 °C 92 % 1032,5 hPa 0,0 mm 2,0 km/h (1 Bft) SW 229 ° 0 min 0,000 mm 0,7 UV-I 79 W/m² -2,6 °C 3,2 km/h (1 Bft)
15.11.2016 09:25 -1,5 °C -1,4 °C 91 % 1032,5 hPa 0,0 mm 1,5 km/h (1 Bft) SW 229 ° 0 min 0,000 mm 0,8 UV-I 79 W/m² -2,8 °C 3,2 km/h (1 Bft)
15.11.2016 09:26 -1,5 °C -1,4 °C 91 % 1032,5 hPa 0,0 mm 3,1 km/h (1 Bft) W-SW 248 ° 0 min 0,000 mm 0,8 UV-I 81 W/m² -2,8 °C 4,8 km/h (1 Bft)
15.11.2016 09:27 -1,4 °C -1,4 °C 91 % 1032,5 hPa 0,0 mm 1,8 km/h (1 Bft) W-SW 248 ° 0 min 0,000 mm 0,8 UV-I 81 W/m² -2,7 °C 3,2 km/h (1 Bft)
15.11.2016 09:28 -1,4 °C -1,4 °C 92 % 1032,5 hPa 0,0 mm 2,3 km/h (1 Bft) W-SW 248 ° 0 min 0,000 mm 0,8 UV-I 81 W/m² -2,5 °C 3,2 km/h (1 Bft)
15.11.2016 09:29 -1,4 °C -1,4 °C 92 % 1032,5 hPa 0,0 mm 2,1 km/h (1 Bft) W-SW 248 ° 0 min 0,000 mm 0,8 UV-I 81 W/m² -2,5 °C 3,2 km/h (1 Bft)
15.11.2016 09:30 -1,3 °C -1,3 °C 92 % 1032,4 hPa 0,0 mm 2,1 km/h (1 Bft) W-SW 248 ° 0 min 0,000 mm 0,8 UV-I 81 W/m² -2,4 °C 3,2 km/h (1 Bft)
15.11.2016 09:31 -1,3 °C -1,3 °C 92 % 1032,4 hPa 0,0 mm 1,3 km/h (1 Bft) W-SW 248 ° 0 min 0,000 mm 0,8 UV-I 81 W/m² -2,4 °C 3,2 km/h (1 Bft)
15.11.2016 09:32 -1,3 °C -1,3 °C 92 % 1032,4 hPa 0,0 mm 1,5 km/h (1 Bft) W-SW 248 ° 0 min 0,000 mm 0,8 UV-I 81 W/m² -2,4 °C 3,2 km/h (1 Bft)
15.11.2016 09:33 -1,3 °C -1,3 °C 92 % 1032,5 hPa 0,0 mm 0,7 km/h (0 Bft) W-SW 248 ° 0 min 0,000 mm 0,8 UV-I 81 W/m² -2,4 °C 1,6 km/h (1 Bft)
15.11.2016 09:34 -1,3 °C -1,3 °C 92 % 1032,5 hPa 0,0 mm 1,5 km/h (1 Bft) W-SW 248 ° 0 min 0,000 mm 0,8 UV-I 83 W/m² -2,4 °C 1,6 km/h (1 Bft)
15.11.2016 09:35 -1,3 °C -1,3 °C 92 % 1032,5 hPa 0,0 mm 1,6 km/h (1 Bft) W-SW 248 ° 0 min 0,000 mm 0,8 UV-I 86 W/m² -2,4 °C 3,2 km/h (1 Bft)
15.11.2016 09:36 -1,3 °C -1,3 °C 92 % 1032,4 hPa 0,0 mm 1,7 km/h (1 Bft) W-SW 248 ° 0 min 0,000 mm 0,8 UV-I 90 W/m² -2,4 °C 3,2 km/h (1 Bft)
15.11.2016 09:37 -1,3 °C -1,2 °C 92 % 1032,4 hPa 0,0 mm 0,7 km/h (0 Bft) W-SW 248 ° 0 min 0,000 mm 0,8 UV-I 95 W/m² -2,4 °C 1,6 km/h (1 Bft)
15.11.2016 09:38 -1,3 °C -1,2 °C 91 % 1032,5 hPa 0,0 mm 1,4 km/h (1 Bft) W-SW 250 ° 0 min 0,000 mm 0,9 UV-I 100 W/m² -2,6 °C 3,2 km/h (1 Bft)
15.11.2016 09:39 -1,2 °C -1,2 °C 91 % 1032,4 hPa 0,0 mm 2,5 km/h (1 Bft) W-SW 252 ° 0 min 0,000 mm 0,9 UV-I 114 W/m² -2,5 °C 3,2 km/h (1 Bft)
15.11.2016 09:40 -1,2 °C -1,2 °C 91 % 1032,4 hPa 0,0 mm 2,1 km/h (1 Bft) W-SW 252 ° 0 min 0,000 mm 0,9 UV-I 121 W/m² -2,5 °C 3,2 km/h (1 Bft)
15.11.2016 09:41 -1,2 °C -1,2 °C 92 % 1032,4 hPa 0,0 mm 1,4 km/h (1 Bft) W-SW 252 ° 0 min 0,000 mm 0,9 UV-I 125 W/m² -2,3 °C 3,2 km/h (1 Bft)
15.11.2016 09:42 -1,2 °C -1,2 °C 92 % 1032,4 hPa 0,0 mm 1,1 km/h (1 Bft) W-SW 252 ° 0 min 0,000 mm 0,9 UV-I 128 W/m² -2,3 °C 3,2 km/h (1 Bft)
15.11.2016 09:43 -1,2 °C -1,2 °C 91 % 1032,4 hPa 0,0 mm 2,8 km/h (1 Bft) W-SW 252 ° 0 min 0,000 mm 0,9 UV-I 132 W/m² -2,5 °C 3,2 km/h (1 Bft)
15.11.2016 09:44 -1,2 °C -1,2 °C 91 % 1032,5 hPa 0,0 mm 2,7 km/h (1 Bft) W-SW 252 ° 0 min 0,000 mm 0,9 UV-I 139 W/m² -2,5 °C 4,8 km/h (1 Bft)
15.11.2016 09:45 -1,1 °C -1,1 °C 92 % 1032,4 hPa 0,0 mm 1,4 km/h (1 Bft) W-SW 252 ° 0 min 0,000 mm 0,9 UV-I 151 W/m² -2,2 °C 3,2 km/h (1 Bft)
15.11.2016 09:46 -1,1 °C -1,1 °C 92 % 1032,4 hPa 0,0 mm 1,9 km/h (1 Bft) W-SW 252 ° 0 min 0,000 mm 0,9 UV-I 153 W/m² -2,2 °C 3,2 km/h (1 Bft)
15.11.2016 09:47 -1,1 °C -1,1 °C 92 % 1032,5 hPa 0,0 mm 0,1 km/h (0 Bft) W-SW 252 ° 0 min 0,000 mm 0,9 UV-I 156 W/m² -2,2 °C 1,6 km/h (1 Bft)
15.11.2016 09:48 -1,0 °C -1,0 °C 92 % 1032,5 hPa 0,0 mm 2,3 km/h (1 Bft) W-SW 252 ° 0 min 0,000 mm 1,0 UV-I 155 W/m² -2,1 °C 3,2 km/h (1 Bft)
15.11.2016 09:49 -1,0 °C -1,0 °C 92 % 1032,5 hPa 0,0 mm 0,3 km/h (0 Bft) W-SW 252 ° 0 min 0,000 mm 1,0 UV-I 156 W/m² -2,1 °C 1,6 km/h (1 Bft)
15.11.2016 09:50 -0,9 °C -0,9 °C 92 % 1032,5 hPa 0,0 mm 1,2 km/h (1 Bft) W-SW 252 ° 0 min 0,000 mm 1,0 UV-I 155 W/m² -2,0 °C 3,2 km/h (1 Bft)
15.11.2016 09:51 -0,9 °C -0,9 °C 92 % 1032,5 hPa 0,0 mm 3,3 km/h (1 Bft) W 271 ° 0 min 0,000 mm 1,0 UV-I 156 W/m² -2,0 °C 4,8 km/h (1 Bft)
15.11.2016 09:52 -0,8 °C -0,8 °C 92 % 1032,5 hPa 0,0 mm 3,0 km/h (1 Bft) W 281 ° 0 min 0,000 mm 1,0 UV-I 158 W/m² -1,9 °C 4,8 km/h (1 Bft)
15.11.2016 09:53 -0,8 °C -0,8 °C 91 % 1032,5 hPa 0,0 mm 1,8 km/h (1 Bft) W 281 ° 0 min 0,000 mm 1,0 UV-I 158 W/m² -2,1 °C 3,2 km/h (1 Bft)
15.11.2016 09:54 -0,8 °C -0,8 °C 92 % 1032,4 hPa 0,0 mm 3,5 km/h (1 Bft) W 270 ° 0 min 0,000 mm 1,0 UV-I 158 W/m² -1,9 °C 4,8 km/h (1 Bft)
15.11.2016 09:55 -0,7 °C -0,7 °C 92 % 1032,4 hPa 0,0 mm 4,6 km/h (1 Bft) W 263 ° 0 min 0,000 mm 1,0 UV-I 158 W/m² -1,8 °C 6,4 km/h (2 Bft)
15.11.2016 09:56 -0,7 °C -0,7 °C 92 % 1032,4 hPa 0,0 mm 3,5 km/h (1 Bft) W-SW 255 ° 0 min 0,000 mm 1,0 UV-I 156 W/m² -1,8 °C 6,4 km/h (2 Bft)
15.11.2016 09:57 -0,6 °C -0,6 °C 92 % 1032,4 hPa 0,0 mm 3,4 km/h (1 Bft) W 271 ° 0 min 0,000 mm 1,0 UV-I 149 W/m² -1,7 °C 4,8 km/h (1 Bft)
15.11.2016 09:58 -0,6 °C -0,6 °C 92 % 1032,4 hPa 0,0 mm 4,4 km/h (1 Bft) W 261 ° 0 min 0,000 mm 1,0 UV-I 146 W/m² -1,7 °C 6,4 km/h (2 Bft)
15.11.2016 09:59 -0,6 °C -0,6 °C 92 % 1032,3 hPa 0,0 mm 4,4 km/h (1 Bft) W 261 ° 0 min 0,000 mm 1,0 UV-I 141 W/m² -1,7 °C 6,4 km/h (2 Bft)
15.11.2016 10:00 -0,6 °C -0,6 °C 92 % 1032,3 hPa 0,0 mm 4,5 km/h (1 Bft) W 263 ° 0 min 0,000 mm 1,0 UV-I 141 W/m² -1,7 °C 6,4 km/h (2 Bft)
15.11.2016 10:01 -0,6 °C -0,5 °C 92 % 1032,3 hPa 0,0 mm 3,7 km/h (1 Bft) W 278 ° 0 min 0,026 mm 1,0 UV-I 141 W/m² -1,7 °C 4,8 km/h (1 Bft)
15.11.2016 10:02 -0,5 °C -0,5 °C 92 % 1032,4 hPa 0,0 mm 4,1 km/h (1 Bft) W-SW 256 ° 0 min 0,000 mm 1,0 UV-I 139 W/m² -1,6 °C 6,4 km/h (2 Bft)
15.11.2016 10:03 -0,5 °C -0,5 °C 92 % 1032,4 hPa 0,0 mm 3,5 km/h (1 Bft) W-SW 257 ° 0 min 0,000 mm 1,0 UV-I 137 W/m² -1,6 °C 4,8 km/h (1 Bft)
15.11.2016 10:04 -0,4 °C -0,4 °C 92 % 1032,3 hPa 0,0 mm 3,4 km/h (1 Bft) W 276 ° 0 min 0,000 mm 1,0 UV-I 137 W/m² -1,5 °C 6,4 km/h (2 Bft)
15.11.2016 10:05 -0,4 °C -0,4 °C 92 % 1032,3 hPa 0,0 mm 3,5 km/h (1 Bft) W 275 ° 0 min 0,000 mm 1,0 UV-I 135 W/m² -1,5 °C 4,8 km/h (1 Bft)
15.11.2016 10:06 -0,4 °C -0,4 °C 92 % 1032,4 hPa 0,0 mm 3,4 km/h (1 Bft) W 269 ° 0 min 0,000 mm 1,0 UV-I 134 W/m² -1,5 °C 4,8 km/h (1 Bft)
15.11.2016 10:07 -0,4 °C -0,3 °C 92 % 1032,3 hPa 0,0 mm 2,8 km/h (1 Bft) W 269 ° 0 min 0,000 mm 1,0 UV-I 132 W/m² -1,5 °C 3,2 km/h (1 Bft)
15.11.2016 10:08 -0,3 °C -0,3 °C 92 % 1032,3 hPa 0,0 mm 3,4 km/h (1 Bft) W 263 ° 0 min 0,000 mm 1,0 UV-I 130 W/m² -1,4 °C 4,8 km/h (1 Bft)
15.11.2016 10:09 -0,4 °C -0,3 °C 92 % 1032,3 hPa 0,0 mm 3,2 km/h (1 Bft) W-SW 258 ° 0 min 0,000 mm 1,0 UV-I 132 W/m² -1,5 °C 4,8 km/h (1 Bft)
15.11.2016 10:10 -0,3 °C -0,3 °C 92 % 1032,3 hPa 0,0 mm 3,5 km/h (1 Bft) W-SW 246 ° 0 min 0,000 mm 1,1 UV-I 132 W/m² -1,4 °C 4,8 km/h (1 Bft)
15.11.2016 10:11 -0,3 °C -0,3 °C 92 % 1032,2 hPa 0,0 mm 2,8 km/h (1 Bft) W 265 ° 0 min 0,000 mm 1,1 UV-I 132 W/m² -1,4 °C 3,2 km/h (1 Bft)
15.11.2016 10:12 -0,3 °C -0,3 °C 92 % 1032,2 hPa 0,0 mm 3,6 km/h (1 Bft) W 265 ° 0 min 0,000 mm 1,0 UV-I 128 W/m² -1,4 °C 4,8 km/h (1 Bft)
15.11.2016 10:13 -0,3 °C -0,3 °C 92 % 1032,2 hPa 0,0 mm 3,3 km/h (1 Bft) W 265 ° 0 min 0,000 mm 1,0 UV-I 125 W/m² -1,4 °C 4,8 km/h (1 Bft)
15.11.2016 10:14 -0,3 °C -0,3 °C 92 % 1032,2 hPa 0,0 mm 3,0 km/h (1 Bft) W 273 ° 0 min 0,000 mm 1,0 UV-I 121 W/m² -1,4 °C 4,8 km/h (1 Bft)
15.11.2016 10:15 -0,2 °C -0,2 °C 92 % 1032,3 hPa 0,0 mm 3,0 km/h (1 Bft) W 273 ° 0 min 0,000 mm 1,0 UV-I 120 W/m² -1,3 °C 4,8 km/h (1 Bft)
15.11.2016 10:16 -0,2 °C -0,2 °C 92 % 1032,2 hPa 0,0 mm 0,5 km/h (0 Bft) W 273 ° 0 min 0,000 mm 1,1 UV-I 123 W/m² -1,3 °C 1,6 km/h (1 Bft)
15.11.2016 10:17 -0,2 °C -0,1 °C 92 % 1032,3 hPa 0,0 mm 1,7 km/h (1 Bft) W 273 ° 0 min 0,000 mm 1,1 UV-I 125 W/m² -1,3 °C 3,2 km/h (1 Bft)
15.11.2016 10:18 -0,1 °C -0,1 °C 92 % 1032,3 hPa 0,0 mm 2,6 km/h (1 Bft) W 273 ° 0 min 0,000 mm 1,1 UV-I 125 W/m² -1,2 °C 3,2 km/h (1 Bft)
15.11.2016 10:19 -0,1 °C -0,1 °C 92 % 1032,3 hPa 0,0 mm 2,7 km/h (1 Bft) W 273 ° 0 min 0,000 mm 1,1 UV-I 121 W/m² -1,2 °C 4,8 km/h (1 Bft)
15.11.2016 10:20 -0,1 °C -0,1 °C 92 % 1032,3 hPa 0,0 mm 2,1 km/h (1 Bft) W 273 ° 0 min 0,000 mm 1,1 UV-I 118 W/m² -1,2 °C 3,2 km/h (1 Bft)
15.11.2016 10:21 -0,1 °C -0,1 °C 91 % 1032,4 hPa 0,0 mm 3,8 km/h (1 Bft) W 262 ° 0 min 0,000 mm 1,1 UV-I 121 W/m² -1,4 °C 4,8 km/h (1 Bft)
15.11.2016 10:22 -0,1 °C -0,1 °C 91 % 1032,4 hPa 0,0 mm 2,3 km/h (1 Bft) W 262 ° 0 min 0,000 mm 1,1 UV-I 127 W/m² -1,4 °C 3,2 km/h (1 Bft)
15.11.2016 10:23 -0,1 °C -0,1 °C 91 % 1032,4 hPa 0,0 mm 1,5 km/h (1 Bft) W 262 ° 0 min 0,000 mm 1,1 UV-I 128 W/m² -1,4 °C 3,2 km/h (1 Bft)
15.11.2016 10:24 -0,1 °C -0,1 °C 91 % 1032,3 hPa 0,0 mm 2,6 km/h (1 Bft) W 262 ° 0 min 0,000 mm 1,1 UV-I 130 W/m² -1,4 °C 3,2 km/h (1 Bft)
15.11.2016 10:25 -0,1 °C 0,0 °C 91 % 1032,4 hPa 0,0 mm 3,2 km/h (1 Bft) W 262 ° 0 min 0,000 mm 1,2 UV-I 132 W/m² -1,4 °C 4,8 km/h (1 Bft)
15.11.2016 10:26 0,0 °C 0,0 °C 91 % 1032,4 hPa 0,0 mm 2,8 km/h (1 Bft) W 262 ° 0 min 0,000 mm 1,2 UV-I 128 W/m² -1,3 °C 4,8 km/h (1 Bft)
15.11.2016 10:27 0,1 °C 0,1 °C 91 % 1032,4 hPa 0,0 mm 2,0 km/h (1 Bft) W 262 ° 0 min 0,000 mm 1,2 UV-I 127 W/m² -1,2 °C 3,2 km/h (1 Bft)
15.11.2016 10:28 0,1 °C 0,1 °C 90 % 1032,4 hPa 0,0 mm 3,1 km/h (1 Bft) W 262 ° 0 min 0,000 mm 1,2 UV-I 125 W/m² -1,3 °C 4,8 km/h (1 Bft)
15.11.2016 10:29 0,1 °C 0,1 °C 90 % 1032,4 hPa 0,0 mm 1,9 km/h (1 Bft) W 262 ° 0 min 0,000 mm 1,2 UV-I 120 W/m² -1,3 °C 3,2 km/h (1 Bft)
15.11.2016 10:30 0,1 °C 0,1 °C 90 % 1032,4 hPa 0,0 mm 1,7 km/h (1 Bft) W 262 ° 0 min 0,000 mm 1,2 UV-I 118 W/m² -1,3 °C 4,8 km/h (1 Bft)
15.11.2016 10:31 0,1 °C 0,1 °C 91 % 1032,5 hPa 0,0 mm 2,8 km/h (1 Bft) W 262 ° 0 min 0,000 mm 1,2 UV-I 113 W/m² -1,2 °C 4,8 km/h (1 Bft)
15.11.2016 10:32 0,2 °C 0,2 °C 91 % 1032,5 hPa 0,0 mm 2,3 km/h (1 Bft) W 262 ° 0 min 0,000 mm 1,2 UV-I 100 W/m² -1,1 °C 3,2 km/h (1 Bft)
15.11.2016 10:33 0,2 °C 0,2 °C 91 % 1032,5 hPa 0,0 mm 3,8 km/h (1 Bft) W 262 ° 0 min 0,000 mm 1,1 UV-I 95 W/m² -1,1 °C 4,8 km/h (1 Bft)
15.11.2016 10:34 0,2 °C 0,2 °C 91 % 1032,4 hPa 0,0 mm 3,1 km/h (1 Bft) W 262 ° 0 min 0,000 mm 1,1 UV-I 88 W/m² -1,1 °C 4,8 km/h (1 Bft)
15.11.2016 10:35 0,2 °C 0,2 °C 91 % 1032,4 hPa 0,0 mm 2,9 km/h (1 Bft) W 262 ° 0 min 0,000 mm 1,1 UV-I 81 W/m² -1,1 °C 3,2 km/h (1 Bft)
15.11.2016 10:36 0,1 °C 0,2 °C 91 % 1032,4 hPa 0,0 mm 2,1 km/h (1 Bft) W 262 ° 0 min 0,000 mm 1,1 UV-I 70 W/m² -1,2 °C 3,2 km/h (1 Bft)
15.11.2016 10:37 0,1 °C 0,2 °C 91 % 1032,4 hPa 0,0 mm 0,4 km/h (0 Bft) W 262 ° 0 min 0,000 mm 1,1 UV-I 60 W/m² -1,2 °C 1,6 km/h (1 Bft)
15.11.2016 10:38 0,2 °C 0,2 °C 91 % 1032,4 hPa 0,0 mm 1,5 km/h (1 Bft) W 262 ° 0 min 0,000 mm 0,0 UV-I 51 W/m² -1,1 °C 3,2 km/h (1 Bft)
15.11.2016 10:39 0,1 °C 0,2 °C 91 % 1032,4 hPa 0,0 mm 2,2 km/h (1 Bft) W 262 ° 0 min 0,000 mm 0,0 UV-I 39 W/m² -1,2 °C 3,2 km/h (1 Bft)
15.11.2016 10:40 0,2 °C 0,2 °C 91 % 1032,5 hPa 0,0 mm 2,0 km/h (1 Bft) W 262 ° 0 min 0,000 mm 0,0 UV-I 37 W/m² -1,1 °C 3,2 km/h (1 Bft)
15.11.2016 10:41 0,1 °C 0,2 °C 91 % 1032,5 hPa 0,0 mm 2,8 km/h (1 Bft) W 262 ° 0 min 0,000 mm 0,0 UV-I 39 W/m² -1,2 °C 3,2 km/h (1 Bft)
15.11.2016 10:42 0,1 °C 0,1 °C 91 % 1032,5 hPa 0,0 mm 2,7 km/h (1 Bft) W 262 ° 0 min 0,000 mm 0,0 UV-I 39 W/m² -1,2 °C 3,2 km/h (1 Bft)
15.11.2016 10:43 0,1 °C 0,2 °C 91 % 1032,5 hPa 0,0 mm 1,0 km/h (0 Bft) W 262 ° 0 min 0,000 mm 0,0 UV-I 42 W/m² -1,2 °C 3,2 km/h (1 Bft)
15.11.2016 10:44 0,2 °C 0,2 °C 91 % 1032,5 hPa 0,0 mm 1,3 km/h (1 Bft) W 262 ° 0 min 0,000 mm 0,0 UV-I 49 W/m² -1,1 °C 3,2 km/h (1 Bft)
15.11.2016 10:45 0,2 °C 0,2 °C 91 % 1032,6 hPa 0,0 mm 0,0 km/h (0 Bft) W 262 ° 0 min 0,000 mm 0,0 UV-I 53 W/m² -1,1 °C 0,0 km/h (0 Bft)
15.11.2016 10:46 0,2 °C 0,2 °C 91 % 1032,5 hPa 0,0 mm 0,9 km/h (0 Bft) W 262 ° 0 min 0,000 mm 0,0 UV-I 51 W/m² -1,1 °C 3,2 km/h (1 Bft)
15.11.2016 10:47 0,1 °C 0,2 °C 91 % 1032,5 hPa 0,0 mm 1,7 km/h (1 Bft) W 262 ° 0 min 0,000 mm 0,0 UV-I 47 W/m² -1,2 °C 3,2 km/h (1 Bft)
15.11.2016 10:48 0,1 °C 0,1 °C 91 % 1032,5 hPa 0,0 mm 0,1 km/h (0 Bft) W 262 ° 0 min 0,000 mm 0,0 UV-I 44 W/m² -1,2 °C 1,6 km/h (1 Bft)
15.11.2016 10:49 0,1 °C 0,1 °C 91 % 1032,5 hPa 0,0 mm 0,2 km/h (0 Bft) W 262 ° 0 min 0,000 mm 0,0 UV-I 40 W/m² -1,2 °C 1,6 km/h (1 Bft)
15.11.2016 10:50 0,1 °C 0,1 °C 91 % 1032,5 hPa 0,0 mm 0,0 km/h (0 Bft) W 262 ° 0 min 0,000 mm 0,0 UV-I 40 W/m² -1,2 °C 0,0 km/h (0 Bft)
15.11.2016 10:51 0,1 °C 0,1 °C 91 % 1032,5 hPa 0,0 mm 0,0 km/h (0 Bft) W 262 ° 0 min 0,000 mm 0,0 UV-I 40 W/m² -1,2 °C 0,0 km/h (0 Bft)
15.11.2016 10:52 0,1 °C 0,1 °C 91 % 1032,5 hPa 0,0 mm 0,3 km/h (0 Bft) W 262 ° 0 min 0,000 mm 0,0 UV-I 44 W/m² -1,2 °C 1,6 km/h (1 Bft)
15.11.2016 10:53 0,1 °C 0,1 °C 92 % 1032,4 hPa 0,0 mm 0,9 km/h (0 Bft) W 262 ° 0 min 0,000 mm 0,0 UV-I 47 W/m² -1,0 °C 1,6 km/h (1 Bft)
15.11.2016 10:54 0,1 °C 0,1 °C 92 % 1032,5 hPa 0,0 mm 0,8 km/h (0 Bft) W 262 ° 0 min 0,000 mm 0,0 UV-I 49 W/m² -1,0 °C 1,6 km/h (1 Bft)
15.11.2016 10:55 0,1 °C 0,1 °C 92 % 1032,5 hPa 0,0 mm 1,0 km/h (0 Bft) W 262 ° 0 min 0,000 mm 0,0 UV-I 49 W/m² -1,0 °C 1,6 km/h (1 Bft)
15.11.2016 10:56 0,1 °C 0,1 °C 92 % 1032,5 hPa 0,0 mm 0,5 km/h (0 Bft) W 262 ° 0 min 0,000 mm 0,0 UV-I 47 W/m² -1,0 °C 1,6 km/h (1 Bft)
15.11.2016 10:57 0,1 °C 0,2 °C 92 % 1032,5 hPa 0,0 mm 0,4 km/h (0 Bft) W 262 ° 0 min 0,000 mm 0,0 UV-I 44 W/m² -1,0 °C 1,6 km/h (1 Bft)
15.11.2016 10:58 0,2 °C 0,2 °C 91 % 1032,5 hPa 0,0 mm 0,1 km/h (0 Bft) W 262 ° 0 min 0,000 mm 0,0 UV-I 42 W/m² -1,1 °C 1,6 km/h (1 Bft)
15.11.2016 10:59 0,3 °C 0,3 °C 91 % 1032,4 hPa 0,0 mm 0,1 km/h (0 Bft) W 262 ° 0 min 0,000 mm 0,0 UV-I 40 W/m² -1,0 °C 1,6 km/h (1 Bft)
15.11.2016 11:00 0,3 °C 0,3 °C 91 % 1032,5 hPa 0,0 mm 0,2 km/h (0 Bft) W 262 ° 0 min 0,000 mm 0,0 UV-I 40 W/m² -1,0 °C 1,6 km/h (1 Bft)
15.11.2016 11:01 0,3 °C 0,3 °C 91 % 1032,5 hPa 0,0 mm 0,0 km/h (0 Bft) W 262 ° 0 min 0,025 mm 0,0 UV-I 39 W/m² -1,0 °C 0,0 km/h (0 Bft)
15.11.2016 11:02 0,3 °C 0,4 °C 91 % 1032,4 hPa 0,0 mm 0,0 km/h (0 Bft) W 262 ° 0 min 0,000 mm 0,0 UV-I 39 W/m² -1,0 °C 0,0 km/h (0 Bft)
15.11.2016 11:03 0,4 °C 0,4 °C 91 % 1032,5 hPa 0,0 mm 1,0 km/h (0 Bft) W 261 ° 0 min 0,000 mm 0,0 UV-I 39 W/m² -0,9 °C 1,6 km/h (1 Bft)
15.11.2016 11:04 0,4 °C 0,4 °C 91 % 1032,5 hPa 0,0 mm 1,3 km/h (1 Bft) W 261 ° 0 min 0,000 mm 0,0 UV-I 40 W/m² -0,9 °C 3,2 km/h (1 Bft)
15.11.2016 11:05 0,4 °C 0,4 °C 91 % 1032,5 hPa 0,0 mm 0,5 km/h (0 Bft) W 261 ° 0 min 0,000 mm 0,0 UV-I 42 W/m² -0,9 °C 1,6 km/h (1 Bft)
15.11.2016 11:06 0,4 °C 0,4 °C 91 % 1032,5 hPa 0,0 mm 1,5 km/h (1 Bft) W 261 ° 0 min 0,000 mm 0,0 UV-I 44 W/m² -0,9 °C 3,2 km/h (1 Bft)
15.11.2016 11:07 0,4 °C 0,4 °C 91 % 1032,5 hPa 0,0 mm 1,3 km/h (1 Bft) W 261 ° 0 min 0,000 mm 0,0 UV-I 44 W/m² -0,9 °C 1,6 km/h (1 Bft)
15.11.2016 11:08 0,4 °C 0,4 °C 92 % 1032,5 hPa 0,0 mm 1,2 km/h (1 Bft) W 261 ° 0 min 0,000 mm 0,0 UV-I 44 W/m² -0,7 °C 1,6 km/h (1 Bft)
15.11.2016 11:09 0,4 °C 0,4 °C 92 % 1032,5 hPa 0,0 mm 0,0 km/h (0 Bft) W 261 ° 0 min 0,000 mm 0,0 UV-I 44 W/m² -0,7 °C 0,0 km/h (0 Bft)
15.11.2016 11:10 0,4 °C 0,4 °C 91 % 1032,5 hPa 0,0 mm 1,3 km/h (1 Bft) W 261 ° 0 min 0,000 mm 0,0 UV-I 46 W/m² -0,9 °C 3,2 km/h (1 Bft)
15.11.2016 11:11 0,5 °C 0,5 °C 91 % 1032,5 hPa 0,0 mm 2,3 km/h (1 Bft) W 261 ° 0 min 0,000 mm 0,0 UV-I 46 W/m² -0,8 °C 3,2 km/h (1 Bft)
15.11.2016 11:12 0,5 °C 0,5 °C 91 % 1032,5 hPa 0,0 mm 1,1 km/h (1 Bft) W 261 ° 0 min 0,000 mm 0,0 UV-I 46 W/m² -0,8 °C 3,2 km/h (1 Bft)
15.11.2016 11:13 0,6 °C 0,6 °C 91 % 1032,5 hPa 0,0 mm 1,4 km/h (1 Bft) W 261 ° 0 min 0,000 mm 0,0 UV-I 46 W/m² -0,7 °C 1,6 km/h (1 Bft)
15.11.2016 11:14 0,7 °C 0,7 °C 91 % 1032,5 hPa 0,0 mm 0,5 km/h (0 Bft) W 261 ° 0 min 0,000 mm 0,0 UV-I 47 W/m² -0,6 °C 1,6 km/h (1 Bft)
15.11.2016 11:15 0,7 °C 0,7 °C 91 % 1032,5 hPa 0,0 mm 0,6 km/h (0 Bft) W 261 ° 0 min 0,000 mm 0,0 UV-I 49 W/m² -0,6 °C 1,6 km/h (1 Bft)
15.11.2016 11:16 0,7 °C 0,7 °C 91 % 1032,5 hPa 0,0 mm 1,1 km/h (1 Bft) W 261 ° 0 min 0,000 mm 1,2 UV-I 56 W/m² -0,6 °C 1,6 km/h (1 Bft)
15.11.2016 11:17 0,7 °C 0,7 °C 91 % 1032,6 hPa 0,0 mm 1,5 km/h (1 Bft) S 181 ° 0 min 0,000 mm 1,2 UV-I 65 W/m² -0,6 °C 3,2 km/h (1 Bft)
15.11.2016 11:18 0,8 °C 0,8 °C 91 % 1032,5 hPa 0,0 mm 0,5 km/h (0 Bft) S 181 ° 0 min 0,000 mm 1,3 UV-I 77 W/m² -0,5 °C 1,6 km/h (1 Bft)
15.11.2016 11:19 0,8 °C 0,8 °C 91 % 1032,6 hPa 0,0 mm 0,4 km/h (0 Bft) S 181 ° 0 min 0,000 mm 1,3 UV-I 107 W/m² -0,5 °C 1,6 km/h (1 Bft)
15.11.2016 11:20 0,9 °C 0,9 °C 91 % 1032,6 hPa 0,0 mm 0,5 km/h (0 Bft) S 181 ° 0 min 0,000 mm 1,4 UV-I 123 W/m² -0,4 °C 1,6 km/h (1 Bft)
15.11.2016 11:21 0,9 °C 0,9 °C 91 % 1032,5 hPa 0,0 mm 0,0 km/h (0 Bft) S 181 ° 0 min 0,000 mm 1,4 UV-I 135 W/m² -0,4 °C 0,0 km/h (0 Bft)
15.11.2016 11:22 0,9 °C 0,9 °C 92 % 1032,5 hPa 0,0 mm 0,0 km/h (0 Bft) S 181 ° 0 min 0,000 mm 1,4 UV-I 144 W/m² -0,2 °C 0,0 km/h (0 Bft)
15.11.2016 11:23 1,0 °C 1,0 °C 91 % 1032,5 hPa 0,0 mm 2,0 km/h (1 Bft) SO 138 ° 0 min 0,000 mm 1,4 UV-I 153 W/m² -0,3 °C 3,2 km/h (1 Bft)
15.11.2016 11:24 1,1 °C 1,1 °C 91 % 1032,5 hPa 0,0 mm 2,2 km/h (1 Bft) SO 138 ° 0 min 0,000 mm 1,4 UV-I 158 W/m² -0,2 °C 4,8 km/h (1 Bft)
15.11.2016 11:25 1,1 °C 1,1 °C 91 % 1032,5 hPa 0,0 mm 2,1 km/h (1 Bft) SO 138 ° 0 min 0,000 mm 1,4 UV-I 167 W/m² -0,2 °C 3,2 km/h (1 Bft)
15.11.2016 11:26 1,2 °C 1,2 °C 91 % 1032,5 hPa 0,0 mm 0,3 km/h (0 Bft) SO 138 ° 0 min 0,000 mm 1,4 UV-I 169 W/m² -0,1 °C 1,6 km/h (1 Bft)
15.11.2016 11:27 1,3 °C 1,3 °C 91 % 1032,5 hPa 0,0 mm 0,1 km/h (0 Bft) SO 138 ° 0 min 0,000 mm 1,4 UV-I 171 W/m² -0,0 °C 1,6 km/h (1 Bft)
15.11.2016 11:28 1,4 °C 1,4 °C 91 % 1032,5 hPa 0,0 mm 0,1 km/h (0 Bft) SO 138 ° 0 min 0,000 mm 1,4 UV-I 169 W/m² 0,1 °C 1,6 km/h (1 Bft)
15.11.2016 11:29 1,4 °C 1,4 °C 90 % 1032,5 hPa 0,0 mm 0,3 km/h (0 Bft) SO 138 ° 0 min 0,000 mm 1,4 UV-I 167 W/m² -0,1 °C 1,6 km/h (1 Bft)
15.11.2016 11:30 1,4 °C 1,4 °C 90 % 1032,6 hPa 0,0 mm 0,4 km/h (0 Bft) SO 138 ° 0 min 0,000 mm 1,4 UV-I 165 W/m² -0,1 °C 1,6 km/h (1 Bft)
15.11.2016 11:31 1,4 °C 1,4 °C 91 % 1032,5 hPa 0,0 mm 0,1 km/h (0 Bft) SO 138 ° 0 min 0,000 mm 1,3 UV-I 160 W/m² 0,1 °C 1,6 km/h (1 Bft)
15.11.2016 11:32 1,3 °C 1,4 °C 91 % 1032,5 hPa 0,0 mm 0,1 km/h (0 Bft) SO 138 ° 0 min 0,000 mm 1,3 UV-I 156 W/m² -0,0 °C 1,6 km/h (1 Bft)
15.11.2016 11:33 1,3 °C 1,3 °C 90 % 1032,5 hPa 0,0 mm 0,0 km/h (0 Bft) SO 138 ° 0 min 0,000 mm 1,3 UV-I 155 W/m² -0,2 °C 0,0 km/h (0 Bft)
15.11.2016 11:34 1,4 °C 1,4 °C 90 % 1032,5 hPa 0,0 mm 0,1 km/h (0 Bft) SO 138 ° 0 min 0,000 mm 1,4 UV-I 156 W/m² -0,1 °C 1,6 km/h (1 Bft)
15.11.2016 11:35 1,4 °C 1,4 °C 90 % 1032,5 hPa 0,0 mm 1,3 km/h (1 Bft) SO 138 ° 0 min 0,000 mm 1,4 UV-I 162 W/m² -0,1 °C 3,2 km/h (1 Bft)
15.11.2016 11:36 1,5 °C 1,5 °C 90 % 1032,5 hPa 0,0 mm 2,3 km/h (1 Bft) SO 138 ° 0 min 0,000 mm 1,4 UV-I 185 W/m² 0,0 °C 3,2 km/h (1 Bft)
15.11.2016 11:37 1,6 °C 1,6 °C 89 % 1032,4 hPa 0,0 mm 2,3 km/h (1 Bft) SO 138 ° 0 min 0,000 mm 1,5 UV-I 197 W/m² -0,0 °C 3,2 km/h (1 Bft)
15.11.2016 11:38 1,6 °C 1,6 °C 90 % 1032,4 hPa 0,0 mm 2,5 km/h (1 Bft) SO 138 ° 0 min 0,000 mm 1,5 UV-I 206 W/m² 0,1 °C 3,2 km/h (1 Bft)
15.11.2016 11:39 1,6 °C 1,6 °C 90 % 1032,4 hPa 0,0 mm 3,4 km/h (1 Bft) SO 138 ° 0 min 0,000 mm 1,5 UV-I 211 W/m² 0,1 °C 4,8 km/h (1 Bft)
15.11.2016 11:40 1,6 °C 1,6 °C 91 % 1032,4 hPa 0,0 mm 1,6 km/h (1 Bft) SO 138 ° 0 min 0,000 mm 1,5 UV-I 207 W/m² 0,3 °C 3,2 km/h (1 Bft)
15.11.2016 11:41 1,6 °C 1,6 °C 91 % 1032,4 hPa 0,0 mm 1,7 km/h (1 Bft) SO 138 ° 0 min 0,000 mm 1,4 UV-I 199 W/m² 0,3 °C 3,2 km/h (1 Bft)
15.11.2016 11:42 1,6 °C 1,6 °C 92 % 1032,3 hPa 0,0 mm 1,1 km/h (1 Bft) SO 138 ° 0 min 0,000 mm 1,4 UV-I 188 W/m² 0,4 °C 3,2 km/h (1 Bft)
15.11.2016 11:43 1,7 °C 1,7 °C 92 % 1032,4 hPa 0,0 mm 1,7 km/h (1 Bft) SO 138 ° 0 min 0,000 mm 1,4 UV-I 176 W/m² 0,5 °C 3,2 km/h (1 Bft)
15.11.2016 11:44 1,7 °C 1,7 °C 91 % 1032,3 hPa 0,0 mm 2,8 km/h (1 Bft) SO 138 ° 0 min 0,000 mm 1,4 UV-I 174 W/m² 0,4 °C 3,2 km/h (1 Bft)
15.11.2016 11:45 1,8 °C 1,8 °C 89 % 1032,3 hPa 0,0 mm 2,4 km/h (1 Bft) SO 138 ° 0 min 0,000 mm 1,4 UV-I 176 W/m² 0,2 °C 3,2 km/h (1 Bft)
15.11.2016 11:46 1,9 °C 1,9 °C 91 % 1032,4 hPa 0,0 mm 0,2 km/h (0 Bft) SO 138 ° 0 min 0,000 mm 1,4 UV-I 181 W/m² 0,6 °C 1,6 km/h (1 Bft)
15.11.2016 11:47 1,9 °C 1,9 °C 91 % 1032,3 hPa 0,0 mm 0,0 km/h (0 Bft) SO 138 ° 0 min 0,000 mm 1,4 UV-I 186 W/m² 0,6 °C 0,0 km/h (0 Bft)
15.11.2016 11:48 1,9 °C 1,9 °C 90 % 1032,4 hPa 0,0 mm 0,9 km/h (0 Bft) SO 138 ° 0 min 0,000 mm 1,4 UV-I 192 W/m² 0,4 °C 1,6 km/h (1 Bft)
15.11.2016 11:49 2,0 °C 2,0 °C 91 % 1032,4 hPa 0,0 mm 2,0 km/h (1 Bft) SO 138 ° 0 min 0,000 mm 1,4 UV-I 195 W/m² 0,7 °C 3,2 km/h (1 Bft)
15.11.2016 11:50 2,0 °C 2,1 °C 91 % 1032,3 hPa 0,0 mm 1,1 km/h (1 Bft) SO 138 ° 0 min 0,000 mm 1,4 UV-I 200 W/m² 0,7 °C 3,2 km/h (1 Bft)
15.11.2016 11:51 2,0 °C 2,0 °C 90 % 1032,3 hPa 0,0 mm 0,0 km/h (0 Bft) SO 138 ° 0 min 0,000 mm 1,4 UV-I 207 W/m² 0,5 °C 0,0 km/h (0 Bft)
15.11.2016 11:52 2,0 °C 2,1 °C 90 % 1032,3 hPa 0,0 mm 0,1 km/h (0 Bft) SO 138 ° 0 min 0,000 mm 1,5 UV-I 214 W/m² 0,5 °C 1,6 km/h (1 Bft)
15.11.2016 11:53 2,1 °C 2,1 °C 89 % 1032,3 hPa 0,0 mm 0,3 km/h (0 Bft) SO 138 ° 0 min 0,000 mm 1,5 UV-I 220 W/m² 0,5 °C 1,6 km/h (1 Bft)
15.11.2016 11:54 2,2 °C 2,2 °C 88 % 1032,3 hPa 0,0 mm 0,3 km/h (0 Bft) SO 138 ° 0 min 0,000 mm 1,4 UV-I 216 W/m² 0,4 °C 1,6 km/h (1 Bft)
15.11.2016 11:55 2,3 °C 2,3 °C 88 % 1032,3 hPa 0,0 mm 1,0 km/h (0 Bft) SO 138 ° 0 min 0,000 mm 1,4 UV-I 211 W/m² 0,5 °C 3,2 km/h (1 Bft)
15.11.2016 11:56 2,3 °C 2,3 °C 87 % 1032,3 hPa 0,0 mm 0,3 km/h (0 Bft) SO 138 ° 0 min 0,000 mm 1,4 UV-I 204 W/m² 0,4 °C 1,6 km/h (1 Bft)
15.11.2016 11:57 2,4 °C 2,4 °C 86 % 1032,2 hPa 0,0 mm 0,4 km/h (0 Bft) SO 138 ° 0 min 0,000 mm 1,4 UV-I 199 W/m² 0,3 °C 1,6 km/h (1 Bft)
15.11.2016 11:58 2,5 °C 2,5 °C 86 % 1032,2 hPa 0,0 mm 0,6 km/h (0 Bft) SO 138 ° 0 min 0,000 mm 1,4 UV-I 195 W/m² 0,4 °C 1,6 km/h (1 Bft)
15.11.2016 11:59 2,5 °C 2,6 °C 85 % 1032,2 hPa 0,0 mm 0,3 km/h (0 Bft) SO 138 ° 0 min 0,000 mm 1,4 UV-I 193 W/m² 0,2 °C 1,6 km/h (1 Bft)
15.11.2016 12:00 2,5 °C 2,6 °C 85 % 1032,1 hPa 0,0 mm 0,1 km/h (0 Bft) SO 138 ° 0 min 0,000 mm 1,4 UV-I 200 W/m² 0,2 °C 1,6 km/h (1 Bft)
15.11.2016 12:01 2,6 °C 2,6 °C 85 % 1032,2 hPa 0,0 mm 0,0 km/h (0 Bft) SO 138 ° 0 min 0,051 mm 1,4 UV-I 207 W/m² 0,3 °C 0,0 km/h (0 Bft)
15.11.2016 12:02 2,6 °C 2,6 °C 85 % 1032,2 hPa 0,0 mm 0,0 km/h (0 Bft) SO 138 ° 0 min 0,000 mm 1,4 UV-I 214 W/m² 0,3 °C 0,0 km/h (0 Bft)
15.11.2016 12:03 2,7 °C 2,7 °C 87 % 1032,2 hPa 0,0 mm 0,0 km/h (0 Bft) SO 138 ° 0 min 0,000 mm 1,4 UV-I 221 W/m² 0,8 °C 0,0 km/h (0 Bft)
15.11.2016 12:04 2,7 °C 2,7 °C 88 % 1032,2 hPa 0,0 mm 0,9 km/h (0 Bft) SO 138 ° 1 min 0,000 mm 1,4 UV-I 225 W/m² 0,9 °C 1,6 km/h (1 Bft)
15.11.2016 12:05 2,7 °C 2,7 °C 87 % 1032,1 hPa 0,0 mm 1,9 km/h (1 Bft) SO 139 ° 0 min 0,000 mm 1,4 UV-I 223 W/m² 0,8 °C 3,2 km/h (1 Bft)
15.11.2016 12:06 2,8 °C 2,8 °C 86 % 1032,1 hPa 0,0 mm 1,3 km/h (1 Bft) SO 139 ° 0 min 0,000 mm 1,4 UV-I 218 W/m² 0,7 °C 3,2 km/h (1 Bft)
15.11.2016 12:07 2,9 °C 2,9 °C 87 % 1032,1 hPa 0,0 mm 0,1 km/h (0 Bft) SO 139 ° 0 min 0,000 mm 1,4 UV-I 214 W/m² 1,0 °C 1,6 km/h (1 Bft)
15.11.2016 12:08 2,9 °C 2,9 °C 88 % 1032,1 hPa 0,0 mm 1,0 km/h (0 Bft) SO 139 ° 0 min 0,000 mm 1,4 UV-I 209 W/m² 1,1 °C 1,6 km/h (1 Bft)
15.11.2016 12:09 2,9 °C 2,9 °C 87 % 1032,1 hPa 0,0 mm 0,3 km/h (0 Bft) SO 139 ° 0 min 0,000 mm 1,3 UV-I 200 W/m² 1,0 °C 1,6 km/h (1 Bft)
15.11.2016 12:10 2,9 °C 2,9 °C 87 % 1032,0 hPa 0,0 mm 0,1 km/h (0 Bft) SO 139 ° 0 min 0,000 mm 1,3 UV-I 193 W/m² 1,0 °C 1,6 km/h (1 Bft)
15.11.2016 12:11 2,9 °C 2,9 °C 85 % 1032,1 hPa 0,0 mm 0,7 km/h (0 Bft) SO 139 ° 0 min 0,000 mm 1,3 UV-I 188 W/m² 0,6 °C 1,6 km/h (1 Bft)
15.11.2016 12:12 2,9 °C 2,9 °C 86 % 1032,0 hPa 0,0 mm 0,6 km/h (0 Bft) SO 139 ° 0 min 0,000 mm 1,3 UV-I 193 W/m² 0,8 °C 1,6 km/h (1 Bft)
15.11.2016 12:13 2,8 °C 2,9 °C 87 % 1032,0 hPa 0,0 mm 1,4 km/h (1 Bft) SO 139 ° 0 min 0,000 mm 1,3 UV-I 204 W/m² 0,9 °C 3,2 km/h (1 Bft)
15.11.2016 12:14 2,8 °C 2,8 °C 88 % 1031,9 hPa 0,0 mm 3,1 km/h (1 Bft) SO 139 ° 0 min 0,000 mm 1,4 UV-I 213 W/m² 1,0 °C 4,8 km/h (1 Bft)
15.11.2016 12:15 2,7 °C 2,8 °C 88 % 1031,9 hPa 0,0 mm 2,4 km/h (1 Bft) SO 139 ° 0 min 0,000 mm 1,4 UV-I 220 W/m² 0,9 °C 3,2 km/h (1 Bft)
15.11.2016 12:16 2,7 °C 2,8 °C 89 % 1031,9 hPa 0,0 mm 1,2 km/h (1 Bft) SO 139 ° 0 min 0,000 mm 1,4 UV-I 221 W/m² 1,1 °C 3,2 km/h (1 Bft)
15.11.2016 12:17 2,7 °C 2,7 °C 88 % 1031,9 hPa 0,0 mm 3,3 km/h (1 Bft) SO 140 ° 0 min 0,000 mm 1,4 UV-I 221 W/m² 0,9 °C 4,8 km/h (1 Bft)
15.11.2016 12:18 2,7 °C 2,7 °C 87 % 1031,8 hPa 0,0 mm 2,2 km/h (1 Bft) SO 140 ° 0 min 0,000 mm 1,4 UV-I 213 W/m² 0,8 °C 3,2 km/h (1 Bft)
15.11.2016 12:19 2,8 °C 2,8 °C 87 % 1031,8 hPa 0,0 mm 2,4 km/h (1 Bft) SO 140 ° 0 min 0,000 mm 1,3 UV-I 206 W/m² 0,9 °C 3,2 km/h (1 Bft)
15.11.2016 12:20 2,9 °C 2,9 °C 87 % 1031,8 hPa 0,0 mm 2,4 km/h (1 Bft) SO 140 ° 0 min 0,000 mm 1,3 UV-I 199 W/m² 1,0 °C 3,2 km/h (1 Bft)
15.11.2016 12:21 2,9 °C 2,9 °C 86 % 1031,8 hPa 0,0 mm 1,0 km/h (0 Bft) SO 140 ° 0 min 0,000 mm 1,3 UV-I 190 W/m² 0,8 °C 1,6 km/h (1 Bft)
15.11.2016 12:22 2,9 °C 2,9 °C 86 % 1031,8 hPa 0,0 mm 1,7 km/h (1 Bft) SO 140 ° 0 min 0,000 mm 1,3 UV-I 181 W/m² 0,8 °C 3,2 km/h (1 Bft)
15.11.2016 12:23 3,0 °C 3,0 °C 88 % 1031,8 hPa 0,0 mm 0,3 km/h (0 Bft) SO 139 ° 0 min 0,000 mm 1,3 UV-I 165 W/m² 1,2 °C 1,6 km/h (1 Bft)
15.11.2016 12:24 3,0 °C 3,0 °C 89 % 1031,8 hPa 0,0 mm 0,0 km/h (0 Bft) SO 139 ° 0 min 0,000 mm 1,3 UV-I 156 W/m² 1,4 °C 0,0 km/h (0 Bft)
15.11.2016 12:25 3,0 °C 3,0 °C 88 % 1031,8 hPa 0,0 mm 0,0 km/h (0 Bft) SO 139 ° 0 min 0,000 mm 1,2 UV-I 151 W/m² 1,2 °C 0,0 km/h (0 Bft)
15.11.2016 12:26 2,9 °C 3,0 °C 87 % 1031,8 hPa 0,0 mm 0,0 km/h (0 Bft) SO 139 ° 0 min 0,000 mm 1,2 UV-I 149 W/m² 1,0 °C 0,0 km/h (0 Bft)
15.11.2016 12:27 3,0 °C 3,0 °C 86 % 1031,8 hPa 0,0 mm 0,0 km/h (0 Bft) SO 139 ° 0 min 0,000 mm 1,2 UV-I 149 W/m² 0,9 °C 0,0 km/h (0 Bft)
15.11.2016 12:28 3,0 °C 3,0 °C 86 % 1031,8 hPa 0,2 mm 0,0 km/h (0 Bft) SO 139 ° 0 min 0,000 mm 1,3 UV-I 153 W/m² 0,9 °C 0,0 km/h (0 Bft)
15.11.2016 12:29 3,1 °C 3,1 °C 86 % 1031,8 hPa 0,0 mm 0,0 km/h (0 Bft) SO 139 ° 0 min 0,000 mm 1,3 UV-I 165 W/m² 1,0 °C 0,0 km/h (0 Bft)
15.11.2016 12:30 3,1 °C 3,1 °C 86 % 1031,8 hPa 0,0 mm 0,0 km/h (0 Bft) SO 139 ° 0 min 0,000 mm 1,3 UV-I 176 W/m² 1,0 °C 0,0 km/h (0 Bft)
15.11.2016 12:31 3,1 °C 3,2 °C 86 % 1031,8 hPa 0,0 mm 0,0 km/h (0 Bft) SO 139 ° 0 min 0,000 mm 1,3 UV-I 186 W/m² 1,0 °C 0,0 km/h (0 Bft)
15.11.2016 12:32 3,1 °C 3,1 °C 88 % 1031,8 hPa 0,0 mm 0,0 km/h (0 Bft) SO 139 ° 0 min 0,000 mm 1,4 UV-I 195 W/m² 1,3 °C 0,0 km/h (0 Bft)
15.11.2016 12:33 2,9 °C 3,1 °C 89 % 1031,8 hPa 0,0 mm 0,0 km/h (0 Bft) SO 139 ° 0 min 0,000 mm 1,4 UV-I 199 W/m² 1,3 °C 0,0 km/h (0 Bft)
15.11.2016 12:34 2,9 °C 3,0 °C 89 % 1031,8 hPa 0,0 mm 0,0 km/h (0 Bft) SO 139 ° 0 min 0,000 mm 1,4 UV-I 199 W/m² 1,3 °C 0,0 km/h (0 Bft)
15.11.2016 12:35 2,9 °C 2,9 °C 89 % 1031,7 hPa 0,0 mm 1,0 km/h (0 Bft) SO 139 ° 0 min 0,000 mm 1,4 UV-I 195 W/m² 1,3 °C 1,6 km/h (1 Bft)
15.11.2016 12:36 3,0 °C 3,0 °C 90 % 1031,8 hPa 0,0 mm 0,3 km/h (0 Bft) SO 139 ° 0 min 0,000 mm 1,3 UV-I 179 W/m² 1,5 °C 1,6 km/h (1 Bft)
15.11.2016 12:37 3,1 °C 3,1 °C 90 % 1031,8 hPa 0,0 mm 0,6 km/h (0 Bft) SO 139 ° 0 min 0,000 mm 1,3 UV-I 172 W/m² 1,6 °C 1,6 km/h (1 Bft)
15.11.2016 12:38 3,1 °C 3,1 °C 90 % 1031,8 hPa 0,0 mm 0,8 km/h (0 Bft) SO 139 ° 0 min 0,000 mm 1,3 UV-I 167 W/m² 1,6 °C 1,6 km/h (1 Bft)
15.11.2016 12:39 3,1 °C 3,1 °C 88 % 1031,9 hPa 0,0 mm 0,5 km/h (0 Bft) SO 139 ° 0 min 0,000 mm 1,3 UV-I 162 W/m² 1,3 °C 1,6 km/h (1 Bft)
15.11.2016 12:40 3,2 °C 3,2 °C 87 % 1031,9 hPa 0,0 mm 0,7 km/h (0 Bft) SO 139 ° 0 min 0,000 mm 1,3 UV-I 162 W/m² 1,2 °C 1,6 km/h (1 Bft)
15.11.2016 12:41 3,2 °C 3,2 °C 86 % 1031,8 hPa 0,0 mm 0,4 km/h (0 Bft) SO 139 ° 0 min 0,000 mm 1,3 UV-I 174 W/m² 1,1 °C 1,6 km/h (1 Bft)
15.11.2016 12:42 3,2 °C 3,2 °C 86 % 1031,9 hPa 0,0 mm 0,9 km/h (0 Bft) SO 139 ° 0 min 0,000 mm 1,3 UV-I 183 W/m² 1,1 °C 1,6 km/h (1 Bft)
15.11.2016 12:43 3,2 °C 3,2 °C 87 % 1031,8 hPa 0,0 mm 0,9 km/h (0 Bft) SO 139 ° 0 min 0,000 mm 1,3 UV-I 190 W/m² 1,2 °C 1,6 km/h (1 Bft)
15.11.2016 12:44 3,2 °C 3,2 °C 88 % 1031,8 hPa 0,0 mm 0,4 km/h (0 Bft) SO 139 ° 0 min 0,000 mm 1,4 UV-I 195 W/m² 1,4 °C 1,6 km/h (1 Bft)
15.11.2016 12:45 3,1 °C 3,2 °C 88 % 1031,8 hPa 0,0 mm 0,2 km/h (0 Bft) SO 139 ° 0 min 0,000 mm 1,4 UV-I 197 W/m² 1,3 °C 1,6 km/h (1 Bft)
15.11.2016 12:46 3,2 °C 3,2 °C 88 % 1031,8 hPa 0,0 mm 0,1 km/h (0 Bft) SO 139 ° 0 min 0,000 mm 1,4 UV-I 195 W/m² 1,4 °C 1,6 km/h (1 Bft)
15.11.2016 12:47 3,2 °C 3,2 °C 90 % 1031,8 hPa 0,0 mm 0,3 km/h (0 Bft) SO 139 ° 0 min 0,000 mm 1,3 UV-I 185 W/m² 1,7 °C 1,6 km/h (1 Bft)
15.11.2016 12:48 3,2 °C 3,2 °C 89 % 1031,9 hPa 0,0 mm 0,1 km/h (0 Bft) SO 139 ° 0 min 0,000 mm 1,3 UV-I 179 W/m² 1,6 °C 1,6 km/h (1 Bft)
15.11.2016 12:49 3,2 °C 3,2 °C 88 % 1031,9 hPa 0,0 mm 0,0 km/h (0 Bft) SO 139 ° 0 min 0,000 mm 1,3 UV-I 178 W/m² 1,4 °C 0,0 km/h (0 Bft)
15.11.2016 12:50 3,2 °C 3,2 °C 87 % 1031,9 hPa 0,0 mm 0,7 km/h (0 Bft) SO 139 ° 0 min 0,000 mm 1,3 UV-I 178 W/m² 1,2 °C 1,6 km/h (1 Bft)
15.11.2016 12:51 3,2 °C 3,2 °C 89 % 1031,9 hPa 0,0 mm 0,8 km/h (0 Bft) SO 139 ° 0 min 0,000 mm 1,3 UV-I 178 W/m² 1,6 °C 1,6 km/h (1 Bft)
15.11.2016 12:52 3,2 °C 3,2 °C 88 % 1031,9 hPa 0,0 mm 0,7 km/h (0 Bft) SO 139 ° 0 min 0,000 mm 1,3 UV-I 179 W/m² 1,4 °C 3,2 km/h (1 Bft)
15.11.2016 12:53 3,2 °C 3,2 °C 87 % 1031,9 hPa 0,0 mm 1,7 km/h (1 Bft) SO 140 ° 0 min 0,000 mm 1,3 UV-I 186 W/m² 1,2 °C 3,2 km/h (1 Bft)
15.11.2016 12:54 3,2 °C 3,3 °C 86 % 1031,9 hPa 0,0 mm 2,0 km/h (1 Bft) SO 140 ° 0 min 0,000 mm 1,3 UV-I 193 W/m² 1,1 °C 3,2 km/h (1 Bft)
15.11.2016 12:55 3,2 °C 3,3 °C 88 % 1031,8 hPa 0,0 mm 2,2 km/h (1 Bft) SO 140 ° 0 min 0,000 mm 1,3 UV-I 200 W/m² 1,4 °C 3,2 km/h (1 Bft)
15.11.2016 12:56 3,2 °C 3,3 °C 87 % 1031,8 hPa 0,0 mm 1,7 km/h (1 Bft) SO 140 ° 0 min 0,000 mm 1,3 UV-I 207 W/m² 1,2 °C 3,2 km/h (1 Bft)
15.11.2016 12:57 3,3 °C 3,3 °C 89 % 1031,8 hPa 0,0 mm 0,6 km/h (0 Bft) SO 140 ° 0 min 0,000 mm 1,4 UV-I 211 W/m² 1,7 °C 1,6 km/h (1 Bft)
15.11.2016 12:58 3,4 °C 3,4 °C 89 % 1031,8 hPa 0,0 mm 0,2 km/h (0 Bft) SO 140 ° 1 min 0,000 mm 1,3 UV-I 213 W/m² 1,8 °C 1,6 km/h (1 Bft)
15.11.2016 12:59 3,5 °C 3,5 °C 88 % 1031,8 hPa 0,0 mm 1,4 km/h (1 Bft) W-SW 245 ° 0 min 0,000 mm 1,3 UV-I 211 W/m² 1,7 °C 4,8 km/h (1 Bft)
15.11.2016 13:00 3,6 °C 3,6 °C 88 % 1031,7 hPa 0,0 mm 4,8 km/h (1 Bft) W-SW 252 ° 0 min 0,076 mm 1,3 UV-I 211 W/m² 1,8 °C 6,4 km/h (2 Bft)
15.11.2016 13:01 3,8 °C 3,8 °C 87 % 1031,7 hPa 0,0 mm 3,5 km/h (1 Bft) W-SW 252 ° 0 min 0,000 mm 1,3 UV-I 209 W/m² 1,8 °C 4,8 km/h (1 Bft)
15.11.2016 13:02 3,9 °C 3,9 °C 88 % 1031,8 hPa 0,0 mm 1,5 km/h (1 Bft) W-SW 252 ° 0 min 0,000 mm 1,3 UV-I 207 W/m² 2,1 °C 3,2 km/h (1 Bft)
15.11.2016 13:03 4,0 °C 4,0 °C 88 % 1031,7 hPa 0,0 mm 1,6 km/h (1 Bft) W-SW 252 ° 0 min 0,000 mm 1,3 UV-I 202 W/m² 2,2 °C 4,8 km/h (1 Bft)
15.11.2016 13:04 4,1 °C 4,1 °C 87 % 1031,7 hPa 0,0 mm 0,3 km/h (0 Bft) W-SW 252 ° 0 min 0,000 mm 1,3 UV-I 188 W/m² 2,1 °C 1,6 km/h (1 Bft)
15.11.2016 13:05 4,1 °C 4,1 °C 85 % 1031,7 hPa 0,0 mm 0,5 km/h (0 Bft) W-SW 252 ° 0 min 0,000 mm 1,3 UV-I 183 W/m² 1,8 °C 1,6 km/h (1 Bft)
15.11.2016 13:06 4,1 °C 4,1 °C 86 % 1031,7 hPa 0,0 mm 0,1 km/h (0 Bft) W-SW 252 ° 0 min 0,000 mm 1,2 UV-I 179 W/m² 2,0 °C 1,6 km/h (1 Bft)
15.11.2016 13:07 4,0 °C 4,1 °C 87 % 1031,7 hPa 0,0 mm 1,8 km/h (1 Bft) W-SW 252 ° 0 min 0,000 mm 1,2 UV-I 179 W/m² 2,0 °C 3,2 km/h (1 Bft)
15.11.2016 13:08 3,9 °C 4,0 °C 86 % 1031,7 hPa 0,0 mm 1,4 km/h (1 Bft) W-SW 252 ° 0 min 0,000 mm 1,2 UV-I 181 W/m² 1,8 °C 3,2 km/h (1 Bft)
15.11.2016 13:09 3,9 °C 3,9 °C 87 % 1031,7 hPa 0,0 mm 3,5 km/h (1 Bft) W-SW 252 ° 0 min 0,000 mm 1,3 UV-I 185 W/m² 1,9 °C 4,8 km/h (1 Bft)
15.11.2016 13:10 3,9 °C 3,9 °C 87 % 1031,7 hPa 0,0 mm 2,6 km/h (1 Bft) W-SW 252 ° 0 min 0,000 mm 1,3 UV-I 190 W/m² 1,9 °C 4,8 km/h (1 Bft)
15.11.2016 13:11 3,9 °C 3,9 °C 88 % 1031,7 hPa 0,0 mm 3,4 km/h (1 Bft) W-SW 251 ° 0 min 0,000 mm 1,2 UV-I 193 W/m² 2,1 °C 4,8 km/h (1 Bft)
15.11.2016 13:12 4,0 °C 4,0 °C 88 % 1031,7 hPa 0,0 mm 3,1 km/h (1 Bft) W-SW 251 ° 0 min 0,000 mm 1,2 UV-I 192 W/m² 2,2 °C 4,8 km/h (1 Bft)
15.11.2016 13:13 3,9 °C 4,0 °C 88 % 1031,7 hPa 0,0 mm 2,9 km/h (1 Bft) W-SW 248 ° 0 min 0,000 mm 1,2 UV-I 188 W/m² 2,1 °C 4,8 km/h (1 Bft)
15.11.2016 13:14 3,9 °C 3,9 °C 88 % 1031,7 hPa 0,0 mm 3,8 km/h (1 Bft) S-SW 200 ° 0 min 0,000 mm 1,2 UV-I 183 W/m² 2,1 °C 4,8 km/h (1 Bft)
15.11.2016 13:15 3,9 °C 3,9 °C 87 % 1031,6 hPa 0,0 mm 2,1 km/h (1 Bft) S-SW 200 ° 0 min 0,000 mm 1,2 UV-I 179 W/m² 1,9 °C 3,2 km/h (1 Bft)
15.11.2016 13:16 3,9 °C 3,9 °C 86 % 1031,6 hPa 0,0 mm 2,0 km/h (1 Bft) S-SW 200 ° 0 min 0,000 mm 1,1 UV-I 171 W/m² 1,8 °C 3,2 km/h (1 Bft)
15.11.2016 13:17 3,8 °C 3,9 °C 87 % 1031,6 hPa 0,0 mm 1,3 km/h (1 Bft) S-SW 210 ° 0 min 0,000 mm 1,1 UV-I 167 W/m² 1,8 °C 3,2 km/h (1 Bft)
15.11.2016 13:18 3,9 °C 3,9 °C 87 % 1031,7 hPa 0,0 mm 3,1 km/h (1 Bft) S-SW 211 ° 0 min 0,000 mm 1,1 UV-I 165 W/m² 1,9 °C 3,2 km/h (1 Bft)
15.11.2016 13:19 3,9 °C 3,9 °C 87 % 1031,6 hPa 0,0 mm 3,3 km/h (1 Bft) S-SW 211 ° 0 min 0,000 mm 1,1 UV-I 162 W/m² 1,9 °C 4,8 km/h (1 Bft)
15.11.2016 13:20 3,9 °C 3,9 °C 87 % 1031,6 hPa 0,0 mm 2,6 km/h (1 Bft) S-SW 211 ° 0 min 0,000 mm 1,1 UV-I 160 W/m² 1,9 °C 4,8 km/h (1 Bft)
15.11.2016 13:21 3,9 °C 3,9 °C 87 % 1031,6 hPa 0,0 mm 2,1 km/h (1 Bft) S-SW 211 ° 0 min 0,000 mm 1,1 UV-I 160 W/m² 1,9 °C 3,2 km/h (1 Bft)
15.11.2016 13:22 4,0 °C 4,0 °C 86 % 1031,5 hPa 0,2 mm 1,3 km/h (1 Bft) S-SW 211 ° 0 min 0,000 mm 1,1 UV-I 158 W/m² 1,9 °C 3,2 km/h (1 Bft)
15.11.2016 13:23 4,0 °C 4,0 °C 87 % 1031,6 hPa 0,0 mm 1,9 km/h (1 Bft) SW 218 ° 0 min 0,000 mm 1,1 UV-I 158 W/m² 2,0 °C 3,2 km/h (1 Bft)
15.11.2016 13:24 4,1 °C 4,1 °C 88 % 1031,5 hPa 0,0 mm 1,7 km/h (1 Bft) SW 218 ° 0 min 0,000 mm 1,0 UV-I 156 W/m² 2,3 °C 3,2 km/h (1 Bft)
15.11.2016 13:25 4,1 °C 4,1 °C 87 % 1031,6 hPa 0,0 mm 2,8 km/h (1 Bft) SW 221 ° 0 min 0,000 mm 1,0 UV-I 156 W/m² 2,1 °C 3,2 km/h (1 Bft)
15.11.2016 13:26 4,1 °C 4,1 °C 87 % 1031,6 hPa 0,0 mm 2,2 km/h (1 Bft) SW 221 ° 0 min 0,000 mm 1,0 UV-I 155 W/m² 2,1 °C 3,2 km/h (1 Bft)
15.11.2016 13:27 4,1 °C 4,1 °C 87 % 1031,6 hPa 0,0 mm 2,3 km/h (1 Bft) SW 221 ° 0 min 0,000 mm 1,0 UV-I 153 W/m² 2,1 °C 3,2 km/h (1 Bft)
15.11.2016 13:28 4,1 °C 4,2 °C 87 % 1031,5 hPa 0,0 mm 1,5 km/h (1 Bft) SW 221 ° 0 min 0,000 mm 1,0 UV-I 146 W/m² 2,1 °C 3,2 km/h (1 Bft)
15.11.2016 13:29 4,1 °C 4,1 °C 86 % 1031,5 hPa 0,0 mm 2,0 km/h (1 Bft) SW 221 ° 0 min 0,000 mm 0,9 UV-I 139 W/m² 2,0 °C 3,2 km/h (1 Bft)
15.11.2016 13:30 4,1 °C 4,1 °C 86 % 1031,5 hPa 0,0 mm 1,0 km/h (0 Bft) SW 221 ° 0 min 0,000 mm 0,9 UV-I 134 W/m² 2,0 °C 3,2 km/h (1 Bft)
15.11.2016 13:31 4,1 °C 4,1 °C 87 % 1031,5 hPa 0,0 mm 0,9 km/h (0 Bft) SW 221 ° 0 min 0,000 mm 0,9 UV-I 127 W/m² 2,1 °C 1,6 km/h (1 Bft)
15.11.2016 13:32 4,1 °C 4,1 °C 87 % 1031,5 hPa 0,0 mm 1,1 km/h (1 Bft) SW 221 ° 0 min 0,000 mm 0,9 UV-I 121 W/m² 2,1 °C 3,2 km/h (1 Bft)
15.11.2016 13:33 4,1 °C 4,1 °C 87 % 1031,5 hPa 0,0 mm 1,5 km/h (1 Bft) SW 221 ° 0 min 0,000 mm 0,8 UV-I 120 W/m² 2,1 °C 1,6 km/h (1 Bft)
15.11.2016 13:34 4,1 °C 4,1 °C 85 % 1031,5 hPa 0,0 mm 3,5 km/h (1 Bft) W 264 ° 0 min 0,000 mm 0,8 UV-I 120 W/m² 1,8 °C 6,4 km/h (2 Bft)
15.11.2016 13:35 4,1 °C 4,1 °C 84 % 1031,4 hPa 0,0 mm 3,6 km/h (1 Bft) W 259 ° 0 min 0,000 mm 0,8 UV-I 120 W/m² 1,6 °C 6,4 km/h (2 Bft)
15.11.2016 13:36 4,1 °C 4,1 °C 81 % 1031,4 hPa 0,0 mm 3,7 km/h (1 Bft) W 259 ° 0 min 0,000 mm 0,8 UV-I 118 W/m² 1,1 °C 4,8 km/h (1 Bft)
15.11.2016 13:37 4,1 °C 4,1 °C 81 % 1031,4 hPa 0,0 mm 4,6 km/h (1 Bft) W 262 ° 0 min 0,000 mm 0,8 UV-I 118 W/m² 1,1 °C 6,4 km/h (2 Bft)
15.11.2016 13:38 4,0 °C 4,1 °C 81 % 1031,5 hPa 0,0 mm 3,2 km/h (1 Bft) W-SW 256 ° 0 min 0,000 mm 0,8 UV-I 114 W/m² 1,0 °C 6,4 km/h (2 Bft)
15.11.2016 13:39 4,0 °C 4,0 °C 79 % 1031,5 hPa 0,0 mm 5,4 km/h (1 Bft) W-SW 246 ° 0 min 0,000 mm 0,8 UV-I 113 W/m² 0,7 °C 8,0 km/h (2 Bft)
15.11.2016 13:40 3,9 °C 4,0 °C 79 % 1031,4 hPa 0,0 mm 4,4 km/h (1 Bft) SW 231 ° 0 min 0,000 mm 0,8 UV-I 109 W/m² 0,6 °C 6,4 km/h (2 Bft)
15.11.2016 13:41 3,9 °C 3,9 °C 81 % 1031,4 hPa 0,0 mm 2,1 km/h (1 Bft) SW 231 ° 0 min 0,000 mm 0,7 UV-I 105 W/m² 0,9 °C 3,2 km/h (1 Bft)
15.11.2016 13:42 3,8 °C 3,9 °C 86 % 1031,4 hPa 0,0 mm 1,0 km/h (0 Bft) SW 231 ° 0 min 0,000 mm 0,7 UV-I 105 W/m² 1,7 °C 3,2 km/h (1 Bft)
15.11.2016 13:43 3,7 °C 3,8 °C 86 % 1031,3 hPa 0,0 mm 0,4 km/h (0 Bft) SW 231 ° 0 min 0,000 mm 0,7 UV-I 104 W/m² 1,6 °C 1,6 km/h (1 Bft)
15.11.2016 13:44 3,6 °C 3,7 °C 87 % 1031,3 hPa 0,0 mm 0,9 km/h (0 Bft) SW 231 ° 0 min 0,000 mm 0,7 UV-I 102 W/m² 1,6 °C 1,6 km/h (1 Bft)
15.11.2016 13:45 3,6 °C 3,6 °C 88 % 1031,3 hPa 0,0 mm 0,1 km/h (0 Bft) SW 231 ° 0 min 0,000 mm 0,7 UV-I 100 W/m² 1,8 °C 1,6 km/h (1 Bft)
15.11.2016 13:46 3,5 °C 3,6 °C 88 % 1031,3 hPa 0,0 mm 1,1 km/h (1 Bft) SW 231 ° 0 min 0,000 mm 0,8 UV-I 104 W/m² 1,7 °C 1,6 km/h (1 Bft)
15.11.2016 13:47 3,6 °C 3,6 °C 88 % 1031,4 hPa 0,0 mm 0,7 km/h (0 Bft) SW 231 ° 0 min 0,000 mm 0,8 UV-I 105 W/m² 1,8 °C 1,6 km/h (1 Bft)
15.11.2016 13:48 3,6 °C 3,6 °C 89 % 1031,3 hPa 0,0 mm 0,1 km/h (0 Bft) SW 231 ° 0 min 0,000 mm 0,8 UV-I 109 W/m² 2,0 °C 1,6 km/h (1 Bft)
15.11.2016 13:49 3,5 °C 3,6 °C 90 % 1031,3 hPa 0,0 mm 0,3 km/h (0 Bft) SW 231 ° 0 min 0,000 mm 0,8 UV-I 111 W/m² 2,0 °C 1,6 km/h (1 Bft)
15.11.2016 13:50 3,4 °C 3,5 °C 91 % 1031,3 hPa 0,0 mm 0,1 km/h (0 Bft) SW 231 ° 0 min 0,000 mm 0,8 UV-I 111 W/m² 2,1 °C 1,6 km/h (1 Bft)
15.11.2016 13:51 3,4 °C 3,5 °C 91 % 1031,2 hPa 0,0 mm 0,3 km/h (0 Bft) SW 231 ° 0 min 0,000 mm 0,8 UV-I 113 W/m² 2,1 °C 1,6 km/h (1 Bft)
15.11.2016 13:52 3,4 °C 3,4 °C 91 % 1031,2 hPa 0,0 mm 0,1 km/h (0 Bft) SW 231 ° 0 min 0,000 mm 0,8 UV-I 114 W/m² 2,1 °C 1,6 km/h (1 Bft)
15.11.2016 13:53 3,4 °C 3,4 °C 91 % 1031,2 hPa 0,0 mm 2,0 km/h (1 Bft) SW 231 ° 0 min 0,000 mm 0,9 UV-I 118 W/m² 2,1 °C 3,2 km/h (1 Bft)
15.11.2016 13:54 3,6 °C 3,6 °C 89 % 1031,2 hPa 0,0 mm 1,3 km/h (1 Bft) SW 231 ° 0 min 0,000 mm 0,9 UV-I 121 W/m² 2,0 °C 1,6 km/h (1 Bft)
15.11.2016 13:55 3,7 °C 3,7 °C 86 % 1031,1 hPa 0,0 mm 1,6 km/h (1 Bft) SW 221 ° 0 min 0,000 mm 0,9 UV-I 121 W/m² 1,6 °C 4,8 km/h (1 Bft)
15.11.2016 13:56 3,7 °C 3,7 °C 87 % 1031,1 hPa 0,0 mm 0,6 km/h (0 Bft) SW 221 ° 0 min 0,000 mm 0,9 UV-I 130 W/m² 1,7 °C 1,6 km/h (1 Bft)
15.11.2016 13:57 3,7 °C 3,8 °C 87 % 1031,1 hPa 0,0 mm 0,3 km/h (0 Bft) SW 221 ° 0 min 0,000 mm 0,9 UV-I 137 W/m² 1,7 °C 1,6 km/h (1 Bft)
15.11.2016 13:58 3,7 °C 3,7 °C 88 % 1031,1 hPa 0,0 mm 1,2 km/h (1 Bft) SW 221 ° 0 min 0,000 mm 0,9 UV-I 139 W/m² 1,9 °C 1,6 km/h (1 Bft)
15.11.2016 13:59 3,8 °C 3,8 °C 89 % 1031,1 hPa 0,0 mm 0,4 km/h (0 Bft) SW 221 ° 0 min 0,000 mm 0,9 UV-I 141 W/m² 2,2 °C 1,6 km/h (1 Bft)
15.11.2016 14:00 3,9 °C 3,9 °C 89 % 1031,1 hPa 0,0 mm 0,0 km/h (0 Bft) SW 221 ° 0 min 0,000 mm 0,9 UV-I 141 W/m² 2,3 °C 0,0 km/h (0 Bft)
15.11.2016 14:01 3,9 °C 3,9 °C 89 % 1031,1 hPa 0,0 mm 0,0 km/h (0 Bft) SW 221 ° 0 min 0,051 mm 0,9 UV-I 141 W/m² 2,3 °C 0,0 km/h (0 Bft)
15.11.2016 14:02 4,0 °C 4,0 °C 87 % 1031,1 hPa 0,0 mm 0,0 km/h (0 Bft) SW 221 ° 0 min 0,000 mm 0,9 UV-I 137 W/m² 2,0 °C 0,0 km/h (0 Bft)
15.11.2016 14:03 3,9 °C 4,0 °C 88 % 1031,1 hPa 0,0 mm 1,0 km/h (0 Bft) SW 221 ° 0 min 0,000 mm 0,9 UV-I 130 W/m² 2,1 °C 1,6 km/h (1 Bft)
15.11.2016 14:04 3,8 °C 3,9 °C 87 % 1031,1 hPa 0,0 mm 0,7 km/h (0 Bft) SW 221 ° 0 min 0,000 mm 0,8 UV-I 130 W/m² 1,8 °C 1,6 km/h (1 Bft)
15.11.2016 14:05 3,8 °C 3,8 °C 88 % 1031,1 hPa 0,0 mm 1,8 km/h (1 Bft) SW 221 ° 0 min 0,000 mm 0,8 UV-I 130 W/m² 2,0 °C 3,2 km/h (1 Bft)
15.11.2016 14:06 3,9 °C 3,9 °C 88 % 1031,1 hPa 0,0 mm 1,3 km/h (1 Bft) SW 221 ° 0 min 0,000 mm 0,8 UV-I 130 W/m² 2,1 °C 3,2 km/h (1 Bft)
15.11.2016 14:07 4,0 °C 4,0 °C 89 % 1031,1 hPa 0,0 mm 2,1 km/h (1 Bft) SW 234 ° 0 min 0,000 mm 0,8 UV-I 132 W/m² 2,4 °C 4,8 km/h (1 Bft)
15.11.2016 14:08 4,1 °C 4,1 °C 88 % 1031,0 hPa 0,0 mm 1,3 km/h (1 Bft) SW 234 ° 0 min 0,000 mm 0,8 UV-I 128 W/m² 2,3 °C 3,2 km/h (1 Bft)
15.11.2016 14:09 4,1 °C 4,1 °C 88 % 1031,1 hPa 0,0 mm 1,9 km/h (1 Bft) SW 234 ° 0 min 0,000 mm 0,8 UV-I 113 W/m² 2,3 °C 3,2 km/h (1 Bft)
15.11.2016 14:10 4,2 °C 4,2 °C 89 % 1031,1 hPa 0,0 mm 1,9 km/h (1 Bft) SW 234 ° 0 min 0,000 mm 0,7 UV-I 109 W/m² 2,6 °C 3,2 km/h (1 Bft)
15.11.2016 14:11 4,2 °C 4,3 °C 89 % 1031,0 hPa 0,0 mm 2,7 km/h (1 Bft) SW 234 ° 0 min 0,000 mm 0,7 UV-I 105 W/m² 2,6 °C 4,8 km/h (1 Bft)
15.11.2016 14:12 4,3 °C 4,3 °C 89 % 1031,0 hPa 0,0 mm 1,8 km/h (1 Bft) SW 234 ° 0 min 0,000 mm 0,7 UV-I 104 W/m² 2,7 °C 3,2 km/h (1 Bft)
15.11.2016 14:13 4,3 °C 4,3 °C 88 % 1030,9 hPa 0,0 mm 0,3 km/h (0 Bft) SW 234 ° 0 min 0,000 mm 0,7 UV-I 102 W/m² 2,5 °C 1,6 km/h (1 Bft)
15.11.2016 14:14 4,3 °C 4,3 °C 88 % 1030,9 hPa 0,0 mm 1,4 km/h (1 Bft) SW 234 ° 0 min 0,000 mm 0,6 UV-I 100 W/m² 2,5 °C 3,2 km/h (1 Bft)
15.11.2016 14:15 4,2 °C 4,3 °C 88 % 1030,9 hPa 0,0 mm 2,7 km/h (1 Bft) SW 227 ° 0 min 0,000 mm 0,6 UV-I 95 W/m² 2,4 °C 4,8 km/h (1 Bft)
15.11.2016 14:16 4,2 °C 4,3 °C 89 % 1030,9 hPa 0,0 mm 2,4 km/h (1 Bft) SW 222 ° 0 min 0,000 mm 0,6 UV-I 93 W/m² 2,6 °C 4,8 km/h (1 Bft)
15.11.2016 14:17 4,2 °C 4,2 °C 89 % 1030,8 hPa 0,0 mm 2,3 km/h (1 Bft) S-SW 195 ° 0 min 0,000 mm 0,6 UV-I 91 W/m² 2,6 °C 6,4 km/h (2 Bft)
15.11.2016 14:18 4,2 °C 4,2 °C 89 % 1030,8 hPa 0,0 mm 4,6 km/h (1 Bft) S-SW 204 ° 0 min 0,000 mm 0,6 UV-I 88 W/m² 2,6 °C 4,8 km/h (1 Bft)
15.11.2016 14:19 4,2 °C 4,2 °C 89 % 1030,8 hPa 0,0 mm 2,3 km/h (1 Bft) W-SW 245 ° 0 min 0,000 mm 0,6 UV-I 86 W/m² 2,6 °C 4,8 km/h (1 Bft)
15.11.2016 14:20 4,1 °C 4,2 °C 89 % 1030,8 hPa 0,0 mm 4,2 km/h (1 Bft) S-SW 199 ° 0 min 0,000 mm 0,5 UV-I 81 W/m² 2,5 °C 6,4 km/h (2 Bft)
15.11.2016 14:21 4,1 °C 4,1 °C 89 % 1030,8 hPa 0,0 mm 1,8 km/h (1 Bft) S-SW 199 ° 0 min 0,000 mm 0,5 UV-I 79 W/m² 2,5 °C 3,2 km/h (1 Bft)
15.11.2016 14:22 4,1 °C 4,1 °C 90 % 1030,7 hPa 0,0 mm 1,8 km/h (1 Bft) S-SW 199 ° 0 min 0,000 mm 0,5 UV-I 77 W/m² 2,6 °C 3,2 km/h (1 Bft)
15.11.2016 14:23 4,1 °C 4,1 °C 90 % 1030,7 hPa 0,0 mm 2,4 km/h (1 Bft) S-SW 199 ° 0 min 0,000 mm 0,5 UV-I 77 W/m² 2,6 °C 3,2 km/h (1 Bft)
15.11.2016 14:24 4,1 °C 4,1 °C 91 % 1030,7 hPa 0,0 mm 1,6 km/h (1 Bft) S-SW 199 ° 0 min 0,000 mm 0,5 UV-I 77 W/m² 2,8 °C 3,2 km/h (1 Bft)
15.11.2016 14:25 4,0 °C 4,1 °C 91 % 1030,7 hPa 0,0 mm 1,5 km/h (1 Bft) S-SW 199 ° 0 min 0,000 mm 0,5 UV-I 76 W/m² 2,7 °C 4,8 km/h (1 Bft)
15.11.2016 14:26 3,9 °C 4,0 °C 91 % 1030,7 hPa 0,0 mm 0,8 km/h (0 Bft) W-SW 242 ° 0 min 0,000 mm 0,5 UV-I 77 W/m² 2,6 °C 3,2 km/h (1 Bft)
15.11.2016 14:27 3,9 °C 3,9 °C 91 % 1030,6 hPa 0,0 mm 2,3 km/h (1 Bft) W-SW 250 ° 0 min 0,000 mm 0,5 UV-I 77 W/m² 2,6 °C 4,8 km/h (1 Bft)
15.11.2016 14:28 3,9 °C 3,9 °C 91 % 1030,6 hPa 0,0 mm 1,8 km/h (1 Bft) S-SW 207 ° 0 min 0,000 mm 0,5 UV-I 77 W/m² 2,6 °C 3,2 km/h (1 Bft)
15.11.2016 14:29 3,9 °C 3,9 °C 91 % 1030,6 hPa 0,0 mm 2,3 km/h (1 Bft) S-SW 207 ° 0 min 0,000 mm 0,5 UV-I 79 W/m² 2,6 °C 4,8 km/h (1 Bft)
15.11.2016 14:30 3,9 °C 3,9 °C 91 % 1030,5 hPa 0,0 mm 1,3 km/h (1 Bft) S-SW 207 ° 0 min 0,000 mm 0,5 UV-I 77 W/m² 2,6 °C 3,2 km/h (1 Bft)
15.11.2016 14:31 3,9 °C 3,9 °C 91 % 1030,5 hPa 0,0 mm 0,4 km/h (0 Bft) S-SW 207 ° 0 min 0,000 mm 0,5 UV-I 77 W/m² 2,6 °C 1,6 km/h (1 Bft)
15.11.2016 14:32 3,9 °C 3,9 °C 91 % 1030,5 hPa 0,0 mm 0,0 km/h (0 Bft) S-SW 207 ° 0 min 0,000 mm 0,5 UV-I 76 W/m² 2,6 °C 0,0 km/h (0 Bft)
15.11.2016 14:33 3,8 °C 3,9 °C 91 % 1030,5 hPa 0,0 mm 0,0 km/h (0 Bft) S-SW 207 ° 0 min 0,000 mm 0,5 UV-I 76 W/m² 2,5 °C 0,0 km/h (0 Bft)
15.11.2016 14:34 3,8 °C 3,8 °C 91 % 1030,4 hPa 0,0 mm 0,3 km/h (0 Bft) S-SW 207 ° 0 min 0,000 mm 0,5 UV-I 74 W/m² 2,5 °C 1,6 km/h (1 Bft)
15.11.2016 14:35 3,8 °C 3,8 °C 91 % 1030,5 hPa 0,0 mm 0,0 km/h (0 Bft) S-SW 207 ° 0 min 0,000 mm 0,5 UV-I 72 W/m² 2,5 °C 0,0 km/h (0 Bft)
15.11.2016 14:36 3,8 °C 3,8 °C 92 % 1030,5 hPa 0,0 mm 0,2 km/h (0 Bft) S-SW 207 ° 0 min 0,000 mm 0,5 UV-I 70 W/m² 2,6 °C 1,6 km/h (1 Bft)
15.11.2016 14:37 3,8 °C 3,8 °C 91 % 1030,5 hPa 0,0 mm 0,9 km/h (0 Bft) S-SW 207 ° 0 min 0,000 mm 0,5 UV-I 69 W/m² 2,5 °C 1,6 km/h (1 Bft)
15.11.2016 14:38 3,8 °C 3,8 °C 91 % 1030,5 hPa 0,0 mm 0,5 km/h (0 Bft) S-SW 207 ° 0 min 0,000 mm 0,5 UV-I 67 W/m² 2,5 °C 1,6 km/h (1 Bft)
15.11.2016 14:39 3,8 °C 3,8 °C 91 % 1030,5 hPa 0,0 mm 0,0 km/h (0 Bft) S-SW 207 ° 0 min 0,000 mm 0,5 UV-I 69 W/m² 2,5 °C 0,0 km/h (0 Bft)
15.11.2016 14:40 3,8 °C 3,8 °C 91 % 1030,6 hPa 0,0 mm 0,0 km/h (0 Bft) S-SW 207 ° 0 min 0,000 mm 0,5 UV-I 70 W/m² 2,5 °C 0,0 km/h (0 Bft)
15.11.2016 14:41 3,8 °C 3,8 °C 91 % 1030,5 hPa 0,0 mm 0,9 km/h (0 Bft) S-SW 207 ° 0 min 0,000 mm 0,5 UV-I 72 W/m² 2,5 °C 1,6 km/h (1 Bft)
15.11.2016 14:42 3,8 °C 3,8 °C 91 % 1030,6 hPa 0,0 mm 0,3 km/h (0 Bft) S-SW 207 ° 0 min 0,000 mm 0,5 UV-I 74 W/m² 2,5 °C 1,6 km/h (1 Bft)
15.11.2016 14:43 3,8 °C 3,8 °C 91 % 1030,6 hPa 0,0 mm 0,0 km/h (0 Bft) S-SW 207 ° 0 min 0,000 mm 0,5 UV-I 77 W/m² 2,5 °C 0,0 km/h (0 Bft)
15.11.2016 14:44 3,8 °C 3,8 °C 91 % 1030,6 hPa 0,0 mm 0,0 km/h (0 Bft) S-SW 207 ° 0 min 0,000 mm 0,6 UV-I 83 W/m² 2,5 °C 0,0 km/h (0 Bft)
15.11.2016 14:45 3,9 °C 3,9 °C 92 % 1030,6 hPa 0,0 mm 0,0 km/h (0 Bft) S-SW 207 ° 0 min 0,000 mm 0,6 UV-I 86 W/m² 2,7 °C 0,0 km/h (0 Bft)
15.11.2016 14:46 3,9 °C 3,9 °C 92 % 1030,7 hPa 0,0 mm 0,2 km/h (0 Bft) S-SW 208 ° 0 min 0,000 mm 0,6 UV-I 90 W/m² 2,7 °C 3,2 km/h (1 Bft)
15.11.2016 14:47 3,9 °C 3,9 °C 91 % 1030,7 hPa 0,0 mm 2,3 km/h (1 Bft) S-SW 208 ° 0 min 0,000 mm 0,6 UV-I 91 W/m² 2,6 °C 3,2 km/h (1 Bft)
15.11.2016 14:48 3,9 °C 3,9 °C 91 % 1030,6 hPa 0,0 mm 1,3 km/h (1 Bft) S-SW 208 ° 0 min 0,000 mm 0,6 UV-I 93 W/m² 2,6 °C 1,6 km/h (1 Bft)
15.11.2016 14:49 3,9 °C 3,9 °C 91 % 1030,7 hPa 0,0 mm 1,5 km/h (1 Bft) SW 217 ° 0 min 0,000 mm 0,6 UV-I 107 W/m² 2,6 °C 3,2 km/h (1 Bft)
15.11.2016 14:50 4,1 °C 4,1 °C 91 % 1030,7 hPa 0,0 mm 1,7 km/h (1 Bft) SW 217 ° 1 min 0,000 mm 0,6 UV-I 134 W/m² 2,8 °C 3,2 km/h (1 Bft)
15.11.2016 14:51 4,2 °C 4,2 °C 91 % 1030,6 hPa 0,0 mm 2,0 km/h (1 Bft) SW 217 ° 0 min 0,000 mm 0,6 UV-I 116 W/m² 2,9 °C 3,2 km/h (1 Bft)
15.11.2016 14:52 4,2 °C 4,2 °C 91 % 1030,7 hPa 0,0 mm 3,6 km/h (1 Bft) W 274 ° 0 min 0,000 mm 0,6 UV-I 107 W/m² 2,9 °C 6,4 km/h (2 Bft)
15.11.2016 14:53 4,3 °C 4,3 °C 89 % 1030,7 hPa 0,0 mm 3,4 km/h (1 Bft) W 274 ° 0 min 0,000 mm 0,6 UV-I 109 W/m² 2,7 °C 6,4 km/h (2 Bft)
15.11.2016 14:54 4,3 °C 4,3 °C 88 % 1030,7 hPa 0,0 mm 2,1 km/h (1 Bft) W 274 ° 0 min 0,000 mm 0,6 UV-I 93 W/m² 2,5 °C 3,2 km/h (1 Bft)
15.11.2016 14:55 4,3 °C 4,3 °C 88 % 1030,7 hPa 0,0 mm 2,1 km/h (1 Bft) W 274 ° 0 min 0,000 mm 0,6 UV-I 86 W/m² 2,5 °C 3,2 km/h (1 Bft)
15.11.2016 14:56 4,3 °C 4,3 °C 86 % 1030,6 hPa 0,0 mm 3,5 km/h (1 Bft) W 275 ° 0 min 0,000 mm 0,6 UV-I 86 W/m² 2,2 °C 4,8 km/h (1 Bft)
15.11.2016 14:57 4,4 °C 4,4 °C 85 % 1030,6 hPa 0,0 mm 3,2 km/h (1 Bft) W 280 ° 0 min 0,000 mm 0,5 UV-I 86 W/m² 2,1 °C 4,8 km/h (1 Bft)
15.11.2016 14:58 4,4 °C 4,4 °C 84 % 1030,6 hPa 0,0 mm 2,9 km/h (1 Bft) W 281 ° 0 min 0,000 mm 0,5 UV-I 86 W/m² 1,9 °C 4,8 km/h (1 Bft)
15.11.2016 14:59 4,3 °C 4,4 °C 82 % 1030,6 hPa 0,0 mm 2,1 km/h (1 Bft) W 281 ° 0 min 0,000 mm 0,5 UV-I 84 W/m² 1,5 °C 3,2 km/h (1 Bft)
15.11.2016 15:00 4,3 °C 4,3 °C 82 % 1030,6 hPa 0,2 mm 3,4 km/h (1 Bft) W 281 ° 0 min 0,025 mm 0,5 UV-I 84 W/m² 1,5 °C 4,8 km/h (1 Bft)
15.11.2016 15:01 4,3 °C 4,3 °C 83 % 1030,6 hPa 0,0 mm 2,0 km/h (1 Bft) W 281 ° 0 min 0,000 mm 0,5 UV-I 83 W/m² 1,7 °C 3,2 km/h (1 Bft)
15.11.2016 15:02 4,3 °C 4,3 °C 83 % 1030,6 hPa 0,0 mm 0,9 km/h (0 Bft) W 281 ° 0 min 0,000 mm 0,5 UV-I 79 W/m² 1,7 °C 3,2 km/h (1 Bft)
15.11.2016 15:03 4,3 °C 4,3 °C 83 % 1030,6 hPa 0,0 mm 1,3 km/h (1 Bft) W 281 ° 0 min 0,000 mm 0,5 UV-I 77 W/m² 1,7 °C 1,6 km/h (1 Bft)
15.11.2016 15:04 4,3 °C 4,3 °C 83 % 1030,6 hPa 0,0 mm 2,1 km/h (1 Bft) W 281 ° 0 min 0,000 mm 0,5 UV-I 76 W/m² 1,7 °C 3,2 km/h (1 Bft)
15.11.2016 15:05 4,3 °C 4,3 °C 87 % 1030,6 hPa 0,0 mm 2,2 km/h (1 Bft) W 281 ° 0 min 0,000 mm 0,5 UV-I 74 W/m² 2,3 °C 3,2 km/h (1 Bft)
15.11.2016 15:06 4,3 °C 4,3 °C 88 % 1030,6 hPa 0,0 mm 3,1 km/h (1 Bft) W 281 ° 0 min 0,000 mm 0,5 UV-I 74 W/m² 2,5 °C 4,8 km/h (1 Bft)
15.11.2016 15:07 4,3 °C 4,3 °C 89 % 1030,6 hPa 0,0 mm 2,1 km/h (1 Bft) W 281 ° 0 min 0,000 mm 0,5 UV-I 74 W/m² 2,7 °C 3,2 km/h (1 Bft)
15.11.2016 15:08 4,3 °C 4,3 °C 90 % 1030,6 hPa 0,0 mm 1,3 km/h (1 Bft) W 281 ° 0 min 0,000 mm 0,5 UV-I 72 W/m² 2,8 °C 1,6 km/h (1 Bft)
15.11.2016 15:09 4,3 °C 4,3 °C 90 % 1030,6 hPa 0,0 mm 0,2 km/h (0 Bft) W 281 ° 0 min 0,000 mm 0,5 UV-I 69 W/m² 2,8 °C 1,6 km/h (1 Bft)
15.11.2016 15:10 4,3 °C 4,3 °C 90 % 1030,6 hPa 0,0 mm 1,4 km/h (1 Bft) W 281 ° 0 min 0,000 mm 0,5 UV-I 65 W/m² 2,8 °C 3,2 km/h (1 Bft)
15.11.2016 15:11 4,3 °C 4,3 °C 90 % 1030,6 hPa 0,0 mm 1,1 km/h (1 Bft) W 281 ° 0 min 0,000 mm 0,5 UV-I 65 W/m² 2,8 °C 3,2 km/h (1 Bft)
15.11.2016 15:12 4,3 °C 4,3 °C 90 % 1030,6 hPa 0,0 mm 1,9 km/h (1 Bft) W 281 ° 0 min 0,000 mm 0,5 UV-I 63 W/m² 2,8 °C 4,8 km/h (1 Bft)
15.11.2016 15:13 4,3 °C 4,3 °C 90 % 1030,6 hPa 0,0 mm 1,8 km/h (1 Bft) W 281 ° 0 min 0,000 mm 0,0 UV-I 53 W/m² 2,8 °C 3,2 km/h (1 Bft)
15.11.2016 15:14 4,3 °C 4,3 °C 90 % 1030,6 hPa 0,0 mm 2,4 km/h (1 Bft) W 281 ° 0 min 0,000 mm 0,0 UV-I 46 W/m² 2,8 °C 3,2 km/h (1 Bft)
15.11.2016 15:15 4,3 °C 4,3 °C 90 % 1030,6 hPa 0,0 mm 2,7 km/h (1 Bft) W 281 ° 0 min 0,000 mm 0,0 UV-I 39 W/m² 2,8 °C 3,2 km/h (1 Bft)
15.11.2016 15:16 4,3 °C 4,3 °C 90 % 1030,6 hPa 0,0 mm 2,9 km/h (1 Bft) W 281 ° 0 min 0,000 mm 0,0 UV-I 35 W/m² 2,8 °C 4,8 km/h (1 Bft)
15.11.2016 15:17 4,3 °C 4,3 °C 90 % 1030,6 hPa 0,0 mm 2,5 km/h (1 Bft) W 281 ° 0 min 0,000 mm 0,0 UV-I 33 W/m² 2,8 °C 3,2 km/h (1 Bft)
15.11.2016 15:18 4,3 °C 4,3 °C 90 % 1030,6 hPa 0,0 mm 2,7 km/h (1 Bft) W 281 ° 0 min 0,000 mm 0,0 UV-I 32 W/m² 2,8 °C 3,2 km/h (1 Bft)
15.11.2016 15:19 4,3 °C 4,3 °C 90 % 1030,6 hPa 0,0 mm 1,7 km/h (1 Bft) W 281 ° 0 min 0,000 mm 0,0 UV-I 33 W/m² 2,8 °C 3,2 km/h (1 Bft)
15.11.2016 15:20 4,3 °C 4,3 °C 90 % 1030,6 hPa 0,0 mm 1,5 km/h (1 Bft) W 281 ° 0 min 0,000 mm 0,0 UV-I 37 W/m² 2,8 °C 3,2 km/h (1 Bft)
15.11.2016 15:21 4,2 °C 4,3 °C 90 % 1030,7 hPa 0,0 mm 1,7 km/h (1 Bft) W 281 ° 0 min 0,000 mm 0,0 UV-I 39 W/m² 2,7 °C 3,2 km/h (1 Bft)
15.11.2016 15:22 4,2 °C 4,3 °C 90 % 1030,6 hPa 0,0 mm 1,7 km/h (1 Bft) W 281 ° 0 min 0,000 mm 0,0 UV-I 42 W/m² 2,7 °C 3,2 km/h (1 Bft)
15.11.2016 15:23 4,2 °C 4,2 °C 91 % 1030,6 hPa 0,0 mm 1,6 km/h (1 Bft) W 281 ° 0 min 0,000 mm 0,0 UV-I 44 W/m² 2,9 °C 3,2 km/h (1 Bft)
15.11.2016 15:24 4,2 °C 4,2 °C 91 % 1030,6 hPa 0,0 mm 0,7 km/h (0 Bft) W 281 ° 0 min 0,000 mm 0,0 UV-I 46 W/m² 2,9 °C 1,6 km/h (1 Bft)
15.11.2016 15:25 4,1 °C 4,2 °C 91 % 1030,6 hPa 0,0 mm 1,9 km/h (1 Bft) W 281 ° 0 min 0,000 mm 0,0 UV-I 46 W/m² 2,8 °C 3,2 km/h (1 Bft)
15.11.2016 15:26 4,1 °C 4,1 °C 91 % 1030,6 hPa 0,0 mm 2,0 km/h (1 Bft) W 281 ° 0 min 0,000 mm 0,0 UV-I 44 W/m² 2,8 °C 3,2 km/h (1 Bft)
15.11.2016 15:27 4,0 °C 4,1 °C 91 % 1030,8 hPa 0,0 mm 1,4 km/h (1 Bft) W 281 ° 0 min 0,000 mm 0,0 UV-I 42 W/m² 2,7 °C 3,2 km/h (1 Bft)
15.11.2016 15:28 4,0 °C 4,1 °C 90 % 1030,7 hPa 0,0 mm 1,9 km/h (1 Bft) W 281 ° 0 min 0,000 mm 0,0 UV-I 42 W/m² 2,5 °C 3,2 km/h (1 Bft)
15.11.2016 15:29 3,9 °C 4,0 °C 90 % 1030,7 hPa 0,0 mm 1,5 km/h (1 Bft) W 281 ° 0 min 0,000 mm 0,0 UV-I 42 W/m² 2,4 °C 3,2 km/h (1 Bft)
15.11.2016 15:30 3,9 °C 4,0 °C 90 % 1030,7 hPa 0,0 mm 2,0 km/h (1 Bft) W 281 ° 0 min 0,000 mm 0,0 UV-I 44 W/m² 2,4 °C 3,2 km/h (1 Bft)
15.11.2016 15:31 3,8 °C 3,9 °C 90 % 1030,7 hPa 0,0 mm 1,0 km/h (0 Bft) W 281 ° 0 min 0,000 mm 0,0 UV-I 47 W/m² 2,3 °C 3,2 km/h (1 Bft)
15.11.2016 15:32 3,8 °C 3,9 °C 90 % 1030,7 hPa 0,0 mm 1,0 km/h (0 Bft) W 281 ° 0 min 0,000 mm 0,0 UV-I 51 W/m² 2,3 °C 1,6 km/h (1 Bft)
15.11.2016 15:33 3,8 °C 3,8 °C 90 % 1030,7 hPa 0,0 mm 0,5 km/h (0 Bft) W 281 ° 0 min 0,000 mm 0,0 UV-I 53 W/m² 2,3 °C 1,6 km/h (1 Bft)
15.11.2016 15:34 3,7 °C 3,8 °C 90 % 1030,7 hPa 0,0 mm 0,0 km/h (0 Bft) W 281 ° 0 min 0,000 mm 0,0 UV-I 53 W/m² 2,2 °C 0,0 km/h (0 Bft)
15.11.2016 15:35 3,7 °C 3,7 °C 91 % 1030,7 hPa 0,0 mm 0,0 km/h (0 Bft) W 281 ° 0 min 0,000 mm 0,0 UV-I 51 W/m² 2,4 °C 0,0 km/h (0 Bft)
15.11.2016 15:36 3,6 °C 3,7 °C 91 % 1030,7 hPa 0,0 mm 0,9 km/h (0 Bft) W 281 ° 0 min 0,000 mm 0,0 UV-I 49 W/m² 2,3 °C 1,6 km/h (1 Bft)
15.11.2016 15:37 3,6 °C 3,7 °C 91 % 1030,7 hPa 0,0 mm 0,2 km/h (0 Bft) W 281 ° 0 min 0,000 mm 0,0 UV-I 44 W/m² 2,3 °C 1,6 km/h (1 Bft)
15.11.2016 15:38 3,6 °C 3,6 °C 91 % 1030,7 hPa 0,0 mm 0,4 km/h (0 Bft) W 281 ° 0 min 0,000 mm 0,0 UV-I 42 W/m² 2,3 °C 1,6 km/h (1 Bft)
15.11.2016 15:39 3,6 °C 3,6 °C 91 % 1030,7 hPa 0,0 mm 0,8 km/h (0 Bft) W 281 ° 0 min 0,000 mm 0,0 UV-I 44 W/m² 2,3 °C 3,2 km/h (1 Bft)
15.11.2016 15:40 3,6 °C 3,6 °C 91 % 1030,7 hPa 0,0 mm 1,3 km/h (1 Bft) W 281 ° 0 min 0,000 mm 0,0 UV-I 46 W/m² 2,3 °C 3,2 km/h (1 Bft)
15.11.2016 15:41 3,6 °C 3,7 °C 91 % 1030,7 hPa 0,0 mm 0,3 km/h (0 Bft) W 281 ° 0 min 0,000 mm 0,0 UV-I 47 W/m² 2,3 °C 1,6 km/h (1 Bft)
15.11.2016 15:42 3,7 °C 3,7 °C 90 % 1030,7 hPa 0,0 mm 0,5 km/h (0 Bft) W 281 ° 0 min 0,000 mm 0,0 UV-I 51 W/m² 2,2 °C 1,6 km/h (1 Bft)
15.11.2016 15:43 3,7 °C 3,7 °C 90 % 1030,7 hPa 0,0 mm 1,8 km/h (1 Bft) W 281 ° 0 min 0,000 mm 0,0 UV-I 54 W/m² 2,2 °C 3,2 km/h (1 Bft)
15.11.2016 15:44 3,8 °C 3,8 °C 90 % 1030,7 hPa 0,0 mm 0,9 km/h (0 Bft) W 281 ° 0 min 0,000 mm 0,0 UV-I 54 W/m² 2,3 °C 3,2 km/h (1 Bft)
15.11.2016 15:45 3,8 °C 3,8 °C 91 % 1030,7 hPa 0,0 mm 1,1 km/h (1 Bft) S-SW 200 ° 0 min 0,000 mm 0,0 UV-I 54 W/m² 2,5 °C 4,8 km/h (1 Bft)
15.11.2016 15:46 3,8 °C 3,8 °C 90 % 1030,7 hPa 0,0 mm 0,9 km/h (0 Bft) S-SW 200 ° 0 min 0,000 mm 0,0 UV-I 53 W/m² 2,3 °C 1,6 km/h (1 Bft)
15.11.2016 15:47 3,8 °C 3,8 °C 90 % 1030,7 hPa 0,0 mm 0,1 km/h (0 Bft) S-SW 200 ° 0 min 0,000 mm 0,0 UV-I 51 W/m² 2,3 °C 1,6 km/h (1 Bft)
15.11.2016 15:48 3,9 °C 3,9 °C 90 % 1030,7 hPa 0,0 mm 0,9 km/h (0 Bft) S-SW 200 ° 0 min 0,000 mm 0,0 UV-I 49 W/m² 2,4 °C 1,6 km/h (1 Bft)
15.11.2016 15:49 3,9 °C 3,9 °C 90 % 1030,7 hPa 0,0 mm 1,3 km/h (1 Bft) S-SW 205 ° 0 min 0,000 mm 0,0 UV-I 47 W/m² 2,4 °C 3,2 km/h (1 Bft)
15.11.2016 15:50 3,9 °C 3,9 °C 90 % 1030,7 hPa 0,0 mm 2,1 km/h (1 Bft) S-SW 205 ° 0 min 0,000 mm 0,0 UV-I 46 W/m² 2,4 °C 3,2 km/h (1 Bft)
15.11.2016 15:51 3,9 °C 3,9 °C 89 % 1030,7 hPa 0,0 mm 1,5 km/h (1 Bft) S-SW 205 ° 0 min 0,000 mm 0,0 UV-I 46 W/m² 2,3 °C 3,2 km/h (1 Bft)
15.11.2016 15:52 3,8 °C 3,9 °C 90 % 1030,7 hPa 0,0 mm 2,2 km/h (1 Bft) S-SW 202 ° 0 min 0,000 mm 0,0 UV-I 44 W/m² 2,3 °C 3,2 km/h (1 Bft)
15.11.2016 15:53 3,8 °C 3,8 °C 90 % 1030,6 hPa 0,0 mm 0,6 km/h (0 Bft) S-SW 202 ° 0 min 0,000 mm 0,0 UV-I 42 W/m² 2,3 °C 1,6 km/h (1 Bft)
15.11.2016 15:54 3,7 °C 3,8 °C 90 % 1030,6 hPa 0,0 mm 0,7 km/h (0 Bft) S-SW 202 ° 0 min 0,000 mm 0,0 UV-I 37 W/m² 2,2 °C 3,2 km/h (1 Bft)
15.11.2016 15:55 3,6 °C 3,7 °C 90 % 1030,7 hPa 0,0 mm 0,3 km/h (0 Bft) S-SW 202 ° 0 min 0,000 mm 0,0 UV-I 33 W/m² 2,1 °C 1,6 km/h (1 Bft)
15.11.2016 15:56 3,6 °C 3,6 °C 90 % 1030,6 hPa 0,0 mm 0,0 km/h (0 Bft) S-SW 202 ° 0 min 0,000 mm 0,0 UV-I 30 W/m² 2,1 °C 0,0 km/h (0 Bft)
15.11.2016 15:57 3,5 °C 3,6 °C 91 % 1030,7 hPa 0,0 mm 0,0 km/h (0 Bft) S-SW 202 ° 0 min 0,000 mm 0,0 UV-I 28 W/m² 2,2 °C 0,0 km/h (0 Bft)
15.11.2016 15:58 3,5 °C 3,6 °C 91 % 1030,7 hPa 0,0 mm 0,1 km/h (0 Bft) S-SW 202 ° 0 min 0,000 mm 0,0 UV-I 25 W/m² 2,2 °C 1,6 km/h (1 Bft)
15.11.2016 15:59 3,5 °C 3,5 °C 89 % 1030,7 hPa 0,0 mm 2,1 km/h (1 Bft) S-SW 202 ° 0 min 0,000 mm 0,0 UV-I 21 W/m² 1,9 °C 3,2 km/h (1 Bft)
15.11.2016 16:00 3,6 °C 3,6 °C 89 % 1030,7 hPa 0,0 mm 1,1 km/h (1 Bft) S-SW 202 ° 0 min 0,026 mm 0,0 UV-I 16 W/m² 2,0 °C 1,6 km/h (1 Bft)
15.11.2016 16:01 3,6 °C 3,6 °C 89 % 1030,7 hPa 0,0 mm 3,9 km/h (1 Bft) S-SW 200 ° 0 min 0,000 mm 0,0 UV-I 14 W/m² 2,0 °C 6,4 km/h (2 Bft)
15.11.2016 16:02 3,6 °C 3,6 °C 88 % 1030,7 hPa 0,0 mm 2,4 km/h (1 Bft) S-SW 200 ° 0 min 0,000 mm 0,0 UV-I 14 W/m² 1,8 °C 4,8 km/h (1 Bft)
15.11.2016 16:03 3,6 °C 3,6 °C 88 % 1030,7 hPa 0,0 mm 3,2 km/h (1 Bft) S-SW 200 ° 0 min 0,000 mm 0,0 UV-I 14 W/m² 1,8 °C 4,8 km/h (1 Bft)
15.11.2016 16:04 3,6 °C 3,6 °C 89 % 1030,6 hPa 0,0 mm 3,5 km/h (1 Bft) S-SW 200 ° 0 min 0,000 mm 0,0 UV-I 12 W/m² 2,0 °C 4,8 km/h (1 Bft)
15.11.2016 16:05 3,6 °C 3,6 °C 89 % 1030,6 hPa 0,0 mm 4,6 km/h (1 Bft) S 184 ° 0 min 0,000 mm 0,0 UV-I 12 W/m² 2,0 °C 8,0 km/h (2 Bft)
15.11.2016 16:06 3,6 °C 3,6 °C 89 % 1030,6 hPa 0,0 mm 1,7 km/h (1 Bft) S-SW 202 ° 0 min 0,000 mm 0,0 UV-I 12 W/m² 2,0 °C 4,8 km/h (1 Bft)
15.11.2016 16:07 3,4 °C 3,6 °C 89 % 1030,5 hPa 0,0 mm 2,0 km/h (1 Bft) S 179 ° 0 min 0,000 mm 0,0 UV-I 12 W/m² 1,8 °C 4,8 km/h (1 Bft)
15.11.2016 16:08 3,4 °C 3,4 °C 90 % 1030,5 hPa 0,0 mm 0,1 km/h (0 Bft) S 179 ° 0 min 0,000 mm 0,0 UV-I 12 W/m² 1,9 °C 1,6 km/h (1 Bft)
15.11.2016 16:09 3,3 °C 3,4 °C 90 % 1030,5 hPa 0,0 mm 0,5 km/h (0 Bft) S 179 ° 0 min 0,000 mm 0,0 UV-I 12 W/m² 1,8 °C 1,6 km/h (1 Bft)
15.11.2016 16:10 3,2 °C 3,3 °C 91 % 1030,5 hPa 0,0 mm 0,1 km/h (0 Bft) S 179 ° 0 min 0,000 mm 0,0 UV-I 12 W/m² 1,9 °C 1,6 km/h (1 Bft)
15.11.2016 16:11 3,2 °C 3,2 °C 91 % 1030,6 hPa 0,0 mm 1,0 km/h (0 Bft) SW 230 ° 0 min 0,000 mm 0,0 UV-I 12 W/m² 1,9 °C 4,8 km/h (1 Bft)
15.11.2016 16:12 3,2 °C 3,2 °C 91 % 1030,6 hPa 0,0 mm 2,1 km/h (1 Bft) S 189 ° 0 min 0,000 mm 0,0 UV-I 12 W/m² 1,9 °C 4,8 km/h (1 Bft)
15.11.2016 16:13 3,2 °C 3,2 °C 91 % 1030,5 hPa 0,0 mm 0,5 km/h (0 Bft) S 189 ° 0 min 0,000 mm 0,0 UV-I 12 W/m² 1,9 °C 1,6 km/h (1 Bft)
15.11.2016 16:14 3,2 °C 3,2 °C 91 % 1030,6 hPa 0,0 mm 0,2 km/h (0 Bft) S 189 ° 0 min 0,000 mm 0,0 UV-I 12 W/m² 1,9 °C 1,6 km/h (1 Bft)
15.11.2016 16:15 3,2 °C 3,2 °C 91 % 1030,6 hPa 0,0 mm 0,9 km/h (0 Bft) S 189 ° 0 min 0,000 mm 0,0 UV-I 12 W/m² 1,9 °C 1,6 km/h (1 Bft)
15.11.2016 16:16 3,1 °C 3,2 °C 91 % 1030,5 hPa 0,0 mm 3,0 km/h (1 Bft) W-SW 237 ° 0 min 0,000 mm 0,0 UV-I 12 W/m² 1,8 °C 6,4 km/h (2 Bft)
15.11.2016 16:17 3,1 °C 3,1 °C 91 % 1030,6 hPa 0,0 mm 2,8 km/h (1 Bft) W-SW 240 ° 0 min 0,000 mm 0,0 UV-I 12 W/m² 1,8 °C 4,8 km/h (1 Bft)
15.11.2016 16:18 3,1 °C 3,1 °C 90 % 1030,6 hPa 0,0 mm 1,9 km/h (1 Bft) W-SW 240 ° 0 min 0,000 mm 0,0 UV-I 11 W/m² 1,6 °C 3,2 km/h (1 Bft)
15.11.2016 16:19 3,1 °C 3,1 °C 90 % 1030,6 hPa 0,0 mm 1,4 km/h (1 Bft) SW 232 ° 0 min 0,000 mm 0,0 UV-I 11 W/m² 1,6 °C 3,2 km/h (1 Bft)
15.11.2016 16:20 3,2 °C 3,2 °C 90 % 1030,6 hPa 0,0 mm 3,2 km/h (1 Bft) S-SW 194 ° 0 min 0,000 mm 0,0 UV-I 11 W/m² 1,7 °C 3,2 km/h (1 Bft)
15.11.2016 16:21 3,2 °C 3,2 °C 91 % 1030,6 hPa 0,0 mm 1,2 km/h (1 Bft) S-SW 195 ° 0 min 0,000 mm 0,0 UV-I 9 W/m² 1,9 °C 3,2 km/h (1 Bft)
15.11.2016 16:22 3,2 °C 3,2 °C 91 % 1030,6 hPa 0,0 mm 4,7 km/h (1 Bft) S-SW 202 ° 0 min 0,000 mm 0,0 UV-I 9 W/m² 1,9 °C 6,4 km/h (2 Bft)
15.11.2016 16:23 3,2 °C 3,2 °C 91 % 1030,6 hPa 0,0 mm 3,4 km/h (1 Bft) W-SW 243 ° 0 min 0,000 mm 0,0 UV-I 9 W/m² 1,9 °C 4,8 km/h (1 Bft)
15.11.2016 16:24 3,2 °C 3,2 °C 91 % 1030,6 hPa 0,0 mm 3,3 km/h (1 Bft) S-SW 209 ° 0 min 0,000 mm 0,0 UV-I 7 W/m² 1,9 °C 8,0 km/h (2 Bft)
15.11.2016 16:25 3,2 °C 3,2 °C 91 % 1030,5 hPa 0,0 mm 5,3 km/h (1 Bft) S-SW 207 ° 0 min 0,000 mm 0,0 UV-I 7 W/m² 1,9 °C 8,0 km/h (2 Bft)
15.11.2016 16:26 3,2 °C 3,2 °C 91 % 1030,6 hPa 0,0 mm 2,2 km/h (1 Bft) S-SW 207 ° 0 min 0,000 mm 0,0 UV-I 7 W/m² 1,9 °C 3,2 km/h (1 Bft)
15.11.2016 16:27 3,1 °C 3,2 °C 91 % 1030,5 hPa 0,0 mm 4,2 km/h (1 Bft) S-SW 202 ° 0 min 0,000 mm 0,0 UV-I 7 W/m² 1,8 °C 6,4 km/h (2 Bft)
15.11.2016 16:28 3,1 °C 3,2 °C 91 % 1030,5 hPa 0,0 mm 3,8 km/h (1 Bft) SW 236 ° 0 min 0,000 mm 0,0 UV-I 5 W/m² 1,8 °C 6,4 km/h (2 Bft)
15.11.2016 16:29 3,1 °C 3,2 °C 91 % 1030,5 hPa 0,0 mm 2,7 km/h (1 Bft) S-SW 204 ° 0 min 0,000 mm 0,0 UV-I 5 W/m² 1,8 °C 4,8 km/h (1 Bft)
15.11.2016 16:30 3,2 °C 3,2 °C 91 % 1030,5 hPa 0,0 mm 3,0 km/h (1 Bft) S-SW 208 ° 0 min 0,000 mm 0,0 UV-I 5 W/m² 1,9 °C 6,4 km/h (2 Bft)
15.11.2016 16:31 3,2 °C 3,2 °C 91 % 1030,4 hPa 0,0 mm 4,4 km/h (1 Bft) S-SW 213 ° 0 min 0,000 mm 0,0 UV-I 5 W/m² 1,9 °C 6,4 km/h (2 Bft)
15.11.2016 16:32 3,1 °C 3,2 °C 91 % 1030,4 hPa 0,0 mm 3,4 km/h (1 Bft) SO 140 ° 0 min 0,000 mm 0,0 UV-I 0 W/m² 1,8 °C 6,4 km/h (2 Bft)
15.11.2016 16:33 3,1 °C 3,1 °C 91 % 1030,4 hPa 0,0 mm 5,3 km/h (1 Bft) S-SW 198 ° 0 min 0,000 mm 0,0 UV-I 0 W/m² 1,8 °C 8,0 km/h (2 Bft)
15.11.2016 16:34 3,1 °C 3,1 °C 91 % 1030,4 hPa 0,0 mm 4,6 km/h (1 Bft) S-SW 192 ° 0 min 0,000 mm 0,0 UV-I 0 W/m² 1,8 °C 8,0 km/h (2 Bft)
15.11.2016 16:35 3,1 °C 3,1 °C 91 % 1030,4 hPa 0,0 mm 2,6 km/h (1 Bft) SW 215 ° 0 min 0,000 mm 0,0 UV-I 0 W/m² 1,8 °C 4,8 km/h (1 Bft)
15.11.2016 16:36 3,1 °C 3,1 °C 91 % 1030,4 hPa 0,0 mm 2,6 km/h (1 Bft) SW 219 ° 0 min 0,000 mm 0,0 UV-I 0 W/m² 1,8 °C 4,8 km/h (1 Bft)
15.11.2016 16:37 3,1 °C 3,1 °C 91 % 1030,4 hPa 0,0 mm 4,4 km/h (1 Bft) S-SW 210 ° 0 min 0,000 mm 0,0 UV-I 0 W/m² 1,8 °C 8,0 km/h (2 Bft)
15.11.2016 16:38 3,0 °C 3,1 °C 91 % 1030,5 hPa 0,0 mm 5,7 km/h (1 Bft) S-SW 205 ° 0 min 0,000 mm 0,0 UV-I 0 W/m² 1,7 °C 9,7 km/h (2 Bft)
15.11.2016 16:39 3,0 °C 3,0 °C 91 % 1030,5 hPa 0,0 mm 4,7 km/h (1 Bft) S-SW 208 ° 0 min 0,000 mm 0,0 UV-I 0 W/m² 1,7 °C 8,0 km/h (2 Bft)
15.11.2016 16:40 3,0 °C 3,0 °C 91 % 1030,5 hPa 0,0 mm 6,8 km/h (2 Bft) S-SW 201 ° 0 min 0,000 mm 0,0 UV-I 0 W/m² 1,7 °C 9,7 km/h (2 Bft)
15.11.2016 16:41 3,0 °C 3,0 °C 91 % 1030,5 hPa 0,0 mm 6,5 km/h (2 Bft) S-SW 200 ° 0 min 0,000 mm 0,0 UV-I 0 W/m² 1,7 °C 9,7 km/h (2 Bft)
15.11.2016 16:42 3,0 °C 3,0 °C 91 % 1030,5 hPa 0,0 mm 2,8 km/h (1 Bft) S 183 ° 0 min 0,000 mm 0,0 UV-I 0 W/m² 1,7 °C 4,8 km/h (1 Bft)
15.11.2016 16:43 3,0 °C 3,0 °C 91 % 1030,4 hPa 0,0 mm 0,3 km/h (0 Bft) S 183 ° 0 min 0,000 mm 0,0 UV-I 0 W/m² 1,7 °C 1,6 km/h (1 Bft)
15.11.2016 16:44 3,0 °C 3,1 °C 91 % 1030,4 hPa 0,0 mm 2,5 km/h (1 Bft) SW 221 ° 0 min 0,000 mm 0,0 UV-I 0 W/m² 1,7 °C 4,8 km/h (1 Bft)
15.11.2016 16:45 3,0 °C 3,1 °C 91 % 1030,4 hPa 0,0 mm 1,7 km/h (1 Bft) S 180 ° 0 min 0,000 mm 0,0 UV-I 0 W/m² 1,7 °C 3,2 km/h (1 Bft)
15.11.2016 16:46 3,0 °C 3,0 °C 91 % 1030,5 hPa 0,0 mm 2,1 km/h (1 Bft) S-SW 200 ° 0 min 0,000 mm 0,0 UV-I 0 W/m² 1,7 °C 4,8 km/h (1 Bft)
15.11.2016 16:47 3,0 °C 3,0 °C 91 % 1030,5 hPa 0,0 mm 4,4 km/h (1 Bft) SW 221 ° 0 min 0,000 mm 0,0 UV-I 0 W/m² 1,7 °C 6,4 km/h (2 Bft)
15.11.2016 16:48 3,1 °C 3,1 °C 91 % 1030,5 hPa 0,0 mm 2,7 km/h (1 Bft) S 186 ° 0 min 0,000 mm 0,0 UV-I 0 W/m² 1,8 °C 4,8 km/h (1 Bft)
15.11.2016 16:49 3,0 °C 3,1 °C 90 % 1030,5 hPa 0,0 mm 2,2 km/h (1 Bft) S 187 ° 0 min 0,000 mm 0,0 UV-I 0 W/m² 1,5 °C 4,8 km/h (1 Bft)
15.11.2016 16:50 3,0 °C 3,0 °C 90 % 1030,5 hPa 0,0 mm 3,7 km/h (1 Bft) S 186 ° 0 min 0,000 mm 0,0 UV-I 0 W/m² 1,5 °C 6,4 km/h (2 Bft)
15.11.2016 16:51 3,0 °C 3,0 °C 90 % 1030,5 hPa 0,0 mm 5,8 km/h (2 Bft) SW 223 ° 0 min 0,000 mm 0,0 UV-I 0 W/m² 1,5 °C 11,3 km/h (2 Bft)
15.11.2016 16:52 3,0 °C 3,0 °C 90 % 1030,5 hPa 0,0 mm 5,3 km/h (1 Bft) S 185 ° 0 min 0,000 mm 0,0 UV-I 0 W/m² 1,5 °C 8,0 km/h (2 Bft)
15.11.2016 16:53 3,0 °C 3,0 °C 90 % 1030,5 hPa 0,0 mm 1,7 km/h (1 Bft) S 185 ° 0 min 0,000 mm 0,0 UV-I 0 W/m² 1,5 °C 3,2 km/h (1 Bft)
15.11.2016 16:54 3,0 °C 3,0 °C 90 % 1030,5 hPa 0,0 mm 0,6 km/h (0 Bft) S 185 ° 0 min 0,000 mm 0,0 UV-I 0 W/m² 1,5 °C 1,6 km/h (1 Bft)
15.11.2016 16:55 3,0 °C 3,0 °C 90 % 1030,5 hPa 0,0 mm 4,2 km/h (1 Bft) W-SW 246 ° 0 min 0,000 mm 0,0 UV-I 0 W/m² 1,5 °C 6,4 km/h (2 Bft)
15.11.2016 16:56 3,0 °C 3,0 °C 90 % 1030,6 hPa 0,0 mm 5,5 km/h (1 Bft) S-SW 211 ° 0 min 0,000 mm 0,0 UV-I 0 W/m² 1,5 °C 9,7 km/h (2 Bft)
15.11.2016 16:57 3,0 °C 3,0 °C 89 % 1030,6 hPa 0,0 mm 3,5 km/h (1 Bft) S-SW 198 ° 0 min 0,000 mm 0,0 UV-I 0 W/m² 1,4 °C 6,4 km/h (2 Bft)
15.11.2016 16:58 3,0 °C 3,0 °C 89 % 1030,6 hPa 0,0 mm 2,6 km/h (1 Bft) W 263 ° 0 min 0,000 mm 0,0 UV-I 0 W/m² 1,4 °C 4,8 km/h (1 Bft)
15.11.2016 16:59 3,0 °C 3,0 °C 90 % 1030,6 hPa 0,0 mm 1,7 km/h (1 Bft) W 269 ° 0 min 0,000 mm 0,0 UV-I 0 W/m² 1,5 °C 4,8 km/h (1 Bft)
15.11.2016 17:00 3,0 °C 3,0 °C 90 % 1030,7 hPa 0,0 mm 4,2 km/h (1 Bft) S-SW 195 ° 0 min 0,000 mm 0,0 UV-I 0 W/m² 1,5 °C 4,8 km/h (1 Bft)
15.11.2016 17:01 3,0 °C 3,0 °C 90 % 1030,7 hPa 0,0 mm 4,0 km/h (1 Bft) S-SW 209 ° 0 min 0,000 mm 0,0 UV-I 0 W/m² 1,5 °C 6,4 km/h (2 Bft)
15.11.2016 17:02 2,9 °C 3,0 °C 89 % 1030,7 hPa 0,0 mm 3,8 km/h (1 Bft) S-SO 150 ° 0 min 0,000 mm 0,0 UV-I 0 W/m² 1,3 °C 8,0 km/h (2 Bft)
15.11.2016 17:03 3,0 °C 3,0 °C 89 % 1030,7 hPa 0,0 mm 0,4 km/h (0 Bft) S-SO 150 ° 0 min 0,000 mm 0,0 UV-I 0 W/m² 1,4 °C 1,6 km/h (1 Bft)
15.11.2016 17:04 2,9 °C 3,0 °C 89 % 1030,8 hPa 0,0 mm 3,1 km/h (1 Bft) S 190 ° 0 min 0,000 mm 0,0 UV-I 0 W/m² 1,3 °C 4,8 km/h (1 Bft)
15.11.2016 17:05 3,0 °C 3,0 °C 88 % 1030,7 hPa 0,0 mm 2,9 km/h (1 Bft) S-SW 196 ° 0 min 0,000 mm 0,0 UV-I 0 W/m² 1,2 °C 4,8 km/h (1 Bft)
15.11.2016 17:06 2,9 °C 3,0 °C 88 % 1030,8 hPa 0,0 mm 3,0 km/h (1 Bft) S-SW 195 ° 0 min 0,000 mm 0,0 UV-I 0 W/m² 1,1 °C 6,4 km/h (2 Bft)
15.11.2016 17:07 3,0 °C 3,0 °C 88 % 1030,8 hPa 0,0 mm 2,2 km/h (1 Bft) S 184 ° 0 min 0,000 mm 0,0 UV-I 0 W/m² 1,2 °C 4,8 km/h (1 Bft)
15.11.2016 17:08 3,0 °C 3,0 °C 88 % 1030,8 hPa 0,0 mm 2,0 km/h (1 Bft) S-SW 199 ° 0 min 0,000 mm 0,0 UV-I 0 W/m² 1,2 °C 3,2 km/h (1 Bft)
15.11.2016 17:09 3,0 °C 3,0 °C 88 % 1030,8 hPa 0,0 mm 2,8 km/h (1 Bft) S-SW 192 ° 0 min 0,000 mm 0,0 UV-I 0 W/m² 1,2 °C 6,4 km/h (2 Bft)
15.11.2016 17:10 3,0 °C 3,0 °C 86 % 1030,8 hPa 0,0 mm 5,6 km/h (1 Bft) S-SW 196 ° 0 min 0,000 mm 0,0 UV-I 0 W/m² 0,9 °C 8,0 km/h (2 Bft)
15.11.2016 17:11 3,0 °C 3,0 °C 86 % 1030,8 hPa 0,0 mm 5,1 km/h (1 Bft) S-SW 202 ° 0 min 0,000 mm 0,0 UV-I 0 W/m² 0,9 °C 8,0 km/h (2 Bft)
15.11.2016 17:12 3,1 °C 3,1 °C 86 % 1030,8 hPa 0,0 mm 6,0 km/h (2 Bft) S-SO 166 ° 0 min 0,000 mm 0,0 UV-I 0 W/m² 1,0 °C 8,0 km/h (2 Bft)
15.11.2016 17:13 3,1 °C 3,1 °C 86 % 1030,8 hPa 0,0 mm 4,2 km/h (1 Bft) S-SW 196 ° 0 min 0,000 mm 0,0 UV-I 0 W/m² 1,0 °C 6,4 km/h (2 Bft)
15.11.2016 17:14 3,1 °C 3,1 °C 87 % 1030,8 hPa 0,0 mm 5,3 km/h (1 Bft) S 188 ° 0 min 0,000 mm 0,0 UV-I 0 W/m² 1,2 °C 8,0 km/h (2 Bft)
15.11.2016 17:15 3,1 °C 3,1 °C 86 % 1030,8 hPa 0,0 mm 5,2 km/h (1 Bft) S 184 ° 0 min 0,000 mm 0,0 UV-I 0 W/m² 1,0 °C 8,0 km/h (2 Bft)
15.11.2016 17:16 3,1 °C 3,1 °C 87 % 1030,9 hPa 0,0 mm 4,7 km/h (1 Bft) S-SO 160 ° 0 min 0,000 mm 0,0 UV-I 0 W/m² 1,2 °C 6,4 km/h (2 Bft)
15.11.2016 17:17 3,1 °C 3,1 °C 87 % 1030,9 hPa 0,0 mm 5,1 km/h (1 Bft) S-SO 163 ° 0 min 0,000 mm 0,0 UV-I 0 W/m² 1,2 °C 6,4 km/h (2 Bft)
15.11.2016 17:18 3,1 °C 3,1 °C 87 % 1030,8 hPa 0,0 mm 2,5 km/h (1 Bft) S-SW 204 ° 0 min 0,000 mm 0,0 UV-I 0 W/m² 1,2 °C 6,4 km/h (2 Bft)
15.11.2016 17:19 3,1 °C 3,1 °C 87 % 1030,9 hPa 0,0 mm 2,3 km/h (1 Bft) S-SW 204 ° 0 min 0,000 mm 0,0 UV-I 0 W/m² 1,2 °C 4,8 km/h (1 Bft)
15.11.2016 17:20 3,1 °C 3,1 °C 88 % 1030,8 hPa 0,0 mm 2,5 km/h (1 Bft) S-SW 204 ° 0 min 0,000 mm 0,0 UV-I 0 W/m² 1,3 °C 3,2 km/h (1 Bft)
15.11.2016 17:21 3,1 °C 3,1 °C 88 % 1030,8 hPa 0,0 mm 1,9 km/h (1 Bft) SW 220 ° 0 min 0,000 mm 0,0 UV-I 0 W/m² 1,3 °C 3,2 km/h (1 Bft)
15.11.2016 17:22 3,1 °C 3,1 °C 88 % 1030,8 hPa 0,0 mm 2,4 km/h (1 Bft) SW 219 ° 0 min 0,000 mm 0,0 UV-I 0 W/m² 1,3 °C 3,2 km/h (1 Bft)
15.11.2016 17:23 3,1 °C 3,1 °C 88 % 1030,9 hPa 0,0 mm 1,8 km/h (1 Bft) SW 219 ° 0 min 0,000 mm 0,0 UV-I 0 W/m² 1,3 °C 3,2 km/h (1 Bft)
15.11.2016 17:24 3,1 °C 3,1 °C 88 % 1030,8 hPa 0,0 mm 3,2 km/h (1 Bft) S 190 ° 0 min 0,000 mm 0,0 UV-I 0 W/m² 1,3 °C 4,8 km/h (1 Bft)
15.11.2016 17:25 3,1 °C 3,1 °C 86 % 1030,8 hPa 0,0 mm 2,7 km/h (1 Bft) S 191 ° 0 min 0,000 mm 0,0 UV-I 0 W/m² 1,0 °C 6,4 km/h (2 Bft)
15.11.2016 17:26 3,1 °C 3,1 °C 86 % 1030,9 hPa 0,0 mm 3,3 km/h (1 Bft) S 188 ° 0 min 0,000 mm 0,0 UV-I 0 W/m² 1,0 °C 4,8 km/h (1 Bft)
15.11.2016 17:27 3,1 °C 3,1 °C 86 % 1030,9 hPa 0,0 mm 3,5 km/h (1 Bft) S-SW 202 ° 0 min 0,000 mm 0,0 UV-I 0 W/m² 1,0 °C 4,8 km/h (1 Bft)
15.11.2016 17:28 3,1 °C 3,1 °C 85 % 1030,9 hPa 0,0 mm 3,8 km/h (1 Bft) S-SW 200 ° 0 min 0,000 mm 0,0 UV-I 0 W/m² 0,8 °C 6,4 km/h (2 Bft)
15.11.2016 17:29 3,1 °C 3,1 °C 85 % 1031,0 hPa 0,0 mm 4,8 km/h (1 Bft) S 187 ° 0 min 0,000 mm 0,0 UV-I 0 W/m² 0,8 °C 6,4 km/h (2 Bft)
15.11.2016 17:30 3,1 °C 3,1 °C 85 % 1030,9 hPa 0,0 mm 2,2 km/h (1 Bft) S 187 ° 0 min 0,000 mm 0,0 UV-I 0 W/m² 0,8 °C 3,2 km/h (1 Bft)
15.11.2016 17:31 3,1 °C 3,1 °C 85 % 1030,9 hPa 0,0 mm 3,2 km/h (1 Bft) S 190 ° 0 min 0,000 mm 0,0 UV-I 0 W/m² 0,8 °C 4,8 km/h (1 Bft)
15.11.2016 17:32 3,1 °C 3,1 °C 85 % 1031,0 hPa 0,0 mm 3,8 km/h (1 Bft) S 190 ° 0 min 0,000 mm 0,0 UV-I 0 W/m² 0,8 °C 6,4 km/h (2 Bft)
15.11.2016 17:33 3,1 °C 3,1 °C 85 % 1030,9 hPa 0,0 mm 2,7 km/h (1 Bft) S-SW 192 ° 0 min 0,000 mm 0,0 UV-I 0 W/m² 0,8 °C 3,2 km/h (1 Bft)
15.11.2016 17:34 3,1 °C 3,1 °C 84 % 1030,9 hPa 0,0 mm 3,0 km/h (1 Bft) S-SW 193 ° 0 min 0,000 mm 0,0 UV-I 0 W/m² 0,7 °C 4,8 km/h (1 Bft)
15.11.2016 17:35 3,1 °C 3,1 °C 85 % 1030,9 hPa 0,0 mm 2,0 km/h (1 Bft) S-SW 197 ° 0 min 0,000 mm 0,0 UV-I 0 W/m² 0,8 °C 4,8 km/h (1 Bft)
15.11.2016 17:36 3,1 °C 3,1 °C 85 % 1030,9 hPa 0,0 mm 0,3 km/h (0 Bft) S-SW 198 ° 0 min 0,000 mm 0,0 UV-I 0 W/m² 0,8 °C 1,6 km/h (1 Bft)
15.11.2016 17:37 3,1 °C 3,1 °C 85 % 1030,9 hPa 0,0 mm 2,3 km/h (1 Bft) S-SW 197 ° 0 min 0,000 mm 0,0 UV-I 0 W/m² 0,8 °C 4,8 km/h (1 Bft)
15.11.2016 17:38 3,1 °C 3,1 °C 85 % 1030,8 hPa 0,0 mm 2,1 km/h (1 Bft) S-SW 197 ° 0 min 0,000 mm 0,0 UV-I 0 W/m² 0,8 °C 3,2 km/h (1 Bft)
15.11.2016 17:39 3,1 °C 3,1 °C 86 % 1030,8 hPa 0,0 mm 2,3 km/h (1 Bft) S-SW 197 ° 0 min 0,000 mm 0,0 UV-I 0 W/m² 1,0 °C 3,2 km/h (1 Bft)
15.11.2016 17:40 3,1 °C 3,1 °C 86 % 1030,7 hPa 0,0 mm 3,0 km/h (1 Bft) S-SW 197 ° 0 min 0,000 mm 0,0 UV-I 0 W/m² 1,0 °C 4,8 km/h (1 Bft)
15.11.2016 17:41 3,1 °C 3,1 °C 86 % 1030,8 hPa 0,0 mm 2,2 km/h (1 Bft) SW 215 ° 0 min 0,000 mm 0,0 UV-I 0 W/m² 1,0 °C 3,2 km/h (1 Bft)
15.11.2016 17:42 3,1 °C 3,1 °C 86 % 1030,8 hPa 0,0 mm 1,7 km/h (1 Bft) SW 215 ° 0 min 0,000 mm 0,0 UV-I 0 W/m² 1,0 °C 3,2 km/h (1 Bft)
15.11.2016 17:43 3,1 °C 3,1 °C 85 % 1030,8 hPa 0,0 mm 3,4 km/h (1 Bft) S-SW 194 ° 0 min 0,000 mm 0,0 UV-I 0 W/m² 0,8 °C 6,4 km/h (2 Bft)
15.11.2016 17:44 3,1 °C 3,1 °C 84 % 1030,8 hPa 0,0 mm 3,1 km/h (1 Bft) S-SW 207 ° 0 min 0,000 mm 0,0 UV-I 0 W/m² 0,7 °C 4,8 km/h (1 Bft)
15.11.2016 17:45 3,1 °C 3,1 °C 83 % 1030,8 hPa 0,0 mm 2,0 km/h (1 Bft) S-SW 207 ° 0 min 0,000 mm 0,0 UV-I 0 W/m² 0,5 °C 3,2 km/h (1 Bft)
15.11.2016 17:46 3,1 °C 3,1 °C 83 % 1030,7 hPa 0,0 mm 1,7 km/h (1 Bft) S-SW 207 ° 0 min 0,000 mm 0,0 UV-I 0 W/m² 0,5 °C 3,2 km/h (1 Bft)
15.11.2016 17:47 3,1 °C 3,1 °C 82 % 1030,7 hPa 0,0 mm 1,3 km/h (1 Bft) S-SW 207 ° 0 min 0,000 mm 0,0 UV-I 0 W/m² 0,3 °C 3,2 km/h (1 Bft)
15.11.2016 17:48 3,1 °C 3,1 °C 82 % 1030,7 hPa 0,0 mm 0,1 km/h (0 Bft) S-SW 207 ° 0 min 0,000 mm 0,0 UV-I 0 W/m² 0,3 °C 1,6 km/h (1 Bft)
15.11.2016 17:49 3,1 °C 3,1 °C 84 % 1030,7 hPa 0,0 mm 0,7 km/h (0 Bft) S-SW 207 ° 0 min 0,000 mm 0,0 UV-I 0 W/m² 0,7 °C 1,6 km/h (1 Bft)
15.11.2016 17:50 3,1 °C 3,1 °C 85 % 1030,7 hPa 0,0 mm 0,0 km/h (0 Bft) S-SW 207 ° 0 min 0,000 mm 0,0 UV-I 0 W/m² 0,8 °C 0,0 km/h (0 Bft)
15.11.2016 17:51 3,1 °C 3,1 °C 85 % 1030,7 hPa 0,0 mm 1,6 km/h (1 Bft) S-SO 151 ° 0 min 0,000 mm 0,0 UV-I 0 W/m² 0,8 °C 3,2 km/h (1 Bft)
15.11.2016 17:52 3,1 °C 3,1 °C 84 % 1030,7 hPa 0,0 mm 2,5 km/h (1 Bft) S-SW 197 ° 0 min 0,000 mm 0,0 UV-I 0 W/m² 0,7 °C 4,8 km/h (1 Bft)
15.11.2016 17:53 3,1 °C 3,1 °C 83 % 1030,7 hPa 0,0 mm 1,7 km/h (1 Bft) S-SW 197 ° 0 min 0,000 mm 0,0 UV-I 0 W/m² 0,5 °C 3,2 km/h (1 Bft)
15.11.2016 17:54 3,1 °C 3,1 °C 82 % 1030,7 hPa 0,0 mm 1,0 km/h (0 Bft) S-SW 197 ° 0 min 0,000 mm 0,0 UV-I 0 W/m² 0,3 °C 1,6 km/h (1 Bft)
15.11.2016 17:55 3,1 °C 3,1 °C 82 % 1030,7 hPa 0,0 mm 1,7 km/h (1 Bft) SW 227 ° 0 min 0,000 mm 0,0 UV-I 0 W/m² 0,3 °C 4,8 km/h (1 Bft)
15.11.2016 17:56 3,1 °C 3,1 °C 82 % 1030,7 hPa 0,0 mm 3,2 km/h (1 Bft) SW 227 ° 0 min 0,000 mm 0,0 UV-I 0 W/m² 0,3 °C 4,8 km/h (1 Bft)
15.11.2016 17:57 3,1 °C 3,1 °C 82 % 1030,7 hPa 0,0 mm 1,4 km/h (1 Bft) SW 227 ° 0 min 0,000 mm 0,0 UV-I 0 W/m² 0,3 °C 1,6 km/h (1 Bft)
15.11.2016 17:58 3,1 °C 3,1 °C 82 % 1030,8 hPa 0,0 mm 2,7 km/h (1 Bft) SW 215 ° 0 min 0,000 mm 0,0 UV-I 0 W/m² 0,3 °C 4,8 km/h (1 Bft)
15.11.2016 17:59 3,1 °C 3,1 °C 82 % 1030,8 hPa 0,0 mm 2,6 km/h (1 Bft) S-SW 200 ° 0 min 0,000 mm 0,0 UV-I 0 W/m² 0,3 °C 4,8 km/h (1 Bft)
15.11.2016 18:00 3,1 °C 3,1 °C 82 % 1030,7 hPa 0,0 mm 2,7 km/h (1 Bft) S-SW 196 ° 0 min 0,000 mm 0,0 UV-I 0 W/m² 0,3 °C 4,8 km/h (1 Bft)
15.11.2016 18:01 3,1 °C 3,1 °C 83 % 1030,7 hPa 0,0 mm 4,2 km/h (1 Bft) S-SW 193 ° 0 min 0,000 mm 0,0 UV-I 0 W/m² 0,5 °C 6,4 km/h (2 Bft)
15.11.2016 18:02 3,1 °C 3,1 °C 83 % 1030,7 hPa 0,0 mm 4,4 km/h (1 Bft) S-SW 202 ° 0 min 0,000 mm 0,0 UV-I 0 W/m² 0,5 °C 6,4 km/h (2 Bft)
15.11.2016 18:03 3,1 °C 3,1 °C 83 % 1030,7 hPa 0,0 mm 1,3 km/h (1 Bft) S-SW 201 ° 0 min 0,000 mm 0,0 UV-I 0 W/m² 0,5 °C 3,2 km/h (1 Bft)
15.11.2016 18:04 3,1 °C 3,1 °C 84 % 1030,7 hPa 0,0 mm 3,2 km/h (1 Bft) S-SW 205 ° 0 min 0,000 mm 0,0 UV-I 0 W/m² 0,7 °C 4,8 km/h (1 Bft)
15.11.2016 18:05 3,1 °C 3,1 °C 84 % 1030,7 hPa 0,0 mm 2,7 km/h (1 Bft) S-SW 205 ° 0 min 0,000 mm 0,0 UV-I 0 W/m² 0,7 °C 4,8 km/h (1 Bft)
15.11.2016 18:06 3,1 °C 3,1 °C 85 % 1030,7 hPa 0,0 mm 4,0 km/h (1 Bft) S 178 ° 0 min 0,000 mm 0,0 UV-I 0 W/m² 0,8 °C 4,8 km/h (1 Bft)
15.11.2016 18:07 3,1 °C 3,1 °C 85 % 1030,7 hPa 0,0 mm 2,8 km/h (1 Bft) S 178 ° 0 min 0,000 mm 0,0 UV-I 0 W/m² 0,8 °C 4,8 km/h (1 Bft)
15.11.2016 18:08 3,1 °C 3,1 °C 85 % 1030,6 hPa 0,0 mm 0,7 km/h (0 Bft) S 178 ° 0 min 0,000 mm 0,0 UV-I 0 W/m² 0,8 °C 1,6 km/h (1 Bft)
15.11.2016 18:09 3,1 °C 3,1 °C 85 % 1030,6 hPa 0,0 mm 1,3 km/h (1 Bft) S 176 ° 0 min 0,000 mm 0,0 UV-I 0 W/m² 0,8 °C 3,2 km/h (1 Bft)
15.11.2016 18:10 3,1 °C 3,1 °C 85 % 1030,6 hPa 0,0 mm 1,8 km/h (1 Bft) S 169 ° 0 min 0,000 mm 0,0 UV-I 0 W/m² 0,8 °C 3,2 km/h (1 Bft)
15.11.2016 18:11 3,1 °C 3,1 °C 85 % 1030,6 hPa 0,0 mm 2,4 km/h (1 Bft) S 169 ° 0 min 0,000 mm 0,0 UV-I 0 W/m² 0,8 °C 6,4 km/h (2 Bft)
15.11.2016 18:12 3,0 °C 3,1 °C 85 % 1030,6 hPa 0,0 mm 3,4 km/h (1 Bft) S-SO 155 ° 0 min 0,000 mm 0,0 UV-I 0 W/m² 0,7 °C 6,4 km/h (2 Bft)
15.11.2016 18:13 3,0 °C 3,0 °C 85 % 1030,5 hPa 0,0 mm 2,1 km/h (1 Bft) S-SO 155 ° 0 min 0,000 mm 0,0 UV-I 0 W/m² 0,7 °C 3,2 km/h (1 Bft)
15.11.2016 18:14 3,0 °C 3,1 °C 86 % 1030,5 hPa 0,0 mm 0,8 km/h (0 Bft) W-SW 254 ° 0 min 0,000 mm 0,0 UV-I 0 W/m² 0,9 °C 1,6 km/h (1 Bft)
15.11.2016 18:15 3,0 °C 3,0 °C 86 % 1030,4 hPa 0,0 mm 1,2 km/h (1 Bft) W-SW 254 ° 0 min 0,000 mm 0,0 UV-I 0 W/m² 0,9 °C 1,6 km/h (1 Bft)
15.11.2016 18:16 3,0 °C 3,0 °C 86 % 1030,5 hPa 0,0 mm 1,1 km/h (1 Bft) W-SW 254 ° 0 min 0,000 mm 0,0 UV-I 0 W/m² 0,9 °C 1,6 km/h (1 Bft)
15.11.2016 18:17 2,9 °C 3,0 °C 86 % 1030,4 hPa 0,0 mm 1,0 km/h (0 Bft) S-SW 198 ° 0 min 0,000 mm 0,0 UV-I 0 W/m² 0,8 °C 3,2 km/h (1 Bft)
15.11.2016 18:18 2,9 °C 2,9 °C 85 % 1030,4 hPa 0,0 mm 2,7 km/h (1 Bft) S-SW 193 ° 0 min 0,000 mm 0,0 UV-I 0 W/m² 0,6 °C 4,8 km/h (1 Bft)
15.11.2016 18:19 2,9 °C 2,9 °C 85 % 1030,3 hPa 0,0 mm 0,5 km/h (0 Bft) S-SW 193 ° 0 min 0,000 mm 0,0 UV-I 0 W/m² 0,6 °C 1,6 km/h (1 Bft)
15.11.2016 18:20 2,9 °C 2,9 °C 85 % 1030,4 hPa 0,0 mm 1,0 km/h (0 Bft) S-SW 193 ° 0 min 0,000 mm 0,0 UV-I 0 W/m² 0,6 °C 1,6 km/h (1 Bft)
15.11.2016 18:21 2,9 °C 2,9 °C 85 % 1030,4 hPa 0,0 mm 0,5 km/h (0 Bft) S-SW 193 ° 0 min 0,000 mm 0,0 UV-I 0 W/m² 0,6 °C 1,6 km/h (1 Bft)
15.11.2016 18:22 2,9 °C 2,9 °C 86 % 1030,4 hPa 0,0 mm 0,4 km/h (0 Bft) S-SW 193 ° 0 min 0,000 mm 0,0 UV-I 0 W/m² 0,8 °C 1,6 km/h (1 Bft)
15.11.2016 18:23 2,9 °C 2,9 °C 85 % 1030,3 hPa 0,0 mm 0,5 km/h (0 Bft) S-SW 193 ° 0 min 0,000 mm 0,0 UV-I 0 W/m² 0,6 °C 1,6 km/h (1 Bft)
15.11.2016 18:24 2,9 °C 2,9 °C 86 % 1030,4 hPa 0,0 mm 0,0 km/h (0 Bft) S-SW 193 ° 0 min 0,000 mm 0,0 UV-I 0 W/m² 0,8 °C 0,0 km/h (0 Bft)
15.11.2016 18:25 2,8 °C 2,9 °C 86 % 1030,4 hPa 0,0 mm 1,0 km/h (0 Bft) S-SW 193 ° 0 min 0,000 mm 0,0 UV-I 0 W/m² 0,7 °C 1,6 km/h (1 Bft)
15.11.2016 18:26 2,8 °C 2,9 °C 86 % 1030,4 hPa 0,0 mm 0,5 km/h (0 Bft) S-SW 193 ° 0 min 0,000 mm 0,0 UV-I 0 W/m² 0,7 °C 1,6 km/h (1 Bft)
15.11.2016 18:27 2,8 °C 2,8 °C 86 % 1030,4 hPa 0,0 mm 0,0 km/h (0 Bft) S-SW 193 ° 0 min 0,000 mm 0,0 UV-I 0 W/m² 0,7 °C 0,0 km/h (0 Bft)
15.11.2016 18:28 2,8 °C 2,8 °C 86 % 1030,4 hPa 0,0 mm 0,1 km/h (0 Bft) S-SW 193 ° 0 min 0,000 mm 0,0 UV-I 0 W/m² 0,7 °C 1,6 km/h (1 Bft)
15.11.2016 18:29 2,8 °C 2,8 °C 86 % 1030,4 hPa 0,0 mm 1,3 km/h (1 Bft) S-SW 193 ° 0 min 0,000 mm 0,0 UV-I 0 W/m² 0,7 °C 1,6 km/h (1 Bft)
15.11.2016 18:30 2,8 °C 2,8 °C 86 % 1030,4 hPa 0,0 mm 0,1 km/h (0 Bft) S-SW 193 ° 0 min 0,000 mm 0,0 UV-I 0 W/m² 0,7 °C 1,6 km/h (1 Bft)
15.11.2016 18:31 2,8 °C 2,8 °C 86 % 1030,4 hPa 0,0 mm 0,0 km/h (0 Bft) S-SW 193 ° 0 min 0,000 mm 0,0 UV-I 0 W/m² 0,7 °C 0,0 km/h (0 Bft)
15.11.2016 18:32 2,8 °C 2,8 °C 86 % 1030,4 hPa 0,0 mm 0,0 km/h (0 Bft) S-SW 193 ° 0 min 0,000 mm 0,0 UV-I 0 W/m² 0,7 °C 0,0 km/h (0 Bft)
15.11.2016 18:33 2,8 °C 2,8 °C 87 % 1030,3 hPa 0,0 mm 1,3 km/h (1 Bft) S-SW 193 ° 0 min 0,000 mm 0,0 UV-I 0 W/m² 0,9 °C 3,2 km/h (1 Bft)
15.11.2016 18:34 2,8 °C 2,8 °C 86 % 1030,3 hPa 0,0 mm 2,2 km/h (1 Bft) S-SW 193 ° 0 min 0,000 mm 0,0 UV-I 0 W/m² 0,7 °C 3,2 km/h (1 Bft)
15.11.2016 18:35 2,8 °C 2,8 °C 86 % 1030,3 hPa 0,0 mm 1,9 km/h (1 Bft) S-SW 193 ° 0 min 0,000 mm 0,0 UV-I 0 W/m² 0,7 °C 3,2 km/h (1 Bft)
15.11.2016 18:36 2,7 °C 2,8 °C 86 % 1030,3 hPa 0,0 mm 1,1 km/h (1 Bft) S-SW 193 ° 0 min 0,000 mm 0,0 UV-I 0 W/m² 0,6 °C 1,6 km/h (1 Bft)
15.11.2016 18:37 2,7 °C 2,8 °C 87 % 1030,3 hPa 0,0 mm 0,3 km/h (0 Bft) S-SW 193 ° 0 min 0,000 mm 0,0 UV-I 0 W/m² 0,8 °C 1,6 km/h (1 Bft)
15.11.2016 18:38 2,7 °C 2,7 °C 87 % 1030,3 hPa 0,0 mm 0,0 km/h (0 Bft) S-SW 193 ° 0 min 0,000 mm 0,0 UV-I 0 W/m² 0,8 °C 0,0 km/h (0 Bft)
15.11.2016 18:39 2,7 °C 2,7 °C 87 % 1030,3 hPa 0,0 mm 0,0 km/h (0 Bft) S-SW 193 ° 0 min 0,000 mm 0,0 UV-I 0 W/m² 0,8 °C 0,0 km/h (0 Bft)
15.11.2016 18:40 2,7 °C 2,7 °C 87 % 1030,3 hPa 0,0 mm 0,6 km/h (0 Bft) S-SW 193 ° 0 min 0,000 mm 0,0 UV-I 0 W/m² 0,8 °C 1,6 km/h (1 Bft)
15.11.2016 18:41 2,7 °C 2,7 °C 87 % 1030,3 hPa 0,0 mm 1,5 km/h (1 Bft) S-SW 193 ° 0 min 0,000 mm 0,0 UV-I 0 W/m² 0,8 °C 3,2 km/h (1 Bft)
15.11.2016 18:42 2,7 °C 2,7 °C 87 % 1030,3 hPa 0,0 mm 1,5 km/h (1 Bft) S-SW 193 ° 0 min 0,000 mm 0,0 UV-I 0 W/m² 0,8 °C 1,6 km/h (1 Bft)
15.11.2016 18:43 2,7 °C 2,7 °C 87 % 1030,3 hPa 0,0 mm 0,1 km/h (0 Bft) S-SW 193 ° 0 min 0,000 mm 0,0 UV-I 0 W/m² 0,8 °C 1,6 km/h (1 Bft)
15.11.2016 18:44 2,7 °C 2,7 °C 87 % 1030,3 hPa 0,0 mm 0,9 km/h (0 Bft) S-SW 193 ° 0 min 0,000 mm 0,0 UV-I 0 W/m² 0,8 °C 3,2 km/h (1 Bft)
15.11.2016 18:45 2,7 °C 2,7 °C 87 % 1030,4 hPa 0,0 mm 2,0 km/h (1 Bft) S-SW 193 ° 0 min 0,000 mm 0,0 UV-I 0 W/m² 0,8 °C 3,2 km/h (1 Bft)
15.11.2016 18:46 2,7 °C 2,7 °C 87 % 1030,5 hPa 0,0 mm 0,1 km/h (0 Bft) S-SW 193 ° 0 min 0,000 mm 0,0 UV-I 0 W/m² 0,8 °C 1,6 km/h (1 Bft)
15.11.2016 18:47 2,6 °C 2,7 °C 88 % 1030,5 hPa 0,0 mm 0,0 km/h (0 Bft) S-SW 193 ° 0 min 0,000 mm 0,0 UV-I 0 W/m² 0,8 °C 0,0 km/h (0 Bft)
15.11.2016 18:48 2,6 °C 2,6 °C 88 % 1030,5 hPa 0,0 mm 0,0 km/h (0 Bft) S-SW 193 ° 0 min 0,000 mm 0,0 UV-I 0 W/m² 0,8 °C 0,0 km/h (0 Bft)
15.11.2016 18:49 2,6 °C 2,6 °C 88 % 1030,5 hPa 0,0 mm 1,1 km/h (1 Bft) S-SW 193 ° 0 min 0,000 mm 0,0 UV-I 0 W/m² 0,8 °C 1,6 km/h (1 Bft)
15.11.2016 18:50 2,6 °C 2,6 °C 88 % 1030,6 hPa 0,0 mm 2,0 km/h (1 Bft) S-SW 193 ° 0 min 0,000 mm 0,0 UV-I 0 W/m² 0,8 °C 3,2 km/h (1 Bft)
15.11.2016 18:51 2,6 °C 2,6 °C 88 % 1030,5 hPa 0,0 mm 2,3 km/h (1 Bft) S-SW 193 ° 0 min 0,000 mm 0,0 UV-I 0 W/m² 0,8 °C 3,2 km/h (1 Bft)
15.11.2016 18:52 2,6 °C 2,6 °C 89 % 1030,5 hPa 0,0 mm 0,8 km/h (0 Bft) S-SW 193 ° 0 min 0,000 mm 0,0 UV-I 0 W/m² 1,0 °C 1,6 km/h (1 Bft)
15.11.2016 18:53 2,6 °C 2,6 °C 89 % 1030,6 hPa 0,0 mm 0,0 km/h (0 Bft) S-SW 193 ° 0 min 0,000 mm 0,0 UV-I 0 W/m² 1,0 °C 0,0 km/h (0 Bft)
15.11.2016 18:54 2,6 °C 2,6 °C 89 % 1030,5 hPa 0,0 mm 0,8 km/h (0 Bft) S-SW 193 ° 0 min 0,000 mm 0,0 UV-I 0 W/m² 1,0 °C 1,6 km/h (1 Bft)
15.11.2016 18:55 2,6 °C 2,6 °C 89 % 1030,5 hPa 0,0 mm 2,0 km/h (1 Bft) S-SW 193 ° 0 min 0,000 mm 0,0 UV-I 0 W/m² 1,0 °C 3,2 km/h (1 Bft)
15.11.2016 18:56 2,6 °C 2,6 °C 89 % 1030,6 hPa 0,0 mm 2,7 km/h (1 Bft) S-SW 193 ° 0 min 0,000 mm 0,0 UV-I 0 W/m² 1,0 °C 3,2 km/h (1 Bft)
15.11.2016 18:57 2,5 °C 2,6 °C 89 % 1030,5 hPa 0,0 mm 0,8 km/h (0 Bft) S-SW 193 ° 0 min 0,000 mm 0,0 UV-I 0 W/m² 0,9 °C 1,6 km/h (1 Bft)
15.11.2016 18:58 2,5 °C 2,6 °C 90 % 1030,5 hPa 0,0 mm 0,0 km/h (0 Bft) S-SW 193 ° 0 min 0,000 mm 0,0 UV-I 0 W/m² 1,0 °C 0,0 km/h (0 Bft)
15.11.2016 18:59 2,5 °C 2,5 °C 90 % 1030,6 hPa 0,0 mm 0,5 km/h (0 Bft) S-SW 193 ° 0 min 0,000 mm 0,0 UV-I 0 W/m² 1,0 °C 1,6 km/h (1 Bft)
15.11.2016 19:00 2,5 °C 2,5 °C 90 % 1030,6 hPa 0,0 mm 0,0 km/h (0 Bft) S-SW 193 ° 0 min 0,000 mm 0,0 UV-I 0 W/m² 1,0 °C 0,0 km/h (0 Bft)
15.11.2016 19:01 2,4 °C 2,5 °C 90 % 1030,6 hPa 0,0 mm 0,0 km/h (0 Bft) S-SW 193 ° 0 min 0,000 mm 0,0 UV-I 0 W/m² 0,9 °C 0,0 km/h (0 Bft)
15.11.2016 19:02 2,5 °C 2,5 °C 90 % 1030,6 hPa 0,0 mm 0,3 km/h (0 Bft) S-SW 193 ° 0 min 0,000 mm 0,0 UV-I 0 W/m² 1,0 °C 1,6 km/h (1 Bft)
15.11.2016 19:03 2,4 °C 2,5 °C 90 % 1030,6 hPa 0,0 mm 0,1 km/h (0 Bft) S-SW 193 ° 0 min 0,000 mm 0,0 UV-I 0 W/m² 0,9 °C 1,6 km/h (1 Bft)
15.11.2016 19:04 2,4 °C 2,4 °C 90 % 1030,6 hPa 0,0 mm 0,1 km/h (0 Bft) S-SW 193 ° 0 min 0,000 mm 0,0 UV-I 0 W/m² 0,9 °C 1,6 km/h (1 Bft)
15.11.2016 19:05 2,4 °C 2,4 °C 90 % 1030,6 hPa 0,0 mm 0,0 km/h (0 Bft) S-SW 193 ° 0 min 0,000 mm 0,0 UV-I 0 W/m² 0,9 °C 0,0 km/h (0 Bft)
15.11.2016 19:06 2,4 °C 2,4 °C 91 % 1030,6 hPa 0,0 mm 0,1 km/h (0 Bft) S-SW 193 ° 0 min 0,000 mm 0,0 UV-I 0 W/m² 1,1 °C 1,6 km/h (1 Bft)
15.11.2016 19:07 2,4 °C 2,4 °C 91 % 1030,6 hPa 0,0 mm 0,9 km/h (0 Bft) S-SW 193 ° 0 min 0,000 mm 0,0 UV-I 0 W/m² 1,1 °C 1,6 km/h (1 Bft)
15.11.2016 19:08 2,4 °C 2,4 °C 91 % 1030,6 hPa 0,0 mm 1,7 km/h (1 Bft) S-SW 193 ° 0 min 0,000 mm 0,0 UV-I 0 W/m² 1,1 °C 4,8 km/h (1 Bft)
15.11.2016 19:09 2,4 °C 2,4 °C 91 % 1030,6 hPa 0,0 mm 1,3 km/h (1 Bft) S-SW 193 ° 0 min 0,000 mm 0,0 UV-I 0 W/m² 1,1 °C 3,2 km/h (1 Bft)
15.11.2016 19:10 2,4 °C 2,4 °C 91 % 1030,6 hPa 0,0 mm 4,5 km/h (1 Bft) S-SW 193 ° 0 min 0,000 mm 0,0 UV-I 0 W/m² 1,1 °C 6,4 km/h (2 Bft)
15.11.2016 19:11 2,3 °C 2,4 °C 90 % 1030,5 hPa 0,0 mm 3,1 km/h (1 Bft) S 179 ° 0 min 0,000 mm 0,0 UV-I 0 W/m² 0,8 °C 4,8 km/h (1 Bft)
15.11.2016 19:12 2,4 °C 2,4 °C 90 % 1030,5 hPa 0,0 mm 3,4 km/h (1 Bft) S-SW 193 ° 0 min 0,000 mm 0,0 UV-I 0 W/m² 0,9 °C 6,4 km/h (2 Bft)
15.11.2016 19:13 2,4 °C 2,4 °C 90 % 1030,5 hPa 0,0 mm 2,7 km/h (1 Bft) S-SW 197 ° 0 min 0,000 mm 0,0 UV-I 0 W/m² 0,9 °C 4,8 km/h (1 Bft)
15.11.2016 19:14 2,4 °C 2,4 °C 90 % 1030,6 hPa 0,0 mm 1,1 km/h (1 Bft) S-SW 197 ° 0 min 0,000 mm 0,0 UV-I 0 W/m² 0,9 °C 3,2 km/h (1 Bft)
15.11.2016 19:15 2,4 °C 2,4 °C 89 % 1030,6 hPa 0,0 mm 1,7 km/h (1 Bft) S-SW 197 ° 0 min 0,000 mm 0,0 UV-I 0 W/m² 0,8 °C 3,2 km/h (1 Bft)
15.11.2016 19:16 2,4 °C 2,4 °C 88 % 1030,6 hPa 0,0 mm 2,9 km/h (1 Bft) S-SW 197 ° 0 min 0,000 mm 0,0 UV-I 0 W/m² 0,6 °C 4,8 km/h (1 Bft)
15.11.2016 19:17 2,4 °C 2,4 °C 89 % 1030,6 hPa 0,0 mm 0,7 km/h (0 Bft) S-SW 197 ° 0 min 0,000 mm 0,0 UV-I 0 W/m² 0,8 °C 1,6 km/h (1 Bft)
15.11.2016 19:18 2,4 °C 2,4 °C 90 % 1030,5 hPa 0,0 mm 0,1 km/h (0 Bft) S-SW 197 ° 0 min 0,000 mm 0,0 UV-I 0 W/m² 0,9 °C 1,6 km/h (1 Bft)
15.11.2016 19:19 2,4 °C 2,4 °C 90 % 1030,5 hPa 0,0 mm 0,4 km/h (0 Bft) S-SW 197 ° 0 min 0,000 mm 0,0 UV-I 0 W/m² 0,9 °C 1,6 km/h (1 Bft)
15.11.2016 19:20 2,4 °C 2,4 °C 90 % 1030,5 hPa 0,0 mm 0,1 km/h (0 Bft) S-SW 197 ° 0 min 0,000 mm 0,0 UV-I 0 W/m² 0,9 °C 1,6 km/h (1 Bft)
15.11.2016 19:21 2,5 °C 2,5 °C 90 % 1030,5 hPa 0,0 mm 0,4 km/h (0 Bft) S-SW 197 ° 0 min 0,000 mm 0,0 UV-I 0 W/m² 1,0 °C 1,6 km/h (1 Bft)
15.11.2016 19:22 2,5 °C 2,5 °C 90 % 1030,5 hPa 0,0 mm 0,9 km/h (0 Bft) S-SW 197 ° 0 min 0,000 mm 0,0 UV-I 0 W/m² 1,0 °C 1,6 km/h (1 Bft)
15.11.2016 19:23 2,4 °C 2,5 °C 90 % 1030,6 hPa 0,0 mm 1,9 km/h (1 Bft) SW 217 ° 0 min 0,000 mm 0,0 UV-I 0 W/m² 0,9 °C 4,8 km/h (1 Bft)
15.11.2016 19:24 2,5 °C 2,5 °C 90 % 1030,5 hPa 0,0 mm 2,6 km/h (1 Bft) SW 217 ° 0 min 0,000 mm 0,0 UV-I 0 W/m² 1,0 °C 4,8 km/h (1 Bft)
15.11.2016 19:25 2,5 °C 2,6 °C 90 % 1030,5 hPa 0,0 mm 2,5 km/h (1 Bft) S-SW 209 ° 0 min 0,000 mm 0,0 UV-I 0 W/m² 1,0 °C 4,8 km/h (1 Bft)
15.11.2016 19:26 2,6 °C 2,6 °C 89 % 1030,6 hPa 0,0 mm 4,2 km/h (1 Bft) S-SW 209 ° 0 min 0,000 mm 0,0 UV-I 0 W/m² 1,0 °C 6,4 km/h (2 Bft)
15.11.2016 19:27 2,6 °C 2,6 °C 89 % 1030,6 hPa 0,0 mm 3,1 km/h (1 Bft) S-SW 209 ° 0 min 0,000 mm 0,0 UV-I 0 W/m² 1,0 °C 3,2 km/h (1 Bft)
15.11.2016 19:28 2,6 °C 2,6 °C 89 % 1030,5 hPa 0,0 mm 3,1 km/h (1 Bft) S-SW 209 ° 0 min 0,000 mm 0,0 UV-I 0 W/m² 1,0 °C 4,8 km/h (1 Bft)
15.11.2016 19:29 2,6 °C 2,6 °C 90 % 1030,5 hPa 0,0 mm 2,8 km/h (1 Bft) S-SW 209 ° 0 min 0,000 mm 0,0 UV-I 0 W/m² 1,1 °C 4,8 km/h (1 Bft)
15.11.2016 19:30 2,6 °C 2,6 °C 90 % 1030,4 hPa 0,0 mm 6,6 km/h (2 Bft) S-SW 211 ° 0 min 0,000 mm 0,0 UV-I 0 W/m² 1,1 °C 9,7 km/h (2 Bft)
15.11.2016 19:31 2,6 °C 2,6 °C 90 % 1030,4 hPa 0,0 mm 4,3 km/h (1 Bft) SW 234 ° 0 min 0,000 mm 0,0 UV-I 0 W/m² 1,1 °C 6,4 km/h (2 Bft)
15.11.2016 19:32 2,6 °C 2,6 °C 90 % 1030,4 hPa 0,0 mm 5,6 km/h (1 Bft) S-SW 193 ° 0 min 0,000 mm 0,0 UV-I 0 W/m² 1,1 °C 8,0 km/h (2 Bft)
15.11.2016 19:33 2,6 °C 2,6 °C 90 % 1030,4 hPa 0,0 mm 2,5 km/h (1 Bft) W-SW 237 ° 0 min 0,000 mm 0,0 UV-I 0 W/m² 1,1 °C 4,8 km/h (1 Bft)
15.11.2016 19:34 2,6 °C 2,6 °C 90 % 1030,4 hPa 0,0 mm 2,5 km/h (1 Bft) W-SW 237 ° 0 min 0,000 mm 0,0 UV-I 0 W/m² 1,1 °C 3,2 km/h (1 Bft)
15.11.2016 19:35 2,6 °C 2,6 °C 90 % 1030,4 hPa 0,0 mm 0,1 km/h (0 Bft) W-SW 237 ° 0 min 0,000 mm 0,0 UV-I 0 W/m² 1,1 °C 1,6 km/h (1 Bft)
15.11.2016 19:36 2,6 °C 2,6 °C 90 % 1030,4 hPa 0,0 mm 0,0 km/h (0 Bft) W-SW 237 ° 0 min 0,000 mm 0,0 UV-I 0 W/m² 1,1 °C 0,0 km/h (0 Bft)
15.11.2016 19:37 2,6 °C 2,6 °C 90 % 1030,4 hPa 0,0 mm 0,0 km/h (0 Bft) W-SW 237 ° 0 min 0,000 mm 0,0 UV-I 0 W/m² 1,1 °C 0,0 km/h (0 Bft)
15.11.2016 19:38 2,6 °C 2,6 °C 90 % 1030,5 hPa 0,0 mm 0,5 km/h (0 Bft) W-SW 237 ° 0 min 0,000 mm 0,0 UV-I 0 W/m² 1,1 °C 1,6 km/h (1 Bft)
15.11.2016 19:39 2,6 °C 2,6 °C 90 % 1030,5 hPa 0,0 mm 1,0 km/h (0 Bft) W-SW 237 ° 0 min 0,000 mm 0,0 UV-I 0 W/m² 1,1 °C 3,2 km/h (1 Bft)
15.11.2016 19:40 2,6 °C 2,6 °C 90 % 1030,4 hPa 0,0 mm 0,7 km/h (0 Bft) W-SW 237 ° 0 min 0,000 mm 0,0 UV-I 0 W/m² 1,1 °C 3,2 km/h (1 Bft)
15.11.2016 19:41 2,6 °C 2,6 °C 90 % 1030,5 hPa 0,0 mm 2,7 km/h (1 Bft) W-SW 256 ° 0 min 0,000 mm 0,0 UV-I 0 W/m² 1,1 °C 4,8 km/h (1 Bft)
15.11.2016 19:42 2,6 °C 2,6 °C 90 % 1030,5 hPa 0,0 mm 1,1 km/h (1 Bft) W-SW 256 ° 0 min 0,000 mm 0,0 UV-I 0 W/m² 1,1 °C 1,6 km/h (1 Bft)
15.11.2016 19:43 2,6 °C 2,6 °C 90 % 1030,5 hPa 0,0 mm 1,6 km/h (1 Bft) W-SW 256 ° 0 min 0,000 mm 0,0 UV-I 0 W/m² 1,1 °C 3,2 km/h (1 Bft)
15.11.2016 19:44 2,6 °C 2,6 °C 90 % 1030,5 hPa 0,0 mm 2,4 km/h (1 Bft) W-SW 256 ° 0 min 0,000 mm 0,0 UV-I 0 W/m² 1,1 °C 3,2 km/h (1 Bft)
15.11.2016 19:45 2,6 °C 2,6 °C 90 % 1030,5 hPa 0,0 mm 2,3 km/h (1 Bft) W-SW 256 ° 0 min 0,000 mm 0,0 UV-I 0 W/m² 1,1 °C 3,2 km/h (1 Bft)
15.11.2016 19:46 2,6 °C 2,6 °C 91 % 1030,5 hPa 0,0 mm 3,1 km/h (1 Bft) W-SW 256 ° 0 min 0,000 mm 0,0 UV-I 0 W/m² 1,3 °C 3,2 km/h (1 Bft)
15.11.2016 19:47 2,6 °C 2,6 °C 91 % 1030,5 hPa 0,0 mm 1,3 km/h (1 Bft) W-SW 256 ° 0 min 0,000 mm 0,0 UV-I 0 W/m² 1,3 °C 3,2 km/h (1 Bft)
15.11.2016 19:48 2,6 °C 2,6 °C 91 % 1030,5 hPa 0,0 mm 1,0 km/h (0 Bft) W-SW 256 ° 0 min 0,000 mm 0,0 UV-I 0 W/m² 1,3 °C 1,6 km/h (1 Bft)
15.11.2016 19:49 2,6 °C 2,6 °C 91 % 1030,5 hPa 0,0 mm 1,3 km/h (1 Bft) W-SW 256 ° 0 min 0,000 mm 0,0 UV-I 0 W/m² 1,3 °C 1,6 km/h (1 Bft)
15.11.2016 19:50 2,6 °C 2,6 °C 91 % 1030,4 hPa 0,0 mm 1,2 km/h (1 Bft) W-SW 256 ° 0 min 0,000 mm 0,0 UV-I 0 W/m² 1,3 °C 3,2 km/h (1 Bft)
15.11.2016 19:51 2,6 °C 2,6 °C 91 % 1030,4 hPa 0,0 mm 0,2 km/h (0 Bft) W-SW 256 ° 0 min 0,000 mm 0,0 UV-I 0 W/m² 1,3 °C 1,6 km/h (1 Bft)
15.11.2016 19:52 2,6 °C 2,6 °C 91 % 1030,5 hPa 0,0 mm 3,2 km/h (1 Bft) W-SW 256 ° 0 min 0,000 mm 0,0 UV-I 0 W/m² 1,3 °C 4,8 km/h (1 Bft)
15.11.2016 19:53 2,6 °C 2,6 °C 91 % 1030,5 hPa 0,0 mm 2,5 km/h (1 Bft) W-SW 256 ° 0 min 0,000 mm 0,0 UV-I 0 W/m² 1,3 °C 4,8 km/h (1 Bft)
15.11.2016 19:54 2,6 °C 2,6 °C 91 % 1030,6 hPa 0,0 mm 3,8 km/h (1 Bft) W 261 ° 0 min 0,000 mm 0,0 UV-I 0 W/m² 1,3 °C 4,8 km/h (1 Bft)
15.11.2016 19:55 2,6 °C 2,6 °C 91 % 1030,6 hPa 0,0 mm 2,7 km/h (1 Bft) W 273 ° 0 min 0,000 mm 0,0 UV-I 0 W/m² 1,3 °C 4,8 km/h (1 Bft)
15.11.2016 19:56 2,5 °C 2,6 °C 91 % 1030,6 hPa 0,0 mm 3,0 km/h (1 Bft) W-SW 255 ° 0 min 0,000 mm 0,0 UV-I 0 W/m² 1,2 °C 4,8 km/h (1 Bft)
15.11.2016 19:57 2,5 °C 2,5 °C 91 % 1030,5 hPa 0,0 mm 2,4 km/h (1 Bft) W-SW 255 ° 0 min 0,000 mm 0,0 UV-I 0 W/m² 1,2 °C 3,2 km/h (1 Bft)
15.11.2016 19:58 2,4 °C 2,5 °C 91 % 1030,6 hPa 0,0 mm 3,0 km/h (1 Bft) W-SW 255 ° 0 min 0,000 mm 0,0 UV-I 0 W/m² 1,1 °C 4,8 km/h (1 Bft)
15.11.2016 19:59 2,4 °C 2,5 °C 91 % 1030,6 hPa 0,0 mm 4,2 km/h (1 Bft) W-SW 255 ° 0 min 0,000 mm 0,0 UV-I 0 W/m² 1,1 °C 4,8 km/h (1 Bft)
15.11.2016 20:00 2,4 °C 2,4 °C 91 % 1030,6 hPa 0,0 mm 2,8 km/h (1 Bft) W-SW 255 ° 0 min 0,000 mm 0,0 UV-I 0 W/m² 1,1 °C 3,2 km/h (1 Bft)
15.11.2016 20:01 2,4 °C 2,4 °C 91 % 1030,6 hPa 0,0 mm 2,3 km/h (1 Bft) W-SW 255 ° 0 min 0,000 mm 0,0 UV-I 0 W/m² 1,1 °C 3,2 km/h (1 Bft)
15.11.2016 20:02 2,4 °C 2,4 °C 91 % 1030,6 hPa 0,0 mm 2,7 km/h (1 Bft) W-SW 255 ° 0 min 0,000 mm 0,0 UV-I 0 W/m² 1,1 °C 3,2 km/h (1 Bft)
15.11.2016 20:03 2,4 °C 2,4 °C 91 % 1030,5 hPa 0,0 mm 2,3 km/h (1 Bft) W-SW 255 ° 0 min 0,000 mm 0,0 UV-I 0 W/m² 1,1 °C 3,2 km/h (1 Bft)
15.11.2016 20:04 2,4 °C 2,4 °C 91 % 1030,6 hPa 0,0 mm 4,2 km/h (1 Bft) S-SW 209 ° 0 min 0,000 mm 0,0 UV-I 0 W/m² 1,1 °C 4,8 km/h (1 Bft)
15.11.2016 20:05 2,3 °C 2,4 °C 92 % 1030,6 hPa 0,0 mm 3,2 km/h (1 Bft) S-SW 209 ° 0 min 0,000 mm 0,0 UV-I 0 W/m² 1,1 °C 4,8 km/h (1 Bft)
15.11.2016 20:06 2,3 °C 2,3 °C 91 % 1030,6 hPa 0,0 mm 3,5 km/h (1 Bft) S-SW 198 ° 0 min 0,000 mm 0,0 UV-I 0 W/m² 1,0 °C 4,8 km/h (1 Bft)
15.11.2016 20:07 2,3 °C 2,3 °C 92 % 1030,5 hPa 0,0 mm 3,8 km/h (1 Bft) S 177 ° 0 min 0,000 mm 0,0 UV-I 0 W/m² 1,1 °C 6,4 km/h (2 Bft)
15.11.2016 20:08 2,3 °C 2,3 °C 92 % 1030,5 hPa 0,0 mm 3,1 km/h (1 Bft) SO 142 ° 0 min 0,000 mm 0,0 UV-I 0 W/m² 1,1 °C 6,4 km/h (2 Bft)
15.11.2016 20:09 2,3 °C 2,3 °C 91 % 1030,5 hPa 0,0 mm 3,9 km/h (1 Bft) S 189 ° 0 min 0,000 mm 0,0 UV-I 0 W/m² 1,0 °C 6,4 km/h (2 Bft)
15.11.2016 20:10 2,3 °C 2,3 °C 91 % 1030,5 hPa 0,0 mm 2,1 km/h (1 Bft) S 189 ° 0 min 0,000 mm 0,0 UV-I 0 W/m² 1,0 °C 3,2 km/h (1 Bft)
15.11.2016 20:11 2,3 °C 2,3 °C 92 % 1030,4 hPa 0,0 mm 2,7 km/h (1 Bft) S 189 ° 0 min 0,000 mm 0,0 UV-I 0 W/m² 1,1 °C 3,2 km/h (1 Bft)
15.11.2016 20:12 2,3 °C 2,3 °C 92 % 1030,4 hPa 0,0 mm 2,4 km/h (1 Bft) S 189 ° 0 min 0,000 mm 0,0 UV-I 0 W/m² 1,1 °C 3,2 km/h (1 Bft)
15.11.2016 20:13 2,3 °C 2,3 °C 92 % 1030,4 hPa 0,0 mm 2,2 km/h (1 Bft) S 189 ° 0 min 0,000 mm 0,0 UV-I 0 W/m² 1,1 °C 3,2 km/h (1 Bft)
15.11.2016 20:14 2,3 °C 2,3 °C 92 % 1030,4 hPa 0,0 mm 0,9 km/h (0 Bft) S 189 ° 0 min 0,000 mm 0,0 UV-I 0 W/m² 1,1 °C 1,6 km/h (1 Bft)
15.11.2016 20:15 2,3 °C 2,3 °C 92 % 1030,3 hPa 0,0 mm 0,0 km/h (0 Bft) S 189 ° 0 min 0,000 mm 0,0 UV-I 0 W/m² 1,1 °C 0,0 km/h (0 Bft)
15.11.2016 20:16 2,3 °C 2,3 °C 92 % 1030,3 hPa 0,0 mm 0,7 km/h (0 Bft) S 189 ° 0 min 0,000 mm 0,0 UV-I 0 W/m² 1,1 °C 1,6 km/h (1 Bft)
15.11.2016 20:17 2,3 °C 2,3 °C 92 % 1030,3 hPa 0,0 mm 1,9 km/h (1 Bft) S 189 ° 0 min 0,000 mm 0,0 UV-I 0 W/m² 1,1 °C 3,2 km/h (1 Bft)
15.11.2016 20:18 2,3 °C 2,3 °C 92 % 1030,3 hPa 0,0 mm 0,1 km/h (0 Bft) S 189 ° 0 min 0,000 mm 0,0 UV-I 0 W/m² 1,1 °C 1,6 km/h (1 Bft)
15.11.2016 20:19 2,3 °C 2,3 °C 92 % 1030,3 hPa 0,0 mm 1,6 km/h (1 Bft) S 189 ° 0 min 0,000 mm 0,0 UV-I 0 W/m² 1,1 °C 3,2 km/h (1 Bft)
15.11.2016 20:20 2,3 °C 2,3 °C 92 % 1030,3 hPa 0,0 mm 0,6 km/h (0 Bft) S 190 ° 0 min 0,000 mm 0,0 UV-I 0 W/m² 1,1 °C 1,6 km/h (1 Bft)
15.11.2016 20:21 2,3 °C 2,3 °C 92 % 1030,3 hPa 0,0 mm 0,3 km/h (0 Bft) S 189 ° 0 min 0,000 mm 0,0 UV-I 0 W/m² 1,1 °C 1,6 km/h (1 Bft)
15.11.2016 20:22 2,3 °C 2,3 °C 92 % 1030,2 hPa 0,0 mm 0,0 km/h (0 Bft) S 189 ° 0 min 0,000 mm 0,0 UV-I 0 W/m² 1,1 °C 0,0 km/h (0 Bft)
15.11.2016 20:23 2,3 °C 2,3 °C 92 % 1030,2 hPa 0,0 mm 0,8 km/h (0 Bft) S 189 ° 0 min 0,000 mm 0,0 UV-I 0 W/m² 1,1 °C 1,6 km/h (1 Bft)
15.11.2016 20:24 2,3 °C 2,3 °C 92 % 1030,3 hPa 0,0 mm 0,1 km/h (0 Bft) S 189 ° 0 min 0,000 mm 0,0 UV-I 0 W/m² 1,1 °C 1,6 km/h (1 Bft)
15.11.2016 20:25 2,3 °C 2,3 °C 92 % 1030,3 hPa 0,0 mm 2,8 km/h (1 Bft) W-SW 258 ° 0 min 0,000 mm 0,0 UV-I 0 W/m² 1,1 °C 4,8 km/h (1 Bft)
15.11.2016 20:26 2,3 °C 2,3 °C 92 % 1030,2 hPa 0,0 mm 1,9 km/h (1 Bft) W-SW 258 ° 0 min 0,000 mm 0,0 UV-I 0 W/m² 1,1 °C 3,2 km/h (1 Bft)
15.11.2016 20:27 2,3 °C 2,3 °C 92 % 1030,3 hPa 0,0 mm 1,9 km/h (1 Bft) W-SW 258 ° 0 min 0,000 mm 0,0 UV-I 0 W/m² 1,1 °C 3,2 km/h (1 Bft)
15.11.2016 20:28 2,3 °C 2,3 °C 92 % 1030,3 hPa 0,0 mm 1,1 km/h (1 Bft) W-SW 258 ° 0 min 0,000 mm 0,0 UV-I 0 W/m² 1,1 °C 1,6 km/h (1 Bft)
15.11.2016 20:29 2,3 °C 2,3 °C 92 % 1030,3 hPa 0,0 mm 2,7 km/h (1 Bft) W-SW 258 ° 0 min 0,000 mm 0,0 UV-I 0 W/m² 1,1 °C 3,2 km/h (1 Bft)
15.11.2016 20:30 2,3 °C 2,3 °C 92 % 1030,3 hPa 0,0 mm 2,2 km/h (1 Bft) W-SW 258 ° 0 min 0,000 mm 0,0 UV-I 0 W/m² 1,1 °C 4,8 km/h (1 Bft)
15.11.2016 20:31 2,3 °C 2,3 °C 92 % 1030,3 hPa 0,0 mm 4,0 km/h (1 Bft) W-SW 257 ° 0 min 0,000 mm 0,0 UV-I 0 W/m² 1,1 °C 4,8 km/h (1 Bft)
15.11.2016 20:32 2,3 °C 2,3 °C 92 % 1030,3 hPa 0,0 mm 3,6 km/h (1 Bft) W-SW 257 ° 0 min 0,000 mm 0,0 UV-I 0 W/m² 1,1 °C 4,8 km/h (1 Bft)
15.11.2016 20:33 2,3 °C 2,3 °C 92 % 1030,3 hPa 0,0 mm 2,1 km/h (1 Bft) W-SW 257 ° 0 min 0,000 mm 0,0 UV-I 0 W/m² 1,1 °C 3,2 km/h (1 Bft)
15.11.2016 20:34 2,3 °C 2,3 °C 92 % 1030,3 hPa 0,0 mm 2,7 km/h (1 Bft) W-SW 257 ° 0 min 0,000 mm 0,0 UV-I 0 W/m² 1,1 °C 3,2 km/h (1 Bft)
15.11.2016 20:35 2,3 °C 2,3 °C 92 % 1030,3 hPa 0,0 mm 2,3 km/h (1 Bft) W-SW 257 ° 0 min 0,000 mm 0,0 UV-I 0 W/m² 1,1 °C 4,8 km/h (1 Bft)
15.11.2016 20:36 2,3 °C 2,3 °C 92 % 1030,3 hPa 0,0 mm 4,6 km/h (1 Bft) W-SW 257 ° 0 min 0,000 mm 0,0 UV-I 0 W/m² 1,1 °C 6,4 km/h (2 Bft)
15.11.2016 20:37 2,4 °C 2,4 °C 92 % 1030,3 hPa 0,0 mm 2,9 km/h (1 Bft) W-SW 257 ° 0 min 0,000 mm 0,0 UV-I 0 W/m² 1,2 °C 3,2 km/h (1 Bft)
15.11.2016 20:38 2,4 °C 2,4 °C 92 % 1030,3 hPa 0,0 mm 4,6 km/h (1 Bft) SW 233 ° 0 min 0,000 mm 0,0 UV-I 0 W/m² 1,2 °C 6,4 km/h (2 Bft)
15.11.2016 20:39 2,4 °C 2,4 °C 92 % 1030,3 hPa 0,0 mm 4,2 km/h (1 Bft) SW 233 ° 0 min 0,000 mm 0,0 UV-I 0 W/m² 1,2 °C 4,8 km/h (1 Bft)
15.11.2016 20:40 2,4 °C 2,4 °C 92 % 1030,3 hPa 0,0 mm 2,8 km/h (1 Bft) SW 233 ° 0 min 0,000 mm 0,0 UV-I 0 W/m² 1,2 °C 4,8 km/h (1 Bft)
15.11.2016 20:41 2,4 °C 2,4 °C 92 % 1030,3 hPa 0,0 mm 3,4 km/h (1 Bft) SW 221 ° 0 min 0,000 mm 0,0 UV-I 0 W/m² 1,2 °C 4,8 km/h (1 Bft)
15.11.2016 20:42 2,4 °C 2,4 °C 92 % 1030,3 hPa 0,0 mm 4,4 km/h (1 Bft) SW 215 ° 0 min 0,000 mm 0,0 UV-I 0 W/m² 1,2 °C 6,4 km/h (2 Bft)
15.11.2016 20:43 2,4 °C 2,4 °C 92 % 1030,3 hPa 0,0 mm 4,2 km/h (1 Bft) S-SW 194 ° 0 min 0,000 mm 0,0 UV-I 0 W/m² 1,2 °C 4,8 km/h (1 Bft)
15.11.2016 20:44 2,4 °C 2,4 °C 92 % 1030,2 hPa 0,0 mm 3,0 km/h (1 Bft) S-SO 148 ° 0 min 0,000 mm 0,0 UV-I 0 W/m² 1,2 °C 4,8 km/h (1 Bft)
15.11.2016 20:45 2,4 °C 2,4 °C 92 % 1030,2 hPa 0,0 mm 1,0 km/h (0 Bft) S-SO 148 ° 0 min 0,000 mm 0,0 UV-I 0 W/m² 1,2 °C 1,6 km/h (1 Bft)
15.11.2016 20:46 2,4 °C 2,4 °C 92 % 1030,2 hPa 0,0 mm 0,2 km/h (0 Bft) S-SO 148 ° 0 min 0,000 mm 0,0 UV-I 0 W/m² 1,2 °C 1,6 km/h (1 Bft)
15.11.2016 20:47 2,4 °C 2,4 °C 92 % 1030,2 hPa 0,0 mm 1,5 km/h (1 Bft) S-SO 148 ° 0 min 0,000 mm 0,0 UV-I 0 W/m² 1,2 °C 3,2 km/h (1 Bft)
15.11.2016 20:48 2,4 °C 2,5 °C 92 % 1030,2 hPa 0,0 mm 4,4 km/h (1 Bft) SO 133 ° 0 min 0,000 mm 0,0 UV-I 0 W/m² 1,2 °C 8,0 km/h (2 Bft)
15.11.2016 20:49 2,4 °C 2,5 °C 92 % 1030,2 hPa 0,0 mm 2,6 km/h (1 Bft) S-SO 157 ° 0 min 0,000 mm 0,0 UV-I 0 W/m² 1,2 °C 6,4 km/h (2 Bft)
15.11.2016 20:50 2,5 °C 2,5 °C 92 % 1030,2 hPa 0,0 mm 1,1 km/h (1 Bft) S-SO 157 ° 0 min 0,000 mm 0,0 UV-I 0 W/m² 1,3 °C 3,2 km/h (1 Bft)
15.11.2016 20:51 2,5 °C 2,5 °C 92 % 1030,2 hPa 0,0 mm 2,8 km/h (1 Bft) S-SO 157 ° 0 min 0,000 mm 0,0 UV-I 0 W/m² 1,3 °C 3,2 km/h (1 Bft)
15.11.2016 20:52 2,5 °C 2,5 °C 92 % 1030,1 hPa 0,0 mm 4,6 km/h (1 Bft) SO 138 ° 0 min 0,000 mm 0,0 UV-I 0 W/m² 1,3 °C 6,4 km/h (2 Bft)
15.11.2016 20:53 2,6 °C 2,6 °C 92 % 1030,1 hPa 0,0 mm 1,5 km/h (1 Bft) SO 138 ° 0 min 0,000 mm 0,0 UV-I 0 W/m² 1,4 °C 4,8 km/h (1 Bft)
15.11.2016 20:54 2,5 °C 2,6 °C 92 % 1030,1 hPa 0,0 mm 0,2 km/h (0 Bft) SO 138 ° 0 min 0,000 mm 0,0 UV-I 0 W/m² 1,3 °C 1,6 km/h (1 Bft)
15.11.2016 20:55 2,6 °C 2,6 °C 92 % 1030,0 hPa 0,0 mm 0,5 km/h (0 Bft) SO 138 ° 0 min 0,000 mm 0,0 UV-I 0 W/m² 1,4 °C 1,6 km/h (1 Bft)
15.11.2016 20:56 2,5 °C 2,6 °C 92 % 1029,9 hPa 0,0 mm 0,7 km/h (0 Bft) SO 138 ° 0 min 0,000 mm 0,0 UV-I 0 W/m² 1,3 °C 1,6 km/h (1 Bft)
15.11.2016 20:57 2,6 °C 2,6 °C 92 % 1029,9 hPa 0,0 mm 4,6 km/h (1 Bft) SW 220 ° 0 min 0,000 mm 0,0 UV-I 0 W/m² 1,4 °C 6,4 km/h (2 Bft)
15.11.2016 20:58 2,6 °C 2,6 °C 91 % 1030,0 hPa 0,0 mm 4,1 km/h (1 Bft) W-SW 254 ° 0 min 0,000 mm 0,0 UV-I 0 W/m² 1,3 °C 4,8 km/h (1 Bft)
15.11.2016 20:59 2,6 °C 2,6 °C 91 % 1029,9 hPa 0,0 mm 0,5 km/h (0 Bft) W-SW 254 ° 0 min 0,000 mm 0,0 UV-I 0 W/m² 1,3 °C 1,6 km/h (1 Bft)
15.11.2016 21:00 2,6 °C 2,6 °C 91 % 1030,0 hPa 0,0 mm 3,5 km/h (1 Bft) S-SO 157 ° 0 min 0,000 mm 0,0 UV-I 0 W/m² 1,3 °C 6,4 km/h (2 Bft)
15.11.2016 21:01 2,6 °C 2,6 °C 91 % 1030,0 hPa 0,0 mm 3,0 km/h (1 Bft) S-SO 150 ° 0 min 0,000 mm 0,0 UV-I 0 W/m² 1,3 °C 4,8 km/h (1 Bft)
15.11.2016 21:02 2,6 °C 2,6 °C 91 % 1030,0 hPa 0,0 mm 1,8 km/h (1 Bft) S-SO 150 ° 0 min 0,000 mm 0,0 UV-I 0 W/m² 1,3 °C 4,8 km/h (1 Bft)
15.11.2016 21:03 2,6 °C 2,7 °C 91 % 1030,0 hPa 0,0 mm 1,0 km/h (0 Bft) S-SO 150 ° 0 min 0,000 mm 0,0 UV-I 0 W/m² 1,3 °C 1,6 km/h (1 Bft)
15.11.2016 21:04 2,7 °C 2,7 °C 91 % 1030,0 hPa 0,0 mm 0,9 km/h (0 Bft) S-SO 162 ° 0 min 0,000 mm 0,0 UV-I 0 W/m² 1,4 °C 3,2 km/h (1 Bft)
15.11.2016 21:05 2,6 °C 2,7 °C 91 % 1030,1 hPa 0,0 mm 2,1 km/h (1 Bft) S-SW 204 ° 0 min 0,000 mm 0,0 UV-I 0 W/m² 1,3 °C 4,8 km/h (1 Bft)
15.11.2016 21:06 2,7 °C 2,7 °C 91 % 1030,1 hPa 0,0 mm 2,0 km/h (1 Bft) S-SW 204 ° 0 min 0,000 mm 0,0 UV-I 0 W/m² 1,4 °C 3,2 km/h (1 Bft)
15.11.2016 21:07 2,7 °C 2,7 °C 91 % 1030,1 hPa 0,0 mm 0,1 km/h (0 Bft) S-SW 204 ° 0 min 0,000 mm 0,0 UV-I 0 W/m² 1,4 °C 1,6 km/h (1 Bft)
15.11.2016 21:08 2,7 °C 2,7 °C 91 % 1029,9 hPa 0,0 mm 0,5 km/h (0 Bft) S-SW 204 ° 0 min 0,000 mm 0,0 UV-I 0 W/m² 1,4 °C 1,6 km/h (1 Bft)
15.11.2016 21:09 2,7 °C 2,7 °C 91 % 1030,0 hPa 0,0 mm 0,5 km/h (0 Bft) S-SW 204 ° 0 min 0,000 mm 0,0 UV-I 0 W/m² 1,4 °C 1,6 km/h (1 Bft)
15.11.2016 21:10 2,7 °C 2,7 °C 91 % 1029,9 hPa 0,0 mm 0,0 km/h (0 Bft) S-SW 204 ° 0 min 0,000 mm 0,0 UV-I 0 W/m² 1,4 °C 0,0 km/h (0 Bft)
15.11.2016 21:11 2,7 °C 2,7 °C 91 % 1029,9 hPa 0,0 mm 0,5 km/h (0 Bft) S-SW 204 ° 0 min 0,000 mm 0,0 UV-I 0 W/m² 1,4 °C 1,6 km/h (1 Bft)
15.11.2016 21:12 2,7 °C 2,7 °C 91 % 1030,0 hPa 0,0 mm 1,7 km/h (1 Bft) S-SW 208 ° 0 min 0,000 mm 0,0 UV-I 0 W/m² 1,4 °C 3,2 km/h (1 Bft)
15.11.2016 21:13 2,7 °C 2,7 °C 91 % 1030,0 hPa 0,0 mm 0,9 km/h (0 Bft) S-SW 208 ° 0 min 0,000 mm 0,0 UV-I 0 W/m² 1,4 °C 1,6 km/h (1 Bft)
15.11.2016 21:14 2,7 °C 2,7 °C 91 % 1029,9 hPa 0,0 mm 0,2 km/h (0 Bft) S-SW 208 ° 0 min 0,000 mm 0,0 UV-I 0 W/m² 1,4 °C 1,6 km/h (1 Bft)
15.11.2016 21:15 2,7 °C 2,7 °C 91 % 1029,9 hPa 0,0 mm 0,5 km/h (0 Bft) S-SW 208 ° 0 min 0,000 mm 0,0 UV-I 0 W/m² 1,4 °C 1,6 km/h (1 Bft)
15.11.2016 21:16 2,7 °C 2,7 °C 91 % 1030,0 hPa 0,0 mm 0,1 km/h (0 Bft) S-SW 208 ° 0 min 0,000 mm 0,0 UV-I 0 W/m² 1,4 °C 1,6 km/h (1 Bft)
15.11.2016 21:17 2,7 °C 2,7 °C 91 % 1029,9 hPa 0,0 mm 0,0 km/h (0 Bft) S-SW 208 ° 0 min 0,000 mm 0,0 UV-I 0 W/m² 1,4 °C 0,0 km/h (0 Bft)
15.11.2016 21:18 2,7 °C 2,7 °C 91 % 1029,9 hPa 0,0 mm 0,4 km/h (0 Bft) S-SW 208 ° 0 min 0,000 mm 0,0 UV-I 0 W/m² 1,4 °C 1,6 km/h (1 Bft)
15.11.2016 21:19 2,7 °C 2,7 °C 91 % 1029,9 hPa 0,0 mm 0,0 km/h (0 Bft) S-SW 208 ° 0 min 0,000 mm 0,0 UV-I 0 W/m² 1,4 °C 0,0 km/h (0 Bft)
15.11.2016 21:20 2,7 °C 2,7 °C 91 % 1029,8 hPa 0,0 mm 0,0 km/h (0 Bft) S-SW 208 ° 0 min 0,000 mm 0,0 UV-I 0 W/m² 1,4 °C 0,0 km/h (0 Bft)
15.11.2016 21:21 2,7 °C 2,7 °C 91 % 1029,8 hPa 0,0 mm 2,1 km/h (1 Bft) S-SW 208 ° 0 min 0,000 mm 0,0 UV-I 0 W/m² 1,4 °C 3,2 km/h (1 Bft)
15.11.2016 21:22 2,7 °C 2,7 °C 91 % 1029,8 hPa 0,0 mm 2,0 km/h (1 Bft) S-SW 208 ° 0 min 0,000 mm 0,0 UV-I 0 W/m² 1,4 °C 3,2 km/h (1 Bft)
15.11.2016 21:23 2,7 °C 2,8 °C 91 % 1029,9 hPa 0,0 mm 1,0 km/h (0 Bft) S-SW 208 ° 0 min 0,000 mm 0,0 UV-I 0 W/m² 1,4 °C 3,2 km/h (1 Bft)
15.11.2016 21:24 2,8 °C 2,8 °C 91 % 1029,8 hPa 0,0 mm 3,2 km/h (1 Bft) S-SW 208 ° 0 min 0,000 mm 0,0 UV-I 0 W/m² 1,5 °C 6,4 km/h (2 Bft)
15.11.2016 21:25 2,8 °C 2,8 °C 91 % 1029,8 hPa 0,0 mm 3,2 km/h (1 Bft) S-SW 208 ° 0 min 0,000 mm 0,0 UV-I 0 W/m² 1,5 °C 4,8 km/h (1 Bft)
15.11.2016 21:26 2,8 °C 2,8 °C 91 % 1029,8 hPa 0,0 mm 2,6 km/h (1 Bft) S-SW 208 ° 0 min 0,000 mm 0,0 UV-I 0 W/m² 1,5 °C 3,2 km/h (1 Bft)
15.11.2016 21:27 2,8 °C 2,8 °C 91 % 1029,8 hPa 0,0 mm 2,0 km/h (1 Bft) S 185 ° 0 min 0,000 mm 0,0 UV-I 0 W/m² 1,5 °C 4,8 km/h (1 Bft)
15.11.2016 21:28 2,8 °C 2,8 °C 91 % 1029,8 hPa 0,0 mm 0,6 km/h (0 Bft) SW 234 ° 0 min 0,000 mm 0,0 UV-I 0 W/m² 1,5 °C 3,2 km/h (1 Bft)
15.11.2016 21:29 2,8 °C 2,8 °C 91 % 1029,8 hPa 0,0 mm 4,1 km/h (1 Bft) W-SW 255 ° 0 min 0,000 mm 0,0 UV-I 0 W/m² 1,5 °C 4,8 km/h (1 Bft)
15.11.2016 21:30 2,8 °C 2,8 °C 91 % 1029,8 hPa 0,0 mm 3,0 km/h (1 Bft) W-SW 255 ° 0 min 0,000 mm 0,0 UV-I 0 W/m² 1,5 °C 4,8 km/h (1 Bft)
15.11.2016 21:31 2,8 °C 2,8 °C 91 % 1029,9 hPa 0,0 mm 4,6 km/h (1 Bft) S-SW 196 ° 0 min 0,000 mm 0,0 UV-I 0 W/m² 1,5 °C 8,0 km/h (2 Bft)
15.11.2016 21:32 2,8 °C 2,8 °C 91 % 1029,8 hPa 0,0 mm 5,4 km/h (1 Bft) S 178 ° 0 min 0,000 mm 0,0 UV-I 0 W/m² 1,5 °C 8,0 km/h (2 Bft)
15.11.2016 21:33 2,8 °C 2,8 °C 91 % 1029,7 hPa 0,0 mm 0,8 km/h (0 Bft) S 172 ° 0 min 0,000 mm 0,0 UV-I 0 W/m² 1,5 °C 3,2 km/h (1 Bft)
15.11.2016 21:34 2,8 °C 2,8 °C 91 % 1029,7 hPa 0,0 mm 1,1 km/h (1 Bft) S 172 ° 0 min 0,000 mm 0,0 UV-I 0 W/m² 1,5 °C 1,6 km/h (1 Bft)
15.11.2016 21:35 2,8 °C 2,8 °C 91 % 1029,7 hPa 0,0 mm 1,8 km/h (1 Bft) W-SW 238 ° 0 min 0,000 mm 0,0 UV-I 0 W/m² 1,5 °C 4,8 km/h (1 Bft)
15.11.2016 21:36 2,9 °C 2,9 °C 91 % 1029,8 hPa 0,0 mm 3,7 km/h (1 Bft) S-SW 205 ° 0 min 0,000 mm 0,0 UV-I 0 W/m² 1,6 °C 6,4 km/h (2 Bft)
15.11.2016 21:37 2,9 °C 2,9 °C 91 % 1029,7 hPa 0,0 mm 3,4 km/h (1 Bft) SW 221 ° 0 min 0,000 mm 0,0 UV-I 0 W/m² 1,6 °C 8,0 km/h (2 Bft)
15.11.2016 21:38 2,9 °C 2,9 °C 91 % 1029,7 hPa 0,0 mm 2,5 km/h (1 Bft) SW 221 ° 0 min 0,000 mm 0,0 UV-I 0 W/m² 1,6 °C 4,8 km/h (1 Bft)
15.11.2016 21:39 2,9 °C 2,9 °C 91 % 1029,8 hPa 0,0 mm 0,7 km/h (0 Bft) SW 221 ° 0 min 0,000 mm 0,0 UV-I 0 W/m² 1,6 °C 1,6 km/h (1 Bft)
15.11.2016 21:40 2,9 °C 2,9 °C 91 % 1029,8 hPa 0,0 mm 1,5 km/h (1 Bft) SW 221 ° 0 min 0,000 mm 0,0 UV-I 0 W/m² 1,6 °C 3,2 km/h (1 Bft)
15.11.2016 21:41 2,9 °C 2,9 °C 91 % 1029,8 hPa 0,0 mm 2,4 km/h (1 Bft) W-SW 253 ° 0 min 0,000 mm 0,0 UV-I 0 W/m² 1,6 °C 3,2 km/h (1 Bft)
15.11.2016 21:42 2,9 °C 2,9 °C 91 % 1029,8 hPa 0,0 mm 1,3 km/h (1 Bft) W-SW 253 ° 0 min 0,000 mm 0,0 UV-I 0 W/m² 1,6 °C 3,2 km/h (1 Bft)
15.11.2016 21:43 2,9 °C 2,9 °C 91 % 1029,9 hPa 0,0 mm 0,1 km/h (0 Bft) W-SW 253 ° 0 min 0,000 mm 0,0 UV-I 0 W/m² 1,6 °C 1,6 km/h (1 Bft)
15.11.2016 21:44 2,9 °C 2,9 °C 91 % 1029,9 hPa 0,0 mm 1,5 km/h (1 Bft) W-SW 253 ° 0 min 0,000 mm 0,0 UV-I 0 W/m² 1,6 °C 3,2 km/h (1 Bft)
15.11.2016 21:45 2,9 °C 2,9 °C 91 % 1029,9 hPa 0,0 mm 3,0 km/h (1 Bft) W-SW 253 ° 0 min 0,000 mm 0,0 UV-I 0 W/m² 1,6 °C 4,8 km/h (1 Bft)
15.11.2016 21:46 2,9 °C 2,9 °C 91 % 1029,8 hPa 0,0 mm 1,5 km/h (1 Bft) W-SW 253 ° 0 min 0,000 mm 0,0 UV-I 0 W/m² 1,6 °C 1,6 km/h (1 Bft)
15.11.2016 21:47 2,9 °C 2,9 °C 91 % 1029,8 hPa 0,0 mm 2,0 km/h (1 Bft) W-SW 253 ° 0 min 0,000 mm 0,0 UV-I 0 W/m² 1,6 °C 3,2 km/h (1 Bft)
15.11.2016 21:48 2,9 °C 2,9 °C 91 % 1029,8 hPa 0,0 mm 1,5 km/h (1 Bft) W-SW 253 ° 0 min 0,000 mm 0,0 UV-I 0 W/m² 1,6 °C 3,2 km/h (1 Bft)
15.11.2016 21:49 2,9 °C 2,9 °C 91 % 1029,8 hPa 0,0 mm 0,5 km/h (0 Bft) W-SW 253 ° 0 min 0,000 mm 0,0 UV-I 0 W/m² 1,6 °C 1,6 km/h (1 Bft)
15.11.2016 21:50 2,9 °C 2,9 °C 91 % 1029,7 hPa 0,0 mm 3,4 km/h (1 Bft) SW 220 ° 0 min 0,000 mm 0,0 UV-I 0 W/m² 1,6 °C 6,4 km/h (2 Bft)
15.11.2016 21:51 2,9 °C 2,9 °C 91 % 1029,8 hPa 0,0 mm 1,5 km/h (1 Bft) SW 220 ° 0 min 0,000 mm 0,0 UV-I 0 W/m² 1,6 °C 3,2 km/h (1 Bft)
15.11.2016 21:52 2,9 °C 2,9 °C 91 % 1029,7 hPa 0,0 mm 1,8 km/h (1 Bft) S-SW 207 ° 0 min 0,000 mm 0,0 UV-I 0 W/m² 1,6 °C 4,8 km/h (1 Bft)
15.11.2016 21:53 2,9 °C 2,9 °C 91 % 1029,8 hPa 0,0 mm 3,1 km/h (1 Bft) S-SW 206 ° 0 min 0,000 mm 0,0 UV-I 0 W/m² 1,6 °C 4,8 km/h (1 Bft)
15.11.2016 21:54 3,0 °C 3,0 °C 91 % 1029,8 hPa 0,0 mm 1,4 km/h (1 Bft) S-SW 207 ° 0 min 0,000 mm 0,0 UV-I 0 W/m² 1,7 °C 3,2 km/h (1 Bft)
15.11.2016 21:55 3,0 °C 3,0 °C 91 % 1029,7 hPa 0,0 mm 4,8 km/h (1 Bft) S 191 ° 0 min 0,000 mm 0,0 UV-I 0 W/m² 1,7 °C 11,3 km/h (2 Bft)
15.11.2016 21:56 3,0 °C 3,0 °C 91 % 1029,7 hPa 0,0 mm 9,3 km/h (2 Bft) S-SW 205 ° 0 min 0,000 mm 0,0 UV-I 0 W/m² 1,7 °C 12,9 km/h (3 Bft)
15.11.2016 21:57 3,0 °C 3,1 °C 90 % 1029,7 hPa 0,0 mm 5,1 km/h (1 Bft) S 180 ° 0 min 0,000 mm 0,0 UV-I 0 W/m² 1,5 °C 6,4 km/h (2 Bft)
15.11.2016 21:58 3,1 °C 3,1 °C 91 % 1029,7 hPa 0,0 mm 6,6 km/h (2 Bft) S 189 ° 0 min 0,000 mm 0,0 UV-I 0 W/m² 1,8 °C 9,7 km/h (2 Bft)
15.11.2016 21:59 3,1 °C 3,1 °C 90 % 1029,7 hPa 0,0 mm 4,2 km/h (1 Bft) W-SW 240 ° 0 min 0,000 mm 0,0 UV-I 0 W/m² 1,6 °C 6,4 km/h (2 Bft)
15.11.2016 22:00 3,1 °C 3,2 °C 90 % 1029,8 hPa 0,0 mm 5,9 km/h (2 Bft) S 186 ° 0 min 0,000 mm 0,0 UV-I 0 W/m² 1,6 °C 8,0 km/h (2 Bft)
15.11.2016 22:01 3,1 °C 3,2 °C 90 % 1029,7 hPa 0,0 mm 9,0 km/h (2 Bft) S-SW 197 ° 0 min 0,000 mm 0,0 UV-I 0 W/m² 1,6 °C 11,3 km/h (2 Bft)
15.11.2016 22:02 3,2 °C 3,2 °C 90 % 1029,7 hPa 0,0 mm 7,6 km/h (2 Bft) S-SW 196 ° 0 min 0,000 mm 0,0 UV-I 0 W/m² 1,7 °C 9,7 km/h (2 Bft)
15.11.2016 22:03 3,2 °C 3,2 °C 90 % 1029,8 hPa 0,0 mm 5,8 km/h (2 Bft) S 190 ° 0 min 0,000 mm 0,0 UV-I 0 W/m² 1,7 °C 8,0 km/h (2 Bft)
15.11.2016 22:04 3,2 °C 3,2 °C 90 % 1029,7 hPa 0,0 mm 5,5 km/h (1 Bft) S-SW 196 ° 0 min 0,000 mm 0,0 UV-I 0 W/m² 1,7 °C 8,0 km/h (2 Bft)
15.11.2016 22:05 3,2 °C 3,2 °C 90 % 1029,7 hPa 0,0 mm 3,5 km/h (1 Bft) S-SW 199 ° 0 min 0,000 mm 0,0 UV-I 0 W/m² 1,7 °C 6,4 km/h (2 Bft)
15.11.2016 22:06 3,2 °C 3,2 °C 90 % 1029,7 hPa 0,0 mm 1,3 km/h (1 Bft) S-SW 199 ° 0 min 0,000 mm 0,0 UV-I 0 W/m² 1,7 °C 4,8 km/h (1 Bft)
15.11.2016 22:07 3,2 °C 3,2 °C 90 % 1029,6 hPa 0,0 mm 2,6 km/h (1 Bft) S-SW 199 ° 0 min 0,000 mm 0,0 UV-I 0 W/m² 1,7 °C 4,8 km/h (1 Bft)
15.11.2016 22:08 3,2 °C 3,2 °C 90 % 1029,6 hPa 0,0 mm 4,5 km/h (1 Bft) SW 235 ° 0 min 0,000 mm 0,0 UV-I 0 W/m² 1,7 °C 8,0 km/h (2 Bft)
15.11.2016 22:09 3,2 °C 3,2 °C 90 % 1029,6 hPa 0,0 mm 5,0 km/h (1 Bft) W 280 ° 0 min 0,000 mm 0,0 UV-I 0 W/m² 1,7 °C 6,4 km/h (2 Bft)
15.11.2016 22:10 3,3 °C 3,3 °C 90 % 1029,6 hPa 0,0 mm 5,0 km/h (1 Bft) W 272 ° 0 min 0,000 mm 0,0 UV-I 0 W/m² 1,8 °C 6,4 km/h (2 Bft)
15.11.2016 22:11 3,3 °C 3,3 °C 90 % 1029,6 hPa 0,0 mm 5,0 km/h (1 Bft) W 271 ° 0 min 0,000 mm 0,0 UV-I 0 W/m² 1,8 °C 6,4 km/h (2 Bft)
15.11.2016 22:12 3,3 °C 3,3 °C 90 % 1029,5 hPa 0,0 mm 4,8 km/h (1 Bft) S-SW 210 ° 0 min 0,000 mm 0,0 UV-I 0 W/m² 1,8 °C 6,4 km/h (2 Bft)
15.11.2016 22:13 3,3 °C 3,3 °C 90 % 1029,6 hPa 0,0 mm 4,6 km/h (1 Bft) S-SW 207 ° 0 min 0,000 mm 0,0 UV-I 0 W/m² 1,8 °C 8,0 km/h (2 Bft)
15.11.2016 22:14 3,3 °C 3,3 °C 89 % 1029,6 hPa 0,0 mm 6,2 km/h (2 Bft) S 184 ° 0 min 0,000 mm 0,0 UV-I 0 W/m² 1,7 °C 8,0 km/h (2 Bft)
15.11.2016 22:15 3,3 °C 3,4 °C 89 % 1029,5 hPa 0,0 mm 1,7 km/h (1 Bft) S 188 ° 0 min 0,000 mm 0,0 UV-I 0 W/m² 1,7 °C 3,2 km/h (1 Bft)
15.11.2016 22:16 3,4 °C 3,4 °C 90 % 1029,5 hPa 0,0 mm 1,3 km/h (1 Bft) S 188 ° 0 min 0,000 mm 0,0 UV-I 0 W/m² 1,9 °C 3,2 km/h (1 Bft)
15.11.2016 22:17 3,4 °C 3,4 °C 90 % 1029,4 hPa 0,0 mm 1,3 km/h (1 Bft) S 189 ° 0 min 0,000 mm 0,0 UV-I 0 W/m² 1,9 °C 3,2 km/h (1 Bft)
15.11.2016 22:18 3,4 °C 3,4 °C 90 % 1029,4 hPa 0,0 mm 2,6 km/h (1 Bft) S 189 ° 0 min 0,000 mm 0,0 UV-I 0 W/m² 1,9 °C 4,8 km/h (1 Bft)
15.11.2016 22:19 3,4 °C 3,4 °C 90 % 1029,3 hPa 0,0 mm 0,6 km/h (0 Bft) S 189 ° 0 min 0,000 mm 0,0 UV-I 0 W/m² 1,9 °C 3,2 km/h (1 Bft)
15.11.2016 22:20 3,4 °C 3,4 °C 90 % 1029,3 hPa 0,0 mm 1,7 km/h (1 Bft) SW 218 ° 0 min 0,000 mm 0,0 UV-I 0 W/m² 1,9 °C 3,2 km/h (1 Bft)
15.11.2016 22:21 3,4 °C 3,4 °C 90 % 1029,2 hPa 0,0 mm 1,0 km/h (0 Bft) SW 225 ° 0 min 0,000 mm 0,0 UV-I 0 W/m² 1,9 °C 4,8 km/h (1 Bft)
15.11.2016 22:22 3,4 °C 3,5 °C 90 % 1029,3 hPa 0,0 mm 3,4 km/h (1 Bft) W 278 ° 0 min 0,000 mm 0,0 UV-I 0 W/m² 1,9 °C 6,4 km/h (2 Bft)
15.11.2016 22:23 3,4 °C 3,5 °C 90 % 1029,3 hPa 0,0 mm 4,3 km/h (1 Bft) W-NW 285 ° 0 min 0,000 mm 0,0 UV-I 0 W/m² 1,9 °C 6,4 km/h (2 Bft)
15.11.2016 22:24 3,4 °C 3,5 °C 90 % 1029,3 hPa 0,0 mm 3,0 km/h (1 Bft) W-NW 284 ° 0 min 0,000 mm 0,0 UV-I 0 W/m² 1,9 °C 4,8 km/h (1 Bft)
15.11.2016 22:25 3,4 °C 3,5 °C 90 % 1029,3 hPa 0,0 mm 2,6 km/h (1 Bft) W-NW 284 ° 0 min 0,000 mm 0,0 UV-I 0 W/m² 1,9 °C 3,2 km/h (1 Bft)
15.11.2016 22:26 3,4 °C 3,5 °C 90 % 1029,3 hPa 0,0 mm 1,7 km/h (1 Bft) W-NW 284 ° 0 min 0,000 mm 0,0 UV-I 0 W/m² 1,9 °C 3,2 km/h (1 Bft)
15.11.2016 22:27 3,5 °C 3,5 °C 90 % 1029,3 hPa 0,0 mm 3,7 km/h (1 Bft) W-NW 284 ° 0 min 0,000 mm 0,0 UV-I 0 W/m² 2,0 °C 4,8 km/h (1 Bft)
15.11.2016 22:28 3,5 °C 3,5 °C 90 % 1029,2 hPa 0,0 mm 4,3 km/h (1 Bft) W-NW 284 ° 0 min 0,000 mm 0,0 UV-I 0 W/m² 2,0 °C 4,8 km/h (1 Bft)
15.11.2016 22:29 3,5 °C 3,5 °C 90 % 1029,2 hPa 0,0 mm 3,5 km/h (1 Bft) W-NW 285 ° 0 min 0,000 mm 0,0 UV-I 0 W/m² 2,0 °C 4,8 km/h (1 Bft)
15.11.2016 22:30 3,5 °C 3,5 °C 90 % 1029,3 hPa 0,0 mm 3,3 km/h (1 Bft) W-NW 291 ° 0 min 0,000 mm 0,0 UV-I 0 W/m² 2,0 °C 4,8 km/h (1 Bft)
15.11.2016 22:31 3,5 °C 3,5 °C 90 % 1029,2 hPa 0,0 mm 2,2 km/h (1 Bft) W-NW 291 ° 0 min 0,000 mm 0,0 UV-I 0 W/m² 2,0 °C 3,2 km/h (1 Bft)
15.11.2016 22:32 3,5 °C 3,5 °C 90 % 1029,3 hPa 0,0 mm 3,3 km/h (1 Bft) W-NW 291 ° 0 min 0,000 mm 0,0 UV-I 0 W/m² 2,0 °C 4,8 km/h (1 Bft)
15.11.2016 22:33 3,5 °C 3,5 °C 90 % 1029,2 hPa 0,0 mm 3,0 km/h (1 Bft) W-NW 291 ° 0 min 0,000 mm 0,0 UV-I 0 W/m² 2,0 °C 4,8 km/h (1 Bft)
15.11.2016 22:34 3,5 °C 3,6 °C 90 % 1029,2 hPa 0,0 mm 2,8 km/h (1 Bft) W-NW 291 ° 0 min 0,000 mm 0,0 UV-I 0 W/m² 2,0 °C 3,2 km/h (1 Bft)
15.11.2016 22:35 3,6 °C 3,6 °C 90 % 1029,2 hPa 0,0 mm 3,5 km/h (1 Bft) W-NW 291 ° 0 min 0,000 mm 0,0 UV-I 0 W/m² 2,1 °C 4,8 km/h (1 Bft)
15.11.2016 22:36 3,5 °C 3,6 °C 90 % 1029,2 hPa 0,0 mm 2,7 km/h (1 Bft) W-NW 291 ° 0 min 0,000 mm 0,0 UV-I 0 W/m² 2,0 °C 3,2 km/h (1 Bft)
15.11.2016 22:37 3,5 °C 3,6 °C 90 % 1029,2 hPa 0,0 mm 3,4 km/h (1 Bft) W-SW 258 ° 0 min 0,000 mm 0,0 UV-I 0 W/m² 2,0 °C 4,8 km/h (1 Bft)
15.11.2016 22:38 3,5 °C 3,6 °C 90 % 1029,2 hPa 0,0 mm 5,3 km/h (1 Bft) W-SW 257 ° 0 min 0,000 mm 0,0 UV-I 0 W/m² 2,0 °C 9,7 km/h (2 Bft)
15.11.2016 22:39 3,5 °C 3,5 °C 90 % 1029,2 hPa 0,0 mm 4,0 km/h (1 Bft) W-SW 256 ° 0 min 0,000 mm 0,0 UV-I 0 W/m² 2,0 °C 6,4 km/h (2 Bft)
15.11.2016 22:40 3,5 °C 3,5 °C 90 % 1029,2 hPa 0,0 mm 3,4 km/h (1 Bft) S-SW 200 ° 0 min 0,000 mm 0,0 UV-I 0 W/m² 2,0 °C 4,8 km/h (1 Bft)
15.11.2016 22:41 3,5 °C 3,5 °C 90 % 1029,1 hPa 0,0 mm 4,6 km/h (1 Bft) S 190 ° 0 min 0,000 mm 0,0 UV-I 0 W/m² 2,0 °C 6,4 km/h (2 Bft)
15.11.2016 22:42 3,5 °C 3,5 °C 90 % 1029,2 hPa 0,0 mm 4,3 km/h (1 Bft) S-SW 211 ° 0 min 0,000 mm 0,0 UV-I 0 W/m² 2,0 °C 6,4 km/h (2 Bft)
15.11.2016 22:43 3,5 °C 3,5 °C 90 % 1029,2 hPa 0,0 mm 5,0 km/h (1 Bft) S 189 ° 0 min 0,000 mm 0,0 UV-I 0 W/m² 2,0 °C 6,4 km/h (2 Bft)
15.11.2016 22:44 3,5 °C 3,5 °C 90 % 1029,1 hPa 0,0 mm 5,1 km/h (1 Bft) S 186 ° 0 min 0,000 mm 0,0 UV-I 0 W/m² 2,0 °C 6,4 km/h (2 Bft)
15.11.2016 22:45 3,6 °C 3,6 °C 90 % 1029,2 hPa 0,0 mm 3,9 km/h (1 Bft) S 186 ° 0 min 0,000 mm 0,0 UV-I 0 W/m² 2,1 °C 4,8 km/h (1 Bft)
15.11.2016 22:46 3,5 °C 3,6 °C 90 % 1029,2 hPa 0,0 mm 5,6 km/h (1 Bft) S 187 ° 0 min 0,000 mm 0,0 UV-I 0 W/m² 2,0 °C 8,0 km/h (2 Bft)
15.11.2016 22:47 3,5 °C 3,6 °C 90 % 1029,1 hPa 0,0 mm 5,2 km/h (1 Bft) S-SO 159 ° 0 min 0,000 mm 0,0 UV-I 0 W/m² 2,0 °C 8,0 km/h (2 Bft)
15.11.2016 22:48 3,5 °C 3,6 °C 91 % 1029,1 hPa 0,0 mm 2,2 km/h (1 Bft) S-SO 159 ° 0 min 0,000 mm 0,0 UV-I 0 W/m² 2,2 °C 3,2 km/h (1 Bft)
15.11.2016 22:49 3,6 °C 3,6 °C 91 % 1029,2 hPa 0,0 mm 6,2 km/h (2 Bft) S 188 ° 0 min 0,000 mm 0,0 UV-I 0 W/m² 2,3 °C 8,0 km/h (2 Bft)
15.11.2016 22:50 3,5 °C 3,6 °C 91 % 1029,1 hPa 0,0 mm 6,2 km/h (2 Bft) S 171 ° 0 min 0,000 mm 0,0 UV-I 0 W/m² 2,2 °C 8,0 km/h (2 Bft)
15.11.2016 22:51 3,6 °C 3,6 °C 91 % 1029,1 hPa 0,0 mm 2,7 km/h (1 Bft) S 171 ° 0 min 0,000 mm 0,0 UV-I 0 W/m² 2,3 °C 6,4 km/h (2 Bft)
15.11.2016 22:52 3,6 °C 3,6 °C 91 % 1029,1 hPa 0,0 mm 4,4 km/h (1 Bft) S 188 ° 0 min 0,000 mm 0,0 UV-I 0 W/m² 2,3 °C 4,8 km/h (1 Bft)
15.11.2016 22:53 3,6 °C 3,6 °C 91 % 1029,1 hPa 0,0 mm 5,0 km/h (1 Bft) S-SW 196 ° 0 min 0,000 mm 0,0 UV-I 0 W/m² 2,3 °C 6,4 km/h (2 Bft)
15.11.2016 22:54 3,6 °C 3,6 °C 91 % 1029,1 hPa 0,0 mm 5,5 km/h (1 Bft) S 189 ° 0 min 0,000 mm 0,0 UV-I 0 W/m² 2,3 °C 6,4 km/h (2 Bft)
15.11.2016 22:55 3,6 °C 3,6 °C 91 % 1029,1 hPa 0,0 mm 6,4 km/h (2 Bft) S 188 ° 0 min 0,000 mm 0,0 UV-I 0 W/m² 2,3 °C 8,0 km/h (2 Bft)
15.11.2016 22:56 3,6 °C 3,6 °C 91 % 1029,0 hPa 0,0 mm 6,9 km/h (2 Bft) S-SW 213 ° 0 min 0,000 mm 0,0 UV-I 0 W/m² 2,3 °C 9,7 km/h (2 Bft)
15.11.2016 22:57 3,6 °C 3,6 °C 91 % 1029,1 hPa 0,0 mm 5,7 km/h (1 Bft) S 190 ° 0 min 0,000 mm 0,0 UV-I 0 W/m² 2,3 °C 8,0 km/h (2 Bft)
15.11.2016 22:58 3,6 °C 3,6 °C 91 % 1029,1 hPa 0,0 mm 4,1 km/h (1 Bft) S-SW 194 ° 0 min 0,000 mm 0,0 UV-I 0 W/m² 2,3 °C 6,4 km/h (2 Bft)
15.11.2016 22:59 3,7 °C 3,7 °C 91 % 1029,0 hPa 0,0 mm 3,4 km/h (1 Bft) S-SW 196 ° 0 min 0,000 mm 0,0 UV-I 0 W/m² 2,4 °C 4,8 km/h (1 Bft)
15.11.2016 23:00 3,7 °C 3,7 °C 91 % 1029,1 hPa 0,0 mm 5,6 km/h (1 Bft) S-SW 209 ° 0 min 0,000 mm 0,0 UV-I 0 W/m² 2,4 °C 8,0 km/h (2 Bft)
15.11.2016 23:01 3,7 °C 3,7 °C 91 % 1029,0 hPa 0,0 mm 1,9 km/h (1 Bft) W-NW 287 ° 0 min 0,000 mm 0,0 UV-I 0 W/m² 2,4 °C 4,8 km/h (1 Bft)
15.11.2016 23:02 3,7 °C 3,7 °C 91 % 1029,0 hPa 0,0 mm 3,2 km/h (1 Bft) SW 221 ° 0 min 0,000 mm 0,0 UV-I 0 W/m² 2,4 °C 4,8 km/h (1 Bft)
15.11.2016 23:03 3,7 °C 3,7 °C 90 % 1029,0 hPa 0,0 mm 3,8 km/h (1 Bft) S-SW 197 ° 0 min 0,000 mm 0,0 UV-I 0 W/m² 2,2 °C 8,0 km/h (2 Bft)
15.11.2016 23:04 3,7 °C 3,8 °C 90 % 1029,0 hPa 0,0 mm 9,4 km/h (2 Bft) S 191 ° 0 min 0,000 mm 0,0 UV-I 0 W/m² 2,2 °C 11,3 km/h (2 Bft)
15.11.2016 23:05 3,8 °C 3,8 °C 90 % 1029,0 hPa 0,0 mm 7,7 km/h (2 Bft) S 190 ° 0 min 0,000 mm 0,0 UV-I 0 W/m² 2,3 °C 9,7 km/h (2 Bft)
15.11.2016 23:06 3,8 °C 3,8 °C 90 % 1029,0 hPa 0,0 mm 7,4 km/h (2 Bft) S-SW 204 ° 0 min 0,000 mm 0,0 UV-I 0 W/m² 2,3 °C 11,3 km/h (2 Bft)
15.11.2016 23:07 3,9 °C 3,9 °C 90 % 1029,0 hPa 0,0 mm 5,5 km/h (1 Bft) W-SW 245 ° 0 min 0,000 mm 0,0 UV-I 0 W/m² 2,4 °C 8,0 km/h (2 Bft)
15.11.2016 23:08 3,9 °C 3,9 °C 90 % 1028,9 hPa 0,0 mm 5,4 km/h (1 Bft) W-SW 250 ° 0 min 0,000 mm 0,0 UV-I 0 W/m² 2,4 °C 8,0 km/h (2 Bft)
15.11.2016 23:09 3,9 °C 3,9 °C 90 % 1029,0 hPa 0,0 mm 4,9 km/h (1 Bft) SW 221 ° 0 min 0,000 mm 0,0 UV-I 0 W/m² 2,4 °C 9,7 km/h (2 Bft)
15.11.2016 23:10 4,0 °C 4,0 °C 90 % 1028,9 hPa 0,0 mm 9,2 km/h (2 Bft) S 191 ° 0 min 0,000 mm 0,0 UV-I 0 W/m² 2,5 °C 16,1 km/h (3 Bft)
15.11.2016 23:11 4,1 °C 4,1 °C 89 % 1028,9 hPa 0,0 mm 6,8 km/h (2 Bft) S 185 ° 0 min 0,000 mm 0,0 UV-I 0 W/m² 2,5 °C 12,9 km/h (3 Bft)
15.11.2016 23:12 4,1 °C 4,1 °C 89 % 1028,9 hPa 0,0 mm 4,5 km/h (1 Bft) S-SW 213 ° 0 min 0,000 mm 0,0 UV-I 0 W/m² 2,5 °C 8,0 km/h (2 Bft)
15.11.2016 23:13 4,1 °C 4,1 °C 89 % 1028,9 hPa 0,0 mm 3,8 km/h (1 Bft) W 269 ° 0 min 0,000 mm 0,0 UV-I 0 W/m² 2,5 °C 4,8 km/h (1 Bft)
15.11.2016 23:14 4,2 °C 4,2 °C 89 % 1029,0 hPa 0,0 mm 2,1 km/h (1 Bft) SW 223 ° 0 min 0,000 mm 0,0 UV-I 0 W/m² 2,6 °C 4,8 km/h (1 Bft)
15.11.2016 23:15 4,2 °C 4,2 °C 89 % 1028,9 hPa 0,0 mm 5,0 km/h (1 Bft) S-SW 205 ° 0 min 0,000 mm 0,0 UV-I 0 W/m² 2,6 °C 11,3 km/h (2 Bft)
15.11.2016 23:16 4,2 °C 4,2 °C 89 % 1028,9 hPa 0,0 mm 2,5 km/h (1 Bft) SW 236 ° 0 min 0,000 mm 0,0 UV-I 0 W/m² 2,6 °C 4,8 km/h (1 Bft)
15.11.2016 23:17 4,2 °C 4,2 °C 89 % 1029,0 hPa 0,0 mm 1,7 km/h (1 Bft) SW 236 ° 0 min 0,000 mm 0,0 UV-I 0 W/m² 2,6 °C 3,2 km/h (1 Bft)
15.11.2016 23:18 4,2 °C 4,2 °C 89 % 1028,9 hPa 0,0 mm 3,8 km/h (1 Bft) W-SW 248 ° 0 min 0,000 mm 0,0 UV-I 0 W/m² 2,6 °C 8,0 km/h (2 Bft)
15.11.2016 23:19 4,3 °C 4,3 °C 89 % 1028,9 hPa 0,0 mm 3,6 km/h (1 Bft) S 191 ° 0 min 0,000 mm 0,0 UV-I 0 W/m² 2,7 °C 6,4 km/h (2 Bft)
15.11.2016 23:20 4,3 °C 4,3 °C 89 % 1028,9 hPa 0,0 mm 2,8 km/h (1 Bft) SW 221 ° 0 min 0,000 mm 0,0 UV-I 0 W/m² 2,7 °C 4,8 km/h (1 Bft)
15.11.2016 23:21 4,3 °C 4,3 °C 89 % 1028,9 hPa 0,0 mm 3,0 km/h (1 Bft) W-SW 250 ° 0 min 0,000 mm 0,0 UV-I 0 W/m² 2,7 °C 4,8 km/h (1 Bft)
15.11.2016 23:22 4,3 °C 4,3 °C 89 % 1028,9 hPa 0,0 mm 2,3 km/h (1 Bft) W-SW 250 ° 0 min 0,000 mm 0,0 UV-I 0 W/m² 2,7 °C 3,2 km/h (1 Bft)
15.11.2016 23:23 4,3 °C 4,3 °C 89 % 1028,9 hPa 0,0 mm 2,7 km/h (1 Bft) S-SW 203 ° 0 min 0,000 mm 0,0 UV-I 0 W/m² 2,7 °C 4,8 km/h (1 Bft)
15.11.2016 23:24 4,3 °C 4,3 °C 89 % 1028,9 hPa 0,0 mm 3,8 km/h (1 Bft) SW 225 ° 0 min 0,000 mm 0,0 UV-I 0 W/m² 2,7 °C 8,0 km/h (2 Bft)
15.11.2016 23:25 4,3 °C 4,3 °C 88 % 1028,9 hPa 0,0 mm 1,9 km/h (1 Bft) SW 221 ° 0 min 0,000 mm 0,0 UV-I 0 W/m² 2,5 °C 3,2 km/h (1 Bft)
15.11.2016 23:26 4,3 °C 4,3 °C 88 % 1028,9 hPa 0,0 mm 4,1 km/h (1 Bft) W-SW 248 ° 0 min 0,000 mm 0,0 UV-I 0 W/m² 2,5 °C 6,4 km/h (2 Bft)
15.11.2016 23:27 4,3 °C 4,3 °C 88 % 1028,9 hPa 0,0 mm 4,4 km/h (1 Bft) W 259 ° 0 min 0,000 mm 0,0 UV-I 0 W/m² 2,5 °C 6,4 km/h (2 Bft)
15.11.2016 23:28 4,3 °C 4,3 °C 88 % 1028,9 hPa 0,0 mm 4,1 km/h (1 Bft) SW 220 ° 0 min 0,000 mm 0,0 UV-I 0 W/m² 2,5 °C 6,4 km/h (2 Bft)
15.11.2016 23:29 4,3 °C 4,3 °C 88 % 1028,9 hPa 0,0 mm 6,8 km/h (2 Bft) SW 228 ° 0 min 0,000 mm 0,0 UV-I 0 W/m² 2,5 °C 11,3 km/h (2 Bft)
15.11.2016 23:30 4,3 °C 4,3 °C 88 % 1028,9 hPa 0,0 mm 4,8 km/h (1 Bft) S-SW 200 ° 0 min 0,000 mm 0,0 UV-I 0 W/m² 2,5 °C 9,7 km/h (2 Bft)
15.11.2016 23:31 4,3 °C 4,3 °C 88 % 1028,8 hPa 0,0 mm 7,2 km/h (2 Bft) S-SW 202 ° 0 min 0,000 mm 0,0 UV-I 0 W/m² 2,5 °C 9,7 km/h (2 Bft)
15.11.2016 23:32 4,3 °C 4,3 °C 89 % 1028,8 hPa 0,0 mm 4,7 km/h (1 Bft) S-SW 205 ° 0 min 0,000 mm 0,0 UV-I 0 W/m² 2,7 °C 6,4 km/h (2 Bft)
15.11.2016 23:33 4,3 °C 4,3 °C 89 % 1028,8 hPa 0,0 mm 4,0 km/h (1 Bft) W-SW 238 ° 0 min 0,000 mm 0,0 UV-I 0 W/m² 2,7 °C 6,4 km/h (2 Bft)
15.11.2016 23:34 4,3 °C 4,3 °C 89 % 1028,8 hPa 0,0 mm 5,7 km/h (1 Bft) S-SW 209 ° 0 min 0,000 mm 0,0 UV-I 0 W/m² 2,7 °C 9,7 km/h (2 Bft)
15.11.2016 23:35 4,3 °C 4,3 °C 89 % 1028,8 hPa 0,0 mm 3,6 km/h (1 Bft) S-SW 208 ° 0 min 0,000 mm 0,0 UV-I 0 W/m² 2,7 °C 6,4 km/h (2 Bft)
15.11.2016 23:36 4,3 °C 4,3 °C 89 % 1028,8 hPa 0,0 mm 3,9 km/h (1 Bft) W-SW 257 ° 0 min 0,000 mm 0,0 UV-I 0 W/m² 2,7 °C 6,4 km/h (2 Bft)
15.11.2016 23:37 4,3 °C 4,4 °C 89 % 1028,7 hPa 0,0 mm 2,5 km/h (1 Bft) W-SW 257 ° 0 min 0,000 mm 0,0 UV-I 0 W/m² 2,7 °C 4,8 km/h (1 Bft)
15.11.2016 23:38 4,3 °C 4,3 °C 89 % 1028,8 hPa 0,0 mm 3,4 km/h (1 Bft) W-SW 242 ° 0 min 0,000 mm 0,0 UV-I 0 W/m² 2,7 °C 6,4 km/h (2 Bft)
15.11.2016 23:39 4,3 °C 4,3 °C 89 % 1028,8 hPa 0,0 mm 4,3 km/h (1 Bft) S 190 ° 0 min 0,000 mm 0,0 UV-I 0 W/m² 2,7 °C 6,4 km/h (2 Bft)
15.11.2016 23:40 4,3 °C 4,3 °C 89 % 1028,8 hPa 0,0 mm 3,2 km/h (1 Bft) S-SW 202 ° 0 min 0,000 mm 0,0 UV-I 0 W/m² 2,7 °C 6,4 km/h (2 Bft)
15.11.2016 23:41 4,3 °C 4,3 °C 89 % 1028,8 hPa 0,0 mm 2,4 km/h (1 Bft) S-SW 202 ° 0 min 0,000 mm 0,0 UV-I 0 W/m² 2,7 °C 4,8 km/h (1 Bft)
15.11.2016 23:42 4,3 °C 4,3 °C 89 % 1028,8 hPa 0,0 mm 3,3 km/h (1 Bft) SW 214 ° 0 min 0,000 mm 0,0 UV-I 0 W/m² 2,7 °C 4,8 km/h (1 Bft)
15.11.2016 23:43 4,3 °C 4,3 °C 89 % 1028,7 hPa 0,0 mm 2,3 km/h (1 Bft) SW 214 ° 0 min 0,000 mm 0,0 UV-I 0 W/m² 2,7 °C 4,8 km/h (1 Bft)
15.11.2016 23:44 4,3 °C 4,3 °C 89 % 1028,7 hPa 0,0 mm 1,8 km/h (1 Bft) S-SW 208 ° 0 min 0,000 mm 0,0 UV-I 0 W/m² 2,7 °C 3,2 km/h (1 Bft)
15.11.2016 23:45 4,3 °C 4,3 °C 89 % 1028,7 hPa 0,0 mm 4,9 km/h (1 Bft) S-SW 210 ° 0 min 0,000 mm 0,0 UV-I 0 W/m² 2,7 °C 9,7 km/h (2 Bft)
15.11.2016 23:46 4,3 °C 4,3 °C 89 % 1028,7 hPa 0,0 mm 2,6 km/h (1 Bft) S 184 ° 0 min 0,000 mm 0,0 UV-I 0 W/m² 2,7 °C 6,4 km/h (2 Bft)
15.11.2016 23:47 4,4 °C 4,4 °C 89 % 1028,6 hPa 0,0 mm 4,7 km/h (1 Bft) S-SW 213 ° 0 min 0,000 mm 0,0 UV-I 0 W/m² 2,7 °C 11,3 km/h (2 Bft)
15.11.2016 23:48 4,3 °C 4,4 °C 89 % 1028,6 hPa 0,0 mm 4,4 km/h (1 Bft) S-SW 209 ° 0 min 0,000 mm 0,0 UV-I 0 W/m² 2,7 °C 8,0 km/h (2 Bft)
15.11.2016 23:49 4,3 °C 4,4 °C 89 % 1028,6 hPa 0,0 mm 2,4 km/h (1 Bft) SW 219 ° 0 min 0,000 mm 0,0 UV-I 0 W/m² 2,7 °C 3,2 km/h (1 Bft)
15.11.2016 23:50 4,3 °C 4,4 °C 89 % 1028,7 hPa 0,0 mm 5,0 km/h (1 Bft) S-SW 198 ° 0 min 0,000 mm 0,0 UV-I 0 W/m² 2,7 °C 8,0 km/h (2 Bft)
15.11.2016 23:51 4,3 °C 4,4 °C 89 % 1028,6 hPa 0,0 mm 4,0 km/h (1 Bft) S 172 ° 0 min 0,000 mm 0,0 UV-I 0 W/m² 2,7 °C 6,4 km/h (2 Bft)
15.11.2016 23:52 4,4 °C 4,4 °C 89 % 1028,6 hPa 0,0 mm 3,4 km/h (1 Bft) SW 231 ° 0 min 0,000 mm 0,0 UV-I 0 W/m² 2,7 °C 4,8 km/h (1 Bft)
15.11.2016 23:53 4,4 °C 4,4 °C 89 % 1028,6 hPa 0,0 mm 3,4 km/h (1 Bft) S-SW 210 ° 0 min 0,000 mm 0,0 UV-I 0 W/m² 2,7 °C 6,4 km/h (2 Bft)
15.11.2016 23:54 4,4 °C 4,4 °C 89 % 1028,6 hPa 0,0 mm 5,3 km/h (1 Bft) S-SW 202 ° 0 min 0,000 mm 0,0 UV-I 0 W/m² 2,7 °C 8,0 km/h (2 Bft)
15.11.2016 23:55 4,4 °C 4,4 °C 89 % 1028,6 hPa 0,0 mm 3,2 km/h (1 Bft) SW 223 ° 0 min 0,000 mm 0,0 UV-I 0 W/m² 2,7 °C 8,0 km/h (2 Bft)
15.11.2016 23:56 4,4 °C 4,4 °C 89 % 1028,6 hPa 0,0 mm 5,0 km/h (1 Bft) S-SW 202 ° 0 min 0,000 mm 0,0 UV-I 0 W/m² 2,7 °C 6,4 km/h (2 Bft)
15.11.2016 23:57 4,4 °C 4,4 °C 89 % 1028,5 hPa 0,0 mm 5,2 km/h (1 Bft) SW 221 ° 0 min 0,000 mm 0,0 UV-I 0 W/m² 2,7 °C 8,0 km/h (2 Bft)
15.11.2016 23:58 4,4 °C 4,5 °C 89 % 1028,6 hPa 0,0 mm 4,1 km/h (1 Bft) SW 235 ° 0 min 0,000 mm 0,0 UV-I 0 W/m² 2,7 °C 6,4 km/h (2 Bft)
15.11.2016 23:59 4,4 °C 4,5 °C 89 % 1028,6 hPa 0,0 mm 2,7 km/h (1 Bft) SW 232 ° 0 min 0,000 mm 0,0 UV-I 0 W/m² 2,7 °C 4,8 km/h (1 Bft)
_ Min-Zeit 08:18 08:18 13:40 23:57 - 21:20 - - - - - - 07:33 21:20
Minimum _ -2,8 °C -2,8 °C 79 % 1028,5 hPa - 0,0 km/h (0 Bft) - - - - - - -3,6 °C 0,0 km/h (0 Bft)
_ Max-Zeit 23:58 23:59 08:59 08:20 15:00 23:04 - - 14:50 13:00 11:53 12:04 15:24 23:10
Maximum _ 4,5 °C 4,5 °C 95 % 1033,2 hPa 0,2 mm 9,4 km/h
S (2 Bft)
- - 1 min 0,076 mm 1,5 UV-I 225 W/m² 2,9 °C 16,1 km/h
S-SO (3 Bft)
Durchschnitt _ 0,7 °C 0,7 °C 91 % 1031,5 hPa #0,6 mm 2,1 km/h (1 Bft) W - #9 min. #0,305 mm 1,0 UV-I 37 W/m² -0,6 °C 3,6 km/h (1 Bft)